[[{"header":{"parameterUnit":"m.s-1","parameterCategory":1,"la1":31.0,"la2":29.5877,"lo1":-88.7671,"lo2":-86.6584,"dx":0.0162,"dy":0.0185,"nx":115,"ny":88,"refTime":"2023-01-29T18:00:00:Z","depth":0,"parameterNumber":2,"parameterNumberName":"U-component_of_WINDS"},"data":[0.0,0.0,0.0,0.0,0.0,0.0,0.0,0.0,0.0,0.0,0.0,0.0,0.0,0.0,0.0,0.0,0.0,0.0,0.0,0.0,0.0,0.0,0.0,0.0,0.0,0.0,0.0,0.0,0.0,0.0,0.0,0.0,0.0,0.0,0.0,0.0,0.0,0.0,0.0,0.0,0.0,0.0,0.0,0.0,0.0,0.0,0.0,0.0,0.0,0.0,0.0,0.0,0.0,0.0,0.0,0.0,0.0,0.0,0.0,0.0,0.0,0.0,0.0,0.0,0.0,0.0,0.0,0.0,0.0,0.0,0.0,0.0,0.0,0.0,0.0,0.0,0.0,0.0,0.0,0.0,0.0,0.0,0.0,0.0,0.0,0.0,0.0,0.0,0.0,0.0,0.0,0.0,0.0,0.0,0.0,0.0,0.0,0.0,0.0,0.0,0.0,0.0,0.0,0.0,0.0,0.0,0.0,0.0,0.0,0.0,0.0,0.0,0.0,0.0,0.0,0.0,0.0,0.0,0.0,0.0,0.0,0.0,0.0,0.0,0.0,0.0,0.0,0.0,0.0,0.0,0.0,0.0,0.0,0.0,0.0,0.0,0.0,0.0,0.0,0.0,0.0,0.0,0.0,0.0,0.0,0.0,0.0,0.0,0.0,0.0,0.0,0.0,0.0,0.0,0.0,0.0,0.0,0.0,0.0,0.0,0.0,0.0,0.0,0.0,0.0,0.0,0.0,0.0,0.0,0.0,0.0,0.0,0.0,0.0,0.0,0.0,0.0,0.0,0.0,0.0,0.0,0.0,0.0,0.0,0.0,0.0,0.0,0.0,0.0,0.0,0.0,0.0,0.0,0.0,0.0,0.0,0.0,0.0,0.0,0.0,0.0,0.0,0.0,0.0,0.0,0.0,0.0,0.0,0.0,0.0,0.0,0.0,0.0,0.0,0.0,0.0,0.0,0.0,0.0,0.0,0.0,0.0,0.0,0.0,0.0,0.0,0.0,0.0,0.0,0.0,0.0,0.0,0.0,0.0,0.0,0.0,0.0,0.0,0.0,0.0,0.0,0.0,0.0,0.0,0.0,0.0,0.0,0.0,0.0,0.0,0.0,0.0,0.0,0.0,0.0,0.0,0.0,0.0,0.0,0.0,0.0,0.0,0.0,0.0,0.0,0.0,0.0,0.0,0.0,0.0,0.0,0.0,0.0,0.0,0.0,0.0,0.0,0.0,0.0,0.0,0.0,0.0,0.0,0.0,0.0,0.0,0.0,0.0,0.0,0.0,0.0,0.0,0.0,0.0,0.0,0.0,0.0,0.0,0.0,0.0,0.0,0.0,0.0,0.0,0.0,0.0,0.0,0.0,0.0,0.0,0.0,0.0,0.0,0.0,0.0,0.0,0.0,0.0,0.0,0.0,0.0,0.0,0.0,0.0,0.0,0.0,0.0,0.0,0.0,0.0,0.0,0.0,0.0,0.0,0.0,0.0,0.0,0.0,0.0,0.0,0.0,0.0,0.0,0.0,0.0,0.0,0.0,0.0,0.0,0.0,0.0,0.0,0.0,0.0,0.0,0.0,0.0,0.0,0.0,0.0,0.0,0.0,0.0,0.0,0.0,0.0,0.0,0.0,0.0,0.0,0.0,0.0,0.0,0.0,0.0,0.0,0.0,0.0,0.0,0.0,0.0,0.0,0.0,0.0,0.0,0.0,0.0,0.0,0.0,0.0,0.0,0.0,0.0,0.0,0.0,0.0,0.0,0.0,0.0,0.0,0.0,0.0,0.0,0.0,0.0,0.0,0.0,0.0,0.0,0.0,0.0,0.0,0.0,0.0,0.0,0.0,0.0,0.0,0.0,0.0,0.0,0.0,0.0,0.0,0.0,0.0,0.0,0.0,0.0,0.0,0.0,0.0,0.0,0.0,0.0,0.0,0.0,0.0,0.0,0.0,0.0,0.0,0.0,0.0,0.0,0.0,0.0,0.0,0.0,0.0,0.0,0.0,0.0,0.0,0.0,0.0,0.0,0.0,0.0,0.0,0.0,0.0,0.0,0.0,0.0,0.0,0.0,0.0,0.0,0.0,0.0,0.0,0.0,0.0,0.0,0.0,0.0,0.0,0.0,0.0,0.0,0.0,0.0,0.0,0.0,0.0,0.0,0.0,0.0,0.0,0.0,0.0,0.0,0.0,0.0,0.0,0.0,0.0,0.0,0.0,0.0,0.0,0.0,0.0,0.0,0.0,0.0,0.0,0.0,0.0,0.0,0.0,0.0,0.0,0.0,0.0,0.0,0.0,0.0,0.0,0.0,0.0,0.0,0.0,0.0,0.0,0.0,0.0,0.0,0.0,0.0,0.0,0.0,0.0,0.0,0.0,0.0,0.0,0.0,0.0,0.0,0.0,0.0,0.0,0.0,0.0,0.0,0.0,0.0,0.0,0.0,0.0,0.0,0.0,0.0,0.0,0.0,0.0,0.0,0.0,0.0,0.0,0.0,0.0,0.0,0.0,0.0,0.0,0.0,0.0,0.0,0.0,0.0,0.0,0.0,0.0,0.0,0.0,0.0,0.0,0.0,0.0,0.0,0.0,0.0,0.0,0.0,0.0,0.0,0.0,0.0,0.0,0.0,0.0,0.0,0.0,0.0,0.0,0.0,0.0,0.0,0.0,0.0,0.0,0.0,0.0,0.0,0.0,0.0,0.0,0.0,0.0,0.0,0.0,0.0,0.0,0.0,0.0,0.0,0.0,0.0,0.0,0.0,0.0,0.0,0.0,0.0,0.0,0.0,0.0,0.0,0.0,0.0,0.0,0.0,0.0,0.0,0.0,0.0,0.0,0.0,0.0,0.0,0.0,0.0,0.0,0.0,0.0,0.0,0.0,0.0,0.0,0.0,0.0,0.0,0.0,0.0,0.0,0.0,0.0,0.0,0.0,0.0,0.0,0.0,0.0,0.0,0.0,0.0,0.0,0.0,0.0,0.0,0.0,0.0,0.0,0.0,0.0,0.0,0.0,0.0,0.0,0.0,0.0,0.0,0.0,0.0,0.0,0.0,0.0,0.0,0.0,0.0,0.0,0.0,0.0,0.0,0.0,0.0,0.0,0.0,0.0,0.0,0.0,0.0,0.0,0.0,0.0,0.0,0.0,0.0,0.0,0.0,0.0,0.0,0.0,0.0,0.0,0.0,0.0,0.0,0.0,0.0,0.0,0.0,0.0,0.0,0.0,0.0,0.0,0.0,0.0,0.0,0.0,0.0,0.0,0.0,0.0,0.0,0.0,0.0,0.0,0.0,0.0,0.0,0.0,0.0,0.0,0.0,0.0,0.0,0.0,0.0,0.0,0.0,0.0,0.0,0.0,0.0,0.0,0.0,0.0,0.0,0.0,0.0,0.0,0.0,0.0,0.0,0.0,0.0,0.0,0.0,0.0,0.0,0.0,0.0,0.0,0.0,0.0,0.0,0.0,0.0,0.0,0.0,0.0,0.0,0.0,0.0,0.0,0.0,0.0,0.0,0.0,0.0,0.0,0.0,0.0,0.0,0.0,0.0,0.0,0.0,0.0,0.0,0.0,0.0,0.0,0.0,0.0,0.0,0.0,0.0,0.0,0.0,0.0,0.0,0.0,0.0,0.0,0.0,0.0,0.0,0.0,0.0,0.0,0.0,0.0,0.0,0.0,0.0,0.0,0.0,0.0,0.0,0.0,0.0,0.0,0.0,0.0,0.0,0.0,0.0,0.0,0.0,0.0,0.0,0.0,0.0,0.0,0.0,0.0,0.0,0.0,0.0,0.0,0.0,0.0,0.0,0.0,0.0,0.0,0.0,0.0,0.0,0.0,0.0,0.0,0.0,0.0,0.0,0.0,0.0,0.0,0.0,0.0,0.0,0.0,0.0,0.0,0.0,0.0,0.0,0.0,0.0,0.0,0.0,0.0,0.0,0.0,0.0,0.0,0.0,0.0,0.0,0.0,0.0,0.0,0.0,0.0,0.0,0.0,0.0,0.0,0.0,0.0,0.0,0.0,0.0,0.0,0.0,0.0,0.0,0.0,0.0,0.0,0.0,0.0,0.0,0.0,0.0,0.0,0.0,0.0,0.0,0.0,0.0,0.0,0.0,0.0,0.0,0.0,0.0,0.0,0.0,0.0,0.0,0.0,0.0,0.0,0.0,0.0,0.0,0.0,0.0,0.0,0.0,0.0,0.0,0.0,0.0,0.0,0.0,0.0,0.0,0.0,0.0,0.0,0.0,0.0,0.0,0.0,0.0,0.0,0.0,0.0,-6.7669,0.0,0.0,0.0,0.0,0.0,0.0,0.0,0.0,0.0,0.0,0.0,0.0,0.0,0.0,0.0,0.0,0.0,0.0,0.0,0.0,0.0,0.0,0.0,0.0,0.0,0.0,0.0,0.0,0.0,0.0,0.0,0.0,0.0,0.0,0.0,0.0,0.0,0.0,0.0,0.0,0.0,0.0,0.0,0.0,0.0,0.0,0.0,0.0,0.0,0.0,0.0,0.0,0.0,0.0,0.0,0.0,0.0,0.0,0.0,0.0,0.0,0.0,0.0,0.0,0.0,0.0,0.0,0.0,0.0,0.0,0.0,0.0,0.0,0.0,0.0,0.0,0.0,0.0,0.0,0.0,0.0,0.0,0.0,0.0,0.0,0.0,0.0,0.0,0.0,0.0,0.0,0.0,0.0,0.0,0.0,0.0,0.0,0.0,0.0,0.0,0.0,0.0,0.0,0.0,0.0,0.0,0.0,0.0,0.0,0.0,-6.7669,-6.7696,-6.7967,-6.7948,-6.7714,0.0,0.0,0.0,0.0,0.0,0.0,0.0,0.0,0.0,0.0,0.0,0.0,0.0,0.0,0.0,0.0,0.0,0.0,0.0,0.0,0.0,0.0,0.0,0.0,0.0,0.0,0.0,0.0,0.0,0.0,0.0,0.0,0.0,0.0,0.0,0.0,0.0,0.0,0.0,0.0,0.0,0.0,0.0,0.0,0.0,0.0,0.0,0.0,0.0,0.0,0.0,0.0,0.0,0.0,0.0,0.0,0.0,0.0,0.0,0.0,0.0,0.0,0.0,0.0,0.0,0.0,0.0,0.0,0.0,0.0,0.0,0.0,0.0,0.0,0.0,0.0,0.0,0.0,0.0,0.0,0.0,0.0,0.0,0.0,0.0,0.0,0.0,0.0,0.0,0.0,0.0,0.0,0.0,0.0,0.0,0.0,0.0,0.0,0.0,0.0,0.0,0.0,0.0,0.0,0.0,0.0,0.0,0.0,0.0,0.0,0.0,0.0,-6.8297,-6.8346,-6.7889,0.0,0.0,0.0,0.0,0.0,0.0,0.0,0.0,0.0,0.0,0.0,0.0,0.0,0.0,0.0,0.0,0.0,0.0,0.0,0.0,0.0,0.0,0.0,0.0,0.0,0.0,0.0,0.0,0.0,0.0,0.0,0.0,0.0,0.0,0.0,0.0,0.0,0.0,0.0,0.0,0.0,0.0,0.0,0.0,0.0,0.0,0.0,0.0,0.0,0.0,0.0,0.0,0.0,0.0,0.0,0.0,0.0,0.0,0.0,0.0,0.0,0.0,0.0,0.0,0.0,0.0,0.0,0.0,0.0,0.0,0.0,0.0,0.0,0.0,0.0,0.0,0.0,0.0,0.0,0.0,0.0,0.0,0.0,0.0,0.0,0.0,0.0,0.0,0.0,0.0,0.0,0.0,0.0,0.0,0.0,0.0,0.0,0.0,0.0,0.0,0.0,0.0,0.0,0.0,0.0,0.0,0.0,0.0,0.0,0.0,-6.8321,-6.8346,-6.8799,0.0,-6.8346,0.0,0.0,0.0,0.0,0.0,0.0,0.0,0.0,0.0,0.0,0.0,0.0,0.0,0.0,0.0,0.0,0.0,0.0,0.0,0.0,0.0,0.0,0.0,0.0,0.0,0.0,0.0,0.0,0.0,0.0,0.0,0.0,0.0,0.0,0.0,0.0,0.0,0.0,0.0,0.0,0.0,0.0,0.0,0.0,0.0,0.0,0.0,0.0,0.0,0.0,0.0,0.0,0.0,0.0,0.0,0.0,0.0,0.0,0.0,0.0,0.0,0.0,0.0,0.0,0.0,0.0,0.0,0.0,0.0,0.0,0.0,0.0,0.0,0.0,0.0,0.0,0.0,0.0,0.0,0.0,0.0,0.0,0.0,0.0,0.0,0.0,0.0,0.0,0.0,0.0,0.0,0.0,0.0,0.0,0.0,0.0,0.0,0.0,0.0,0.0,0.0,0.0,0.0,0.0,0.0,0.0,0.0,0.0,0.0,0.0,-6.8821,-6.8803,-6.873,-6.873,0.0,0.0,0.0,0.0,0.0,0.0,0.0,0.0,0.0,0.0,0.0,0.0,0.0,0.0,0.0,0.0,0.0,0.0,0.0,0.0,0.0,0.0,0.0,0.0,0.0,0.0,0.0,0.0,0.0,0.0,0.0,0.0,0.0,0.0,0.0,0.0,0.0,0.0,0.0,0.0,0.0,0.0,0.0,0.0,0.0,0.0,0.0,0.0,0.0,0.0,0.0,0.0,0.0,0.0,0.0,0.0,0.0,0.0,0.0,0.0,0.0,0.0,0.0,0.0,0.0,0.0,0.0,0.0,0.0,0.0,0.0,0.0,0.0,0.0,0.0,0.0,0.0,0.0,0.0,0.0,0.0,0.0,0.0,0.0,0.0,0.0,0.0,0.0,0.0,0.0,0.0,0.0,0.0,0.0,0.0,0.0,0.0,0.0,0.0,0.0,0.0,0.0,0.0,0.0,0.0,0.0,0.0,0.0,0.0,0.0,-6.9219,-6.9344,-6.9445,-6.8893,-6.8753,-6.9091,0.0,0.0,0.0,0.0,0.0,0.0,0.0,0.0,0.0,0.0,0.0,0.0,0.0,0.0,0.0,0.0,0.0,0.0,0.0,0.0,0.0,0.0,0.0,0.0,0.0,0.0,0.0,0.0,0.0,0.0,0.0,0.0,0.0,0.0,0.0,0.0,0.0,0.0,0.0,0.0,0.0,0.0,0.0,0.0,0.0,0.0,0.0,0.0,0.0,0.0,0.0,0.0,0.0,0.0,0.0,0.0,0.0,0.0,0.0,0.0,0.0,0.0,0.0,0.0,0.0,0.0,0.0,0.0,0.0,0.0,0.0,0.0,0.0,0.0,0.0,0.0,0.0,0.0,0.0,0.0,0.0,0.0,0.0,0.0,0.0,0.0,0.0,0.0,0.0,0.0,0.0,0.0,0.0,0.0,0.0,0.0,0.0,0.0,0.0,0.0,0.0,0.0,0.0,0.0,0.0,0.0,0.0,0.0,-6.9112,-6.9525,-6.9946,-7.0281,-6.9506,-6.9088,0.0,0.0,0.0,0.0,0.0,0.0,0.0,0.0,0.0,0.0,0.0,0.0,0.0,0.0,0.0,0.0,0.0,0.0,0.0,0.0,0.0,0.0,0.0,0.0,0.0,0.0,0.0,0.0,0.0,0.0,0.0,0.0,0.0,0.0,0.0,0.0,0.0,0.0,0.0,0.0,0.0,0.0,0.0,0.0,0.0,0.0,0.0,0.0,0.0,0.0,0.0,0.0,0.0,0.0,0.0,0.0,0.0,0.0,0.0,0.0,0.0,0.0,0.0,0.0,0.0,0.0,0.0,0.0,0.0,0.0,0.0,0.0,0.0,0.0,0.0,0.0,0.0,0.0,0.0,0.0,0.0,0.0,0.0,0.0,0.0,0.0,0.0,0.0,0.0,0.0,0.0,0.0,0.0,0.0,0.0,0.0,0.0,0.0,0.0,0.0,0.0,0.0,0.0,0.0,0.0,0.0,0.0,0.0,0.0,-6.9927,-7.009,-7.0266,-7.0367,-6.9546,-6.9091,0.0,0.0,0.0,0.0,0.0,0.0,0.0,0.0,0.0,0.0,0.0,0.0,0.0,0.0,0.0,0.0,0.0,0.0,0.0,0.0,0.0,0.0,0.0,0.0,0.0,0.0,0.0,0.0,0.0,0.0,0.0,0.0,0.0,0.0,0.0,0.0,0.0,0.0,0.0,0.0,0.0,0.0,0.0,0.0,0.0,0.0,0.0,0.0,0.0,0.0,0.0,0.0,0.0,0.0,0.0,0.0,0.0,0.0,0.0,0.0,0.0,0.0,0.0,0.0,0.0,0.0,0.0,0.0,0.0,0.0,0.0,0.0,0.0,0.0,0.0,0.0,0.0,0.0,0.0,0.0,0.0,0.0,0.0,0.0,0.0,0.0,0.0,0.0,0.0,0.0,0.0,0.0,0.0,0.0,0.0,0.0,0.0,0.0,0.0,0.0,0.0,0.0,0.0,0.0,0.0,0.0,0.0,0.0,0.0,-7.0383,0.0,-7.0402,-7.0386,-6.9546,-6.9091,0.0,0.0,0.0,0.0,0.0,0.0,0.0,0.0,0.0,0.0,0.0,0.0,0.0,0.0,0.0,0.0,0.0,0.0,0.0,0.0,0.0,0.0,0.0,0.0,0.0,0.0,0.0,0.0,0.0,0.0,0.0,0.0,0.0,0.0,0.0,0.0,0.0,0.0,0.0,0.0,0.0,0.0,0.0,0.0,0.0,0.0,0.0,0.0,0.0,0.0,0.0,0.0,0.0,0.0,0.0,0.0,0.0,0.0,0.0,0.0,0.0,0.0,0.0,0.0,0.0,0.0,0.0,0.0,0.0,0.0,0.0,0.0,0.0,0.0,0.0,0.0,0.0,0.0,0.0,0.0,0.0,0.0,0.0,0.0,0.0,0.0,0.0,0.0,0.0,0.0,0.0,0.0,0.0,0.0,0.0,0.0,0.0,0.0,0.0,0.0,0.0,0.0,0.0,0.0,0.0,0.0,0.0,0.0,-7.0402,-7.0402,-7.0402,-7.0402,-7.0367,-6.9566,-6.9112,0.0,0.0,0.0,0.0,0.0,0.0,0.0,0.0,0.0,0.0,0.0,0.0,0.0,0.0,0.0,0.0,0.0,0.0,0.0,0.0,0.0,0.0,0.0,0.0,0.0,0.0,0.0,0.0,0.0,0.0,0.0,0.0,0.0,0.0,0.0,0.0,0.0,0.0,0.0,0.0,0.0,0.0,0.0,0.0,0.0,0.0,0.0,0.0,0.0,0.0,0.0,0.0,0.0,0.0,0.0,0.0,0.0,0.0,0.0,0.0,0.0,0.0,0.0,0.0,0.0,0.0,0.0,0.0,0.0,0.0,0.0,0.0,0.0,0.0,0.0,0.0,0.0,0.0,0.0,0.0,0.0,0.0,0.0,0.0,0.0,0.0,0.0,0.0,0.0,0.0,0.0,0.0,0.0,0.0,0.0,0.0,0.0,0.0,0.0,0.0,0.0,0.0,0.0,0.0,0.0,0.0,0.0,0.0,0.0,-7.0402,-7.0402,-7.0402,-7.0402,-6.9872,-6.9424,0.0,0.0,0.0,0.0,0.0,0.0,0.0,0.0,0.0,0.0,0.0,0.0,0.0,0.0,0.0,0.0,0.0,0.0,0.0,0.0,0.0,0.0,0.0,0.0,0.0,0.0,0.0,0.0,0.0,0.0,0.0,0.0,0.0,0.0,0.0,0.0,0.0,0.0,0.0,0.0,0.0,0.0,0.0,0.0,0.0,0.0,0.0,0.0,0.0,0.0,0.0,0.0,0.0,0.0,0.0,0.0,0.0,0.0,0.0,0.0,0.0,0.0,0.0,0.0,0.0,0.0,0.0,0.0,0.0,0.0,0.0,0.0,0.0,0.0,0.0,0.0,0.0,0.0,0.0,0.0,0.0,0.0,0.0,0.0,0.0,0.0,0.0,0.0,0.0,0.0,0.0,0.0,0.0,0.0,0.0,0.0,0.0,0.0,0.0,0.0,0.0,0.0,0.0,0.0,0.0,0.0,0.0,0.0,0.0,-6.9823,-6.9842,-6.9842,-6.9823,-6.9416,-6.9263,-6.9325,0.0,0.0,0.0,0.0,0.0,0.0,0.0,0.0,0.0,0.0,0.0,0.0,0.0,0.0,0.0,0.0,0.0,0.0,0.0,0.0,0.0,0.0,0.0,0.0,0.0,0.0,0.0,0.0,0.0,0.0,0.0,0.0,0.0,0.0,0.0,0.0,0.0,0.0,0.0,0.0,0.0,0.0,0.0,0.0,0.0,0.0,0.0,0.0,0.0,0.0,0.0,0.0,0.0,0.0,0.0,0.0,0.0,0.0,0.0,0.0,0.0,0.0,0.0,0.0,0.0,0.0,0.0,0.0,0.0,0.0,0.0,0.0,0.0,0.0,0.0,0.0,0.0,0.0,0.0,0.0,0.0,0.0,0.0,0.0,0.0,0.0,0.0,0.0,0.0,0.0,0.0,0.0,0.0,0.0,0.0,0.0,0.0,0.0,0.0,0.0,0.0,0.0,0.0,0.0,0.0,0.0,0.0,0.0,-6.8794,-6.8758,-6.8739,-6.8796,-6.8452,-6.8696,0.0,0.0,0.0,0.0,0.0,0.0,0.0,0.0,0.0,0.0,0.0,0.0,0.0,0.0,0.0,0.0,0.0,0.0,0.0,0.0,0.0,0.0,0.0,0.0,0.0,0.0,0.0,0.0,0.0,0.0,0.0,0.0,0.0,0.0,0.0,0.0,0.0,0.0,0.0,0.0,0.0,0.0,0.0,0.0,0.0,0.0,0.0,0.0,0.0,0.0,0.0,0.0,0.0,0.0,0.0,0.0,0.0,0.0,0.0,0.0,0.0,0.0,0.0,0.0,0.0,0.0,0.0,0.0,0.0,0.0,0.0,0.0,0.0,0.0,0.0,0.0,0.0,0.0,0.0,0.0,0.0,0.0,0.0,0.0,0.0,0.0,0.0,0.0,0.0,0.0,0.0,0.0,0.0,0.0,0.0,0.0,0.0,0.0,0.0,0.0,0.0,0.0,0.0,0.0,0.0,0.0,0.0,0.0,0.0,-6.7764,-6.7031,-6.6975,-6.7765,-6.8371,-6.8678,0.0,0.0,0.0,0.0,0.0,0.0,0.0,0.0,0.0,0.0,0.0,0.0,0.0,0.0,0.0,0.0,0.0,0.0,0.0,0.0,0.0,0.0,0.0,0.0,0.0,0.0,0.0,0.0,0.0,0.0,0.0,0.0,0.0,0.0,0.0,0.0,0.0,0.0,0.0,0.0,0.0,0.0,0.0,0.0,0.0,0.0,0.0,0.0,0.0,0.0,0.0,0.0,0.0,0.0,0.0,0.0,0.0,0.0,0.0,0.0,0.0,0.0,0.0,0.0,0.0,0.0,0.0,0.0,0.0,0.0,0.0,0.0,0.0,0.0,0.0,0.0,0.0,0.0,0.0,0.0,0.0,0.0,0.0,0.0,0.0,0.0,0.0,0.0,0.0,0.0,0.0,0.0,0.0,0.0,0.0,0.0,0.0,0.0,0.0,0.0,0.0,0.0,0.0,0.0,0.0,0.0,0.0,0.0,-6.6643,-6.6821,-6.5766,-6.5463,-6.6088,-6.752,-6.8352,0.0,0.0,0.0,0.0,0.0,0.0,0.0,0.0,0.0,0.0,0.0,0.0,0.0,0.0,0.0,0.0,0.0,0.0,0.0,0.0,0.0,0.0,0.0,0.0,0.0,0.0,0.0,0.0,0.0,0.0,0.0,0.0,0.0,0.0,0.0,0.0,0.0,0.0,0.0,0.0,0.0,0.0,0.0,0.0,0.0,0.0,0.0,0.0,0.0,0.0,0.0,0.0,0.0,0.0,0.0,0.0,0.0,0.0,0.0,0.0,0.0,0.0,0.0,0.0,0.0,0.0,0.0,0.0,0.0,0.0,0.0,0.0,0.0,0.0,0.0,0.0,0.0,0.0,0.0,0.0,0.0,0.0,0.0,0.0,0.0,0.0,0.0,0.0,0.0,0.0,0.0,0.0,0.0,0.0,0.0,0.0,0.0,0.0,0.0,0.0,0.0,0.0,0.0,0.0,0.0,0.0,0.0,0.0,-6.5269,-6.6045,-6.4896,-6.4303,-6.4361,-6.6314,-6.7821,0.0,0.0,0.0,0.0,0.0,0.0,0.0,0.0,0.0,0.0,0.0,0.0,0.0,0.0,0.0,0.0,0.0,0.0,0.0,0.0,0.0,0.0,0.0,0.0,0.0,0.0,0.0,0.0,0.0,0.0,0.0,0.0,0.0,0.0,0.0,0.0,0.0,0.0,0.0,0.0,0.0,0.0,0.0,0.0,0.0,0.0,0.0,0.0,0.0,0.0,0.0,0.0,0.0,0.0,0.0,0.0,0.0,0.0,0.0,0.0,0.0,0.0,0.0,0.0,0.0,0.0,0.0,0.0,0.0,0.0,0.0,0.0,0.0,0.0,0.0,0.0,0.0,0.0,0.0,0.0,0.0,0.0,0.0,0.0,0.0,0.0,0.0,0.0,0.0,0.0,0.0,0.0,0.0,0.0,0.0,0.0,0.0,0.0,0.0,0.0,0.0,0.0,0.0,0.0,0.0,0.0,0.0,0.0,-6.5215,-6.5823,-6.4818,-6.4284,-6.4284,-6.6314,-6.752,0.0,0.0,0.0,0.0,0.0,0.0,0.0,0.0,0.0,0.0,0.0,0.0,0.0,0.0,0.0,0.0,0.0,0.0,0.0,0.0,0.0,0.0,0.0,0.0,0.0,0.0,0.0,0.0,0.0,0.0,0.0,0.0,0.0,0.0,0.0,0.0,0.0,0.0,0.0,0.0,0.0,0.0,0.0,0.0,0.0,0.0,0.0,0.0,-7.0196,0.0,0.0,0.0,0.0,0.0,0.0,0.0,0.0,0.0,0.0,0.0,0.0,0.0,0.0,0.0,0.0,0.0,0.0,0.0,0.0,0.0,0.0,0.0,0.0,0.0,0.0,0.0,0.0,0.0,0.0,0.0,0.0,0.0,0.0,0.0,0.0,0.0,0.0,0.0,0.0,0.0,0.0,0.0,0.0,0.0,0.0,0.0,0.0,0.0,0.0,0.0,0.0,0.0,0.0,0.0,0.0,0.0,0.0,0.0,-6.5026,-6.52,-6.4629,-6.4284,-6.4361,-6.5823,-6.6881,0.0,0.0,0.0,0.0,0.0,0.0,0.0,0.0,0.0,0.0,0.0,0.0,0.0,0.0,0.0,0.0,0.0,0.0,0.0,0.0,0.0,0.0,0.0,0.0,0.0,0.0,0.0,0.0,0.0,0.0,0.0,0.0,0.0,0.0,0.0,0.0,0.0,0.0,0.0,0.0,0.0,0.0,0.0,0.0,0.0,0.0,0.0,0.0,0.0,0.0,0.0,0.0,0.0,0.0,0.0,0.0,0.0,0.0,0.0,0.0,0.0,0.0,0.0,0.0,0.0,0.0,0.0,0.0,0.0,0.0,0.0,0.0,0.0,0.0,0.0,0.0,0.0,0.0,0.0,0.0,0.0,0.0,0.0,0.0,0.0,0.0,0.0,0.0,0.0,0.0,0.0,0.0,0.0,0.0,0.0,0.0,0.0,0.0,0.0,0.0,0.0,0.0,0.0,0.0,0.0,0.0,0.0,-6.4957,-6.4781,-6.4558,-6.4384,-6.4284,-6.4323,-6.516,-6.6125,-6.7162,0.0,0.0,0.0,0.0,0.0,0.0,0.0,0.0,0.0,0.0,0.0,0.0,0.0,0.0,0.0,0.0,0.0,0.0,0.0,0.0,0.0,0.0,0.0,0.0,0.0,0.0,0.0,0.0,0.0,0.0,0.0,0.0,0.0,0.0,0.0,0.0,0.0,0.0,-7.035,-7.0367,0.0,0.0,0.0,0.0,0.0,0.0,0.0,0.0,-6.9851,0.0,0.0,0.0,0.0,0.0,0.0,0.0,0.0,0.0,0.0,0.0,0.0,0.0,0.0,0.0,0.0,0.0,0.0,0.0,0.0,0.0,0.0,0.0,0.0,0.0,0.0,0.0,0.0,0.0,0.0,0.0,0.0,0.0,0.0,0.0,0.0,0.0,0.0,0.0,0.0,0.0,0.0,0.0,0.0,0.0,0.0,0.0,0.0,0.0,0.0,0.0,0.0,0.0,0.0,0.0,0.0,-6.4941,-6.4925,-6.4708,-6.4364,-6.4304,-6.4284,-6.4304,-6.4633,-6.5275,-6.6291,0.0,0.0,0.0,0.0,0.0,0.0,0.0,0.0,0.0,0.0,0.0,0.0,0.0,0.0,0.0,0.0,0.0,0.0,0.0,0.0,0.0,0.0,0.0,0.0,0.0,0.0,0.0,0.0,0.0,0.0,0.0,0.0,0.0,0.0,0.0,0.0,0.0,0.0,0.0,-7.03,-7.0334,0.0,0.0,0.0,0.0,0.0,0.0,0.0,0.0,-6.8303,0.0,0.0,0.0,0.0,0.0,0.0,0.0,0.0,0.0,0.0,0.0,0.0,0.0,0.0,0.0,0.0,0.0,0.0,0.0,0.0,0.0,0.0,0.0,0.0,0.0,0.0,0.0,0.0,0.0,0.0,0.0,0.0,0.0,0.0,0.0,0.0,0.0,0.0,0.0,0.0,0.0,0.0,0.0,0.0,0.0,0.0,0.0,0.0,0.0,0.0,0.0,0.0,0.0,0.0,0.0,-6.4906,-6.4781,-6.4596,-6.4304,-6.4284,-6.4284,-6.4323,-6.4501,-6.5086,0.0,0.0,0.0,0.0,0.0,0.0,0.0,0.0,0.0,0.0,0.0,0.0,0.0,0.0,0.0,0.0,0.0,0.0,0.0,0.0,0.0,0.0,0.0,0.0,0.0,0.0,0.0,0.0,0.0,0.0,0.0,0.0,0.0,0.0,0.0,0.0,0.0,0.0,0.0,0.0,-6.9567,-6.9379,-6.8729,0.0,0.0,0.0,0.0,0.0,0.0,-6.7585,-6.7772,0.0,0.0,0.0,0.0,0.0,0.0,0.0,0.0,0.0,0.0,0.0,0.0,0.0,0.0,0.0,0.0,0.0,0.0,0.0,0.0,0.0,0.0,0.0,0.0,0.0,0.0,0.0,0.0,0.0,0.0,0.0,0.0,0.0,0.0,0.0,0.0,0.0,0.0,0.0,0.0,0.0,0.0,0.0,0.0,0.0,0.0,0.0,0.0,0.0,0.0,0.0,0.0,0.0,0.0,0.0,-6.4888,-6.4538,-6.4237,-6.406,-6.3871,-6.3871,-6.406,-6.4294,-6.4858,0.0,0.0,0.0,0.0,0.0,0.0,0.0,0.0,0.0,0.0,0.0,0.0,0.0,0.0,0.0,0.0,0.0,0.0,0.0,0.0,0.0,0.0,0.0,0.0,0.0,0.0,0.0,0.0,0.0,0.0,0.0,0.0,0.0,0.0,0.0,0.0,0.0,0.0,0.0,0.0,0.0,-6.8325,-6.7427,-6.7381,0.0,0.0,0.0,0.0,-6.7072,-6.7054,0.0,0.0,0.0,0.0,0.0,0.0,0.0,0.0,0.0,0.0,0.0,0.0,0.0,0.0,0.0,0.0,0.0,0.0,0.0,0.0,0.0,0.0,0.0,0.0,0.0,0.0,0.0,0.0,0.0,0.0,0.0,0.0,0.0,0.0,0.0,0.0,0.0,0.0,0.0,0.0,0.0,0.0,0.0,0.0,0.0,0.0,0.0,0.0,0.0,0.0,0.0,0.0,0.0,0.0,0.0,0.0,-6.4869,-6.3933,-6.3371,-6.3215,-6.2482,-6.2444,-6.3214,-6.3557,-6.4132,0.0,0.0,0.0,0.0,0.0,0.0,0.0,0.0,0.0,0.0,0.0,0.0,0.0,0.0,0.0,0.0,0.0,0.0,0.0,0.0,0.0,0.0,0.0,0.0,0.0,0.0,0.0,0.0,0.0,0.0,0.0,0.0,0.0,0.0,0.0,0.0,0.0,0.0,0.0,0.0,0.0,-6.7699,-6.7351,-6.6868,-6.655,0.0,0.0,-6.5227,-6.5208,-6.5065,0.0,0.0,0.0,0.0,0.0,0.0,0.0,0.0,0.0,0.0,0.0,0.0,0.0,0.0,0.0,0.0,0.0,0.0,0.0,0.0,0.0,0.0,0.0,0.0,0.0,0.0,0.0,0.0,0.0,0.0,0.0,0.0,0.0,0.0,0.0,0.0,0.0,0.0,0.0,0.0,0.0,0.0,0.0,0.0,0.0,0.0,0.0,0.0,0.0,0.0,0.0,0.0,0.0,0.0,0.0,-6.4217,-6.413,-6.303,-6.2409,-6.235,-6.1994,-6.1975,-6.235,-6.3159,-6.3788,0.0,0.0,0.0,0.0,0.0,0.0,0.0,0.0,0.0,0.0,0.0,0.0,0.0,0.0,0.0,0.0,0.0,0.0,0.0,0.0,0.0,0.0,0.0,0.0,0.0,0.0,0.0,0.0,0.0,0.0,0.0,0.0,0.0,0.0,0.0,0.0,0.0,0.0,0.0,0.0,0.0,0.0,-6.6024,-6.5717,0.0,0.0,0.0,-6.4924,-6.4989,0.0,0.0,0.0,0.0,0.0,0.0,0.0,0.0,0.0,0.0,0.0,0.0,0.0,0.0,0.0,0.0,0.0,0.0,0.0,0.0,0.0,0.0,0.0,0.0,0.0,0.0,0.0,0.0,0.0,0.0,0.0,0.0,0.0,0.0,0.0,0.0,0.0,0.0,0.0,0.0,0.0,0.0,0.0,0.0,0.0,0.0,0.0,0.0,0.0,0.0,0.0,0.0,0.0,0.0,0.0,0.0,0.0,-6.3278,-6.2108,-6.1506,-6.1487,-6.128,-6.128,-6.1525,-6.2424,0.0,0.0,0.0,0.0,0.0,0.0,0.0,0.0,0.0,0.0,0.0,0.0,0.0,0.0,0.0,0.0,0.0,0.0,0.0,0.0,0.0,0.0,0.0,0.0,0.0,0.0,0.0,-6.9052,0.0,0.0,0.0,0.0,0.0,0.0,0.0,0.0,0.0,0.0,0.0,0.0,0.0,0.0,-6.5571,-6.4983,-6.4926,-6.489,0.0,0.0,-6.4924,-6.4953,-6.4707,-6.4634,0.0,0.0,0.0,0.0,0.0,0.0,0.0,0.0,0.0,0.0,0.0,0.0,0.0,0.0,0.0,0.0,0.0,0.0,0.0,0.0,0.0,0.0,0.0,0.0,0.0,0.0,0.0,0.0,0.0,0.0,0.0,0.0,0.0,0.0,0.0,0.0,0.0,0.0,0.0,0.0,0.0,0.0,0.0,0.0,0.0,0.0,0.0,0.0,0.0,0.0,0.0,0.0,0.0,0.0,0.0,-6.2463,-6.128,-6.068,-6.068,-5.9872,-5.9853,-6.0642,-6.094,-6.1872,0.0,0.0,0.0,0.0,0.0,0.0,0.0,0.0,0.0,0.0,0.0,0.0,0.0,0.0,0.0,0.0,0.0,0.0,0.0,0.0,0.0,0.0,0.0,0.0,0.0,0.0,0.0,0.0,0.0,0.0,0.0,0.0,0.0,0.0,0.0,0.0,0.0,0.0,0.0,0.0,0.0,-6.4964,-6.4926,-6.4926,-6.4836,0.0,0.0,-6.4854,-6.4671,-6.4462,-6.4462,-6.4835,0.0,0.0,0.0,0.0,0.0,0.0,0.0,0.0,0.0,0.0,0.0,0.0,0.0,0.0,0.0,0.0,0.0,0.0,0.0,0.0,0.0,0.0,0.0,0.0,0.0,0.0,0.0,0.0,0.0,0.0,0.0,0.0,0.0,0.0,0.0,0.0,0.0,0.0,0.0,0.0,0.0,0.0,0.0,0.0,0.0,0.0,0.0,0.0,0.0,0.0,0.0,0.0,0.0,-6.1911,-6.1572,-6.0394,-5.9797,-5.9778,-5.9478,-5.9459,-5.9778,-6.0488,-6.125,0.0,0.0,0.0,0.0,0.0,0.0,0.0,0.0,0.0,0.0,0.0,0.0,0.0,0.0,0.0,0.0,0.0,0.0,0.0,0.0,0.0,0.0,0.0,0.0,0.0,0.0,0.0,0.0,-6.6279,-6.5842,-6.5637,0.0,0.0,0.0,0.0,0.0,0.0,0.0,0.0,0.0,0.0,-6.4835,-6.4745,-6.4708,0.0,0.0,-6.4671,-6.4726,-6.4782,-6.4615,-6.4596,-6.4991,-6.5042,0.0,0.0,0.0,0.0,0.0,0.0,0.0,0.0,0.0,0.0,0.0,0.0,0.0,0.0,0.0,0.0,0.0,0.0,0.0,0.0,0.0,0.0,0.0,0.0,0.0,0.0,0.0,0.0,0.0,0.0,0.0,0.0,0.0,0.0,0.0,0.0,0.0,0.0,0.0,0.0,0.0,0.0,0.0,0.0,0.0,0.0,0.0,0.0,0.0,0.0,0.0,0.0,-6.1001,-6.0755,-5.9772,-5.929,-5.929,-5.929,-5.929,-5.9309,-6.0039,-6.0595,0.0,0.0,0.0,0.0,0.0,0.0,0.0,0.0,0.0,0.0,0.0,0.0,0.0,0.0,0.0,0.0,0.0,0.0,0.0,0.0,0.0,0.0,0.0,0.0,0.0,0.0,0.0,0.0,-6.5333,-6.4989,-6.5104,0.0,0.0,0.0,0.0,0.0,0.0,0.0,0.0,0.0,0.0,-6.4781,-6.469,-6.469,-6.4614,-6.435,-6.4348,-6.4326,-6.4151,-6.4196,-6.4384,-6.4626,0.0,0.0,0.0,0.0,0.0,0.0,0.0,0.0,0.0,0.0,0.0,0.0,0.0,0.0,0.0,0.0,0.0,0.0,0.0,0.0,0.0,0.0,0.0,0.0,0.0,0.0,0.0,-6.5471,0.0,0.0,-6.6789,0.0,0.0,0.0,0.0,0.0,0.0,0.0,0.0,0.0,0.0,0.0,0.0,0.0,0.0,0.0,0.0,0.0,0.0,0.0,0.0,0.0,0.0,-6.07,-5.9942,-5.9509,-5.929,-5.929,-5.929,-5.929,-5.929,-5.9328,-5.9833,-6.0877,0.0,0.0,0.0,0.0,0.0,0.0,0.0,0.0,0.0,0.0,0.0,0.0,0.0,0.0,0.0,0.0,0.0,0.0,0.0,0.0,0.0,0.0,0.0,0.0,0.0,0.0,-6.5482,-6.5239,-6.5085,0.0,0.0,0.0,0.0,0.0,0.0,0.0,0.0,0.0,0.0,-6.4834,-6.4671,-6.4834,-6.4852,-6.453,-6.3753,-6.3776,-6.3557,-6.2593,-6.3071,-6.362,0.0,0.0,0.0,0.0,0.0,0.0,0.0,0.0,0.0,0.0,0.0,0.0,0.0,0.0,0.0,0.0,0.0,0.0,0.0,0.0,0.0,0.0,0.0,0.0,0.0,0.0,0.0,-6.44,-6.4438,0.0,0.0,0.0,0.0,0.0,0.0,0.0,0.0,0.0,0.0,0.0,-6.3304,-6.3038,0.0,0.0,0.0,0.0,0.0,0.0,0.0,0.0,0.0,0.0,0.0,0.0,-5.9885,-5.9076,-5.9207,-5.929,-5.929,-5.929,-5.929,-5.929,-5.929,-5.9814,-6.086,0.0,0.0,0.0,0.0,0.0,0.0,0.0,0.0,0.0,0.0,0.0,0.0,0.0,0.0,0.0,0.0,0.0,0.0,0.0,0.0,0.0,0.0,0.0,0.0,0.0,-6.5441,0.0,0.0,0.0,0.0,0.0,0.0,0.0,0.0,0.0,0.0,0.0,-6.5252,-6.5101,-6.4548,-6.4124,-6.4036,-6.3526,-6.326,0.0,0.0,0.0,0.0,0.0,0.0,0.0,0.0,0.0,0.0,0.0,0.0,0.0,0.0,-6.6055,-6.6283,-6.6243,-6.6269,-6.6621,0.0,0.0,0.0,0.0,0.0,0.0,0.0,0.0,0.0,0.0,0.0,0.0,0.0,0.0,-6.3667,0.0,-6.3549,0.0,0.0,0.0,0.0,0.0,0.0,0.0,0.0,-6.3232,-6.2845,-6.2282,-6.1979,-6.1847,0.0,-6.1328,-6.1191,0.0,0.0,0.0,0.0,0.0,0.0,0.0,0.0,-5.9033,-5.8224,-5.8661,-5.8746,-5.8483,-5.8464,-5.8464,-5.8464,-5.8727,-5.9195,-5.9904,-6.0645,-6.1347,0.0,0.0,0.0,0.0,0.0,0.0,0.0,0.0,0.0,0.0,0.0,0.0,0.0,0.0,0.0,0.0,0.0,0.0,0.0,0.0,0.0,0.0,0.0,-6.5068,0.0,0.0,0.0,0.0,0.0,0.0,0.0,0.0,0.0,-6.5337,-6.51,-6.4832,-6.4701,-6.4179,-6.3676,-6.3287,0.0,0.0,0.0,0.0,0.0,0.0,0.0,-6.2936,-6.3657,-6.4375,-6.5058,-6.5755,-6.5947,-6.6047,-6.6091,0.0,0.0,-6.6091,-6.5963,-6.5924,-6.5994,-6.5535,-6.5508,-6.6803,-6.6612,-6.6564,0.0,0.0,0.0,0.0,0.0,0.0,0.0,0.0,-6.2651,-6.3123,0.0,-6.2857,0.0,0.0,0.0,0.0,0.0,-6.3664,0.0,0.0,-6.1958,-6.1845,-6.1936,-6.1144,-6.073,-6.0634,-5.9313,-5.8619,-5.8675,-6.0189,0.0,0.0,0.0,0.0,0.0,0.0,-5.8164,-5.7406,-5.7815,-5.7694,-5.6962,-5.6906,-5.6906,-5.6943,-5.7676,-5.807,-5.8145,-5.981,-6.0784,-6.0821,-6.192,0.0,0.0,0.0,0.0,0.0,0.0,0.0,0.0,0.0,0.0,0.0,0.0,0.0,0.0,0.0,0.0,0.0,0.0,0.0,0.0,-6.5085,0.0,0.0,0.0,0.0,0.0,0.0,0.0,0.0,0.0,0.0,-6.507,-6.4454,-6.3886,-6.3886,0.0,0.0,0.0,0.0,-6.3248,-6.1831,-6.1593,-6.1306,-6.0599,-6.1784,-6.2737,-6.262,0.0,0.0,-6.5705,-6.6056,-6.6244,-6.6095,-6.6137,-6.6283,-6.6378,-6.6225,-6.6155,-6.6331,-6.6176,-6.6165,-6.635,-6.6407,-6.6417,-6.1573,0.0,0.0,0.0,0.0,-6.3274,-6.2718,-6.1831,-6.1766,-6.1837,-6.1948,-6.1622,0.0,0.0,0.0,0.0,0.0,0.0,-6.2241,-6.1344,-6.1201,-6.079,-6.0115,-5.9852,-5.9438,-5.8874,-5.844,-5.7948,-5.7421,-5.7871,-5.8053,-5.7986,0.0,0.0,0.0,0.0,-5.7283,-5.6417,-5.6935,-5.7131,-5.6887,-5.6887,-5.6887,-5.6887,-5.7112,-5.7244,-5.7244,-5.8293,-5.8984,-5.9142,-6.0568,0.0,0.0,0.0,0.0,0.0,0.0,0.0,0.0,0.0,0.0,0.0,0.0,0.0,0.0,0.0,0.0,0.0,0.0,0.0,-6.5085,-6.5085,-6.4908,0.0,0.0,0.0,0.0,0.0,0.0,0.0,0.0,0.0,-6.356,-6.3363,-6.318,0.0,0.0,-6.209,-6.1921,-6.1616,-6.1459,-6.1593,-6.1096,0.0,-6.1211,-6.1172,-6.1348,-6.1994,-6.3731,-6.4875,-6.4442,-6.4938,-6.5374,-6.5324,-6.5344,-6.5538,-6.6109,-6.6215,-6.6205,-6.6235,-6.6215,-6.6194,-6.6245,-6.6254,-6.6254,-6.0007,-6.1019,-6.1975,-6.2395,-6.2395,-6.2376,-6.1859,-6.0985,-6.0929,-6.1004,-6.1178,-6.0705,-6.1201,-6.2423,-6.2423,0.0,0.0,0.0,-6.1336,-6.0369,-6.0458,-5.997,-5.9055,-5.8966,-5.8497,-5.7726,-5.728,-5.6868,-5.638,-5.6112,-5.6125,-5.6425,0.0,0.0,-5.5845,-5.6478,-5.6333,-5.5465,-5.6035,-5.623,-5.5911,-5.5911,-5.5927,-5.5977,-5.6246,-5.645,-5.6587,-5.731,-5.7945,-5.8472,-5.9519,-6.0332,0.0,0.0,0.0,0.0,0.0,0.0,0.0,0.0,0.0,0.0,0.0,-6.4924,0.0,0.0,0.0,0.0,-6.4419,-6.4082,-6.3997,-6.4063,0.0,0.0,0.0,0.0,0.0,0.0,0.0,-6.0981,-6.1478,-6.1917,-6.1917,-6.1917,-6.2032,-6.2338,-6.1917,-6.1497,-6.1172,0.0,-6.0943,-6.1115,-6.0728,-6.0561,-6.1019,-6.0981,-6.1232,-6.2292,-6.3438,-6.4161,-6.3855,-6.4184,-6.4474,-6.4483,-6.4493,-6.4754,-6.5566,-6.5721,-6.5857,-6.6127,-6.6205,-6.6205,-6.6205,-6.6205,-6.6205,-5.7886,-5.8096,-6.0351,-6.1325,-6.1402,-6.1382,-6.1,-6.0408,-6.0193,-6.0571,-6.1187,-6.0125,-6.055,-6.2125,-6.2161,0.0,-6.0802,-6.0861,-6.039,-5.9539,-5.9633,-5.9279,-5.8489,-5.8377,-5.7857,-5.701,-5.6088,-5.559,-5.5496,-5.4912,-5.4613,-5.4632,-5.5409,-5.5489,-5.4962,-5.5523,-5.5406,-5.4635,-5.5206,-5.5177,-5.4426,-5.4424,-5.4505,-5.4632,-5.5222,-5.5685,-5.6008,-5.6657,-5.7435,-5.8337,-5.8642,-5.9113,-5.987,0.0,0.0,0.0,0.0,0.0,0.0,0.0,0.0,0.0,0.0,0.0,0.0,0.0,0.0,0.0,-6.3196,0.0,-6.2328,-6.2515,0.0,0.0,0.0,-6.2777,-6.272,-6.1994,-6.1516,-6.1497,0.0,0.0,-6.0403,-6.0403,-6.0676,-6.1402,-6.1497,-6.123,-6.0518,-6.1019,-6.123,-6.0537,-6.0403,-6.0403,-6.0485,-6.0962,-6.1691,-6.2675,-6.3261,-6.3373,-6.3419,-6.3545,-6.3603,-6.3603,-6.3603,-6.3874,-6.4725,-6.4889,-6.5122,-6.5799,-6.6108,-6.6205,-6.6205,-6.6205,-6.6205,-5.7886,-5.7944,-5.8536,-5.9128,-5.9701,-5.9701,-5.9969,-6.0389,-6.0342,-6.0351,-6.0388,-5.9994,-5.991,-6.0039,-6.02,-6.0122,-5.9897,-5.9406,-5.9076,-5.88,-5.8205,-5.7823,-5.7618,-5.7586,-5.7135,-5.6374,-5.61,-5.5586,-5.487,-5.4676,-5.4594,-5.4616,-5.4805,-5.49,-5.4905,-5.5064,-5.495,-5.4594,-5.4754,-5.474,-5.4568,-5.4698,-5.481,-5.4841,-5.4965,-5.5094,-5.5189,-5.5935,-5.6447,-5.6686,-5.7324,-5.7852,-5.8181,-5.9058,0.0,0.0,0.0,0.0,0.0,0.0,0.0,0.0,0.0,-6.312,-6.345,0.0,-6.3043,0.0,-6.2962,-6.2738,-6.2544,-6.2708,0.0,0.0,-6.1889,-6.1669,-6.1077,-6.0809,-6.0695,-6.0676,-6.0523,-6.0403,-6.0403,-6.0403,-6.0479,-6.0656,-6.0695,-6.0599,-6.0427,-6.0537,-6.0618,-6.0441,-6.0403,-6.0403,-6.0422,-6.0556,-6.0862,-6.1322,-6.1932,-6.2185,-6.1785,-6.2278,-6.2704,-6.2704,-6.2704,-6.3033,-6.3855,-6.401,-6.4068,-6.4338,-6.5296,-6.6205,-6.6205,-6.6185,-6.6185,-5.6778,-5.6797,-5.6797,-5.7256,-5.802,-5.8402,-5.9052,-5.9816,-5.9816,-5.9922,-6.0084,-5.9966,-5.9767,-5.9542,-5.9288,-5.9152,-5.9093,-5.8461,-5.8141,-5.8122,-5.7741,-5.7353,-5.6991,-5.6918,-5.6451,-5.565,-5.5595,-5.5273,-5.4761,-5.4745,-5.4676,-5.4594,-5.4594,-5.4645,-5.4776,-5.4852,-5.4837,-5.4742,-5.4726,-5.4695,-5.4594,-5.4791,-5.4931,-5.4985,-5.4931,-5.4979,-5.5123,-5.5451,-5.585,-5.6302,-5.674,-5.7206,-5.7725,-5.8525,-5.903,0.0,0.0,0.0,0.0,0.0,0.0,0.0,0.0,0.0,0.0,0.0,-6.2197,-6.2304,-6.1994,-6.174,-6.1614,-6.1707,-6.1593,-6.1115,-6.1077,-6.0886,-6.0427,-6.0403,-6.0403,-6.0403,-6.0403,-6.0403,-6.0403,-6.0403,-6.0403,-6.0403,-6.0403,-6.0403,-6.0403,-6.0403,-6.0403,-6.0403,-6.0403,-6.0403,-6.0403,-6.0493,-6.0629,-6.0815,-6.1238,-6.1462,-6.1176,-6.1485,-6.1834,-6.1814,-6.1834,-6.2104,-6.2936,-6.311,-6.3207,-6.3719,-6.4435,-6.5006,-6.5102,-6.5083,-6.5083,-5.539,-5.539,-5.539,-5.5804,-5.6511,-5.7256,-5.8096,-5.8956,-5.8942,-5.9259,-5.976,-5.9659,-5.9595,-5.9525,-5.8821,-5.8461,-5.8423,-5.7771,-5.7482,-5.7497,-5.7565,-5.7179,-5.6454,-5.6333,-5.5864,-5.514,-5.5019,-5.4965,-5.4931,-5.4931,-5.4837,-5.4645,-5.4629,-5.4645,-5.4676,-5.4837,-5.4912,-5.4912,-5.4931,-5.4852,-5.4657,-5.4852,-5.5033,-5.5127,-5.5033,-5.509,-5.5396,-5.5227,-5.5551,-5.6396,-5.6434,-5.6778,-5.7562,-5.8345,-5.8784,0.0,-5.9606,0.0,0.0,0.0,0.0,0.0,0.0,0.0,0.0,-6.1898,-6.144,-6.144,-6.0809,-6.0403,-6.0403,-6.0403,-6.0403,-6.0403,-6.0403,-6.0403,-6.0403,-6.0403,-6.0403,-6.0403,-6.0403,-6.0403,-6.0403,-6.0403,-6.0403,-6.0403,-6.0403,-6.0403,-6.0403,-6.0403,-6.0403,-6.0403,-6.0403,-6.0403,-6.0417,-6.0572,-6.0741,-6.0793,-6.0946,-6.107,-6.1109,-6.1118,-6.1118,-6.1137,-6.1157,-6.1408,-6.2124,-6.224,-6.2491,-6.311,-6.3304,-6.3468,-6.3758,-6.3855,-6.37,-5.539,-5.539,-5.539,-5.5498,-5.5651,-5.5804,-5.674,-5.8135,-5.8135,-5.811,-5.8081,-5.8052,-5.7943,-5.7801,-5.7791,-5.7771,-5.7733,-5.709,-5.6796,-5.679,-5.6154,-5.5804,-5.5632,-5.5625,-5.5498,-5.5364,-5.5319,-5.5219,-5.5071,-5.5071,-5.5,-5.4837,-5.4837,-5.4897,-5.5009,0.0,0.0,0.0,-5.5052,-5.5038,-5.5023,-5.5206,-5.5319,-5.5345,-5.5338,0.0,-5.539,-5.5358,-5.5434,-5.5613,-5.5632,0.0,0.0,0.0,0.0,0.0,0.0,0.0,0.0,0.0,0.0,0.0,-6.0446,-6.0695,-6.0848,-6.0714,-6.0632,-6.0618,-6.0499,-6.0403,-6.0403,-6.0403,-6.0403,-6.0403,-6.0403,-6.0403,-6.0403,-6.0403,-6.0403,-6.0403,-6.0403,-6.0403,-6.0403,-6.0403,-6.0403,-6.0403,-6.0403,-6.0403,-6.0403,-6.0403,-6.0403,-6.0403,-6.0403,-6.0403,-6.0403,-6.0458,-6.0591,-6.0753,-6.0835,-6.0927,-6.1061,-6.1099,-6.1099,-6.1099,-6.1099,-6.1137,-6.135,-6.135,-6.1466,-6.1563,-6.164,-6.2008,-6.3391,-6.3681,-6.37,-5.539,-5.539,-5.539,-5.539,0.0,-5.539,-5.588,-5.6702,-5.7084,-5.7445,-5.7758,-5.7739,-5.7696,-5.7553,-5.7258,-5.7109,-5.7052,-5.6332,-5.5995,-5.5995,-5.5594,-5.539,-5.539,-5.539,-5.539,-5.539,-5.539,-5.5364,-5.526,-5.5241,-5.5173,-5.5,-5.5019,-5.5,-5.5,-5.5066,-5.5075,-5.5075,-5.5181,-5.52,-5.5127,-5.5305,-5.539,-5.539,-5.539,0.0,0.0,0.0,0.0,0.0,0.0,0.0,0.0,-5.6167,0.0,-5.6639,-5.7409,-5.8077,-5.8459,-5.8517,-5.8689,-5.9128,-5.9529,-5.995,-6.0365,-6.0403,-6.0403,-6.0403,-6.0403,-6.0403,-6.0403,-6.0403,-6.0403,-6.0403,-6.0403,-6.0403,-6.0403,-6.0403,-6.0403,-6.0403,-6.0403,-6.0403,-6.0403,-6.0403,-6.0403,-6.0403,-6.0403,-6.0403,-6.0403,-6.0403,-6.0403,-6.0403,-6.0403,-6.0403,-6.0403,-6.0458,-6.0539,-6.0692,-6.0793,-6.0886,-6.0982,-6.1041,-6.1099,-6.1099,-6.1099,-6.1099,-6.1099,-6.1099,-6.1099,-6.1099,-6.1099,-6.1311,-6.2259,-6.2394,-6.2414,-5.539,-5.539,-5.539,-5.539,-5.539,-5.539,-5.539,-5.546,0.0,0.0,0.0,-5.7447,-5.7447,-5.7409,-5.6702,-5.6396,-5.6339,-5.5689,-5.539,-5.539,-5.539,-5.539,-5.539,-5.539,-5.539,-5.539,-5.539,-5.539,-5.5345,-5.5345,-5.5246,-5.5038,-5.5023,-5.4966,-5.4897,-5.5042,-5.5107,-5.5154,-5.5319,-5.5313,-5.5154,-5.5319,-5.539,-5.539,-5.539,-5.539,-5.539,-5.539,-5.539,-5.539,-5.539,-5.539,-5.5409,-5.6033,-5.6377,-5.6415,-5.7065,-5.7523,-5.7657,-5.7676,-5.7734,-5.7886,-5.8498,-5.9262,-6.0102,-6.0293,-6.0403,-6.0403,-6.0403,-6.0403,-6.0403,-6.0403,-6.0403,-6.0403,-6.0403,-6.0403,-6.0403,-6.0403,-6.0403,-6.0403,-6.0403,-6.0403,-6.0403,-6.0403,-6.0403,-6.0403,-6.0403,-6.0403,-6.0403,-6.0403,-6.0403,-6.0403,-6.0403,-6.0403,-6.0417,-6.0472,-6.0565,-6.0585,-6.0738,-6.0856,-6.0899,-6.0972,-6.1041,-6.1061,-6.108,-6.1099,-6.1099,-6.1099,-6.1099,-6.1099,-6.1099,-6.1099,-6.1099,-6.1118,-6.1176,-5.539,-5.539,-5.539,-5.539,-5.539,-5.539,-5.539,-5.5409,-5.5517,-5.5619,-5.5747,-5.5747,-5.5766,-5.5747,-5.5613,-5.5575,-5.5556,-5.546,-5.539,-5.539,-5.539,-5.539,-5.539,-5.539,-5.539,-5.539,-5.539,-5.5319,-5.5154,-5.5154,-5.4981,-5.4723,-5.4676,-5.4757,-5.4901,-5.5042,-5.5181,-5.5345,-5.539,-5.539,-5.5364,-5.539,-5.539,-5.539,-5.539,-5.539,-5.539,-5.539,-5.539,-5.539,-5.539,-5.539,-5.539,-5.5536,-5.5575,-5.5575,-5.5689,-5.6033,-5.6721,-5.6778,-5.7103,-5.781,-5.8001,-5.8402,-5.9224,-5.9969,-6.0403,-6.0384,-6.0327,-6.0403,-6.0403,-6.0327,-6.0288,-6.0327,-6.0365,-6.0384,-6.0307,-6.0307,-6.0288,-6.0288,-6.0403,-6.0327,-6.025,-6.0288,-6.0269,-6.0365,-6.0365,-6.0403,-6.0403,-6.0403,-6.0403,-6.0403,-6.0403,-6.0403,-6.0403,-6.0403,-6.0485,-6.0559,-6.0629,-6.0678,-6.0793,-6.0886,-6.0931,-6.0922,-6.1002,-6.106,-6.1089,-6.1099,-6.1099,-6.1099,-6.1099,-6.1099,-6.1099,-6.1099,-6.1099,-5.539,-5.539,-5.539,-5.539,-5.539,-5.539,-5.539,-5.539,-5.539,-5.539,-5.539,-5.539,-5.539,-5.539,-5.539,-5.539,-5.539,-5.539,-5.539,-5.539,-5.5286,-5.5227,-5.5227,-5.5165,-5.5123,-5.5137,-5.5123,-5.5076,-5.5,-5.5004,-5.4912,-5.4757,-5.4757,-5.4807,-5.4901,-5.5042,-5.5154,-5.5246,-5.5345,-5.539,-5.539,-5.539,-5.539,-5.539,-5.539,-5.539,-5.539,-5.539,-5.539,-5.539,-5.539,-5.539,-5.539,-5.539,-5.539,-5.539,-5.539,-5.5575,-5.5919,-5.5938,-5.611,-5.653,-5.695,-5.7332,-5.7695,-5.8536,-5.9033,-5.9033,-5.9033,-5.9033,-5.9033,-5.9033,-5.9033,-5.9052,-5.9033,-5.9052,-5.9033,-5.9052,-5.9033,-5.9052,-5.9033,-5.9052,-5.9052,-5.9052,-5.9262,-5.9606,-6.0045,-6.0384,-6.0403,-6.0403,-6.0403,-6.0403,-6.0403,-6.0403,-6.0403,-6.0403,-6.0431,-6.0466,-6.0552,-6.0617,-6.0692,-6.0762,-6.0831,-6.0853,-6.092,-6.0982,-6.0992,-6.1061,-6.1089,-6.1099,-6.1099,-6.1099,-6.1099,-6.1099,-6.1099,-5.539,-5.539,-5.539,-5.539,-5.539,-5.539,-5.539,-5.539,-5.539,-5.539,-5.539,-5.539,-5.539,-5.539,-5.539,-5.539,-5.539,-5.539,-5.539,-5.5377,-5.5181,-5.5075,-5.508,-5.4956,-5.4901,-5.4901,-5.4901,-5.4886,-5.4856,-5.4886,-5.4901,-5.4901,-5.4901,-5.4897,-5.496,-5.5038,-5.5107,-5.5187,-5.5332,-5.539,-5.539,-5.539,-5.539,-5.539,-5.539,-5.539,-5.539,-5.539,-5.539,-5.539,-5.539,-5.539,-5.539,-5.539,-5.539,-5.539,-5.539,-5.539,-5.539,-5.539,-5.539,-5.539,-5.5957,-5.632,-5.6377,-5.6931,-5.7523,-5.781,-5.7963,-5.7944,-5.7982,-5.7944,-5.7886,-5.7886,-5.7886,-5.7982,-5.7905,-5.7886,-5.7886,-5.7886,-5.7886,-5.7944,-5.7886,-5.7886,-5.8288,-5.9071,-5.9854,-6.0365,-6.0403,-6.0403,-6.0403,-6.0403,-6.0403,-6.0403,-6.0403,-6.0403,-6.0403,-6.0403,-6.0466,-6.0539,-6.0578,-6.0648,-6.0734,-6.0746,-6.0839,-6.0886,-6.0908,-6.0981,-6.1041,-6.1051,-6.1051,-6.1099,-6.1099,-6.1099,-6.1099,-5.539,-5.539,-5.539,-5.539,-5.539,-5.539,-5.539,-5.539,-5.539,-5.539,-5.539,-5.539,-5.539,-5.539,-5.539,-5.539,-5.539,-5.539,-5.539,-5.5358,-5.52,-5.5075,-5.5047,-5.496,-5.4901,-5.4886,-5.4886,-5.4807,-5.4676,-5.4822,-5.4901,-5.4901,-5.4901,-5.4956,-5.5052,-5.5094,-5.52,-5.5358,-5.539,-5.539,-5.539,-5.539,-5.539,-5.539,-5.539,-5.539,-5.539,-5.539,-5.539,-5.539,-5.539,-5.539,-5.539,-5.539,-5.539,-5.539,-5.539,-5.539,-5.539,-5.539,-5.539,-5.539,-5.5466,-5.5575,-5.5556,-5.5613,-5.6301,-5.7409,-5.7829,-5.7753,-5.7886,-5.7829,-5.7734,-5.7676,-5.7734,-5.7886,-5.7791,-5.7886,-5.7886,-5.7886,-5.7695,-5.7867,-5.7695,-5.7791,-5.823,-5.8994,-5.9854,-6.0403,-6.0403,-6.0403,-6.0403,-6.0403,-6.0403,-6.0403,-6.0403,-6.0403,-6.0403,-6.0403,-6.0403,-6.0431,-6.0453,-6.0539,-6.0617,-6.0623,-6.0729,-6.0793,-6.0816,-6.0875,-6.0911,-6.0962,-6.1012,-6.1099,-6.1099,-6.1099,-6.1099,-5.539,-5.539,-5.539,-5.539,-5.539,-5.539,-5.539,-5.539,-5.539,-5.539,-5.539,-5.539,-5.539,-5.539,-5.539,-5.539,-5.539,-5.539,-5.5332,-5.5214,-5.5042,-5.4908,-5.4799,-5.4667,-5.4635,-5.4711,-5.4726,-5.4742,-5.4791,-5.4871,-5.4901,-5.4901,-5.4901,-5.4912,-5.4985,-5.5052,-5.5154,-5.5208,-5.5345,-5.539,-5.539,-5.539,-5.539,-5.539,-5.539,-5.539,-5.539,-5.539,-5.539,-5.539,-5.539,-5.539,-5.539,-5.539,-5.539,-5.539,-5.539,-5.539,-5.539,-5.539,-5.539,-5.539,-5.539,-5.539,-5.539,-5.539,-5.5747,-5.6262,-5.6434,-5.6434,-5.6454,-5.6434,-5.6415,-5.6415,-5.6415,-5.6454,-5.6415,-5.6434,-5.6434,-5.6434,-5.6415,-5.6454,-5.6587,-5.7294,-5.8173,-5.9014,-5.9835,-6.0365,-6.0403,-6.0403,-6.0403,-6.0403,-6.0403,-6.0403,-6.0403,-6.0403,-6.0403,-6.0403,-6.0403,-6.0403,-6.0403,-6.0431,-6.0485,-6.0485,-6.0604,-6.068,-6.068,-6.0788,-6.0853,-6.0918,-6.0992,-6.1099,-6.1099,-6.1099,-6.1099,-5.539,-5.539,-5.539,-5.539,-5.539,-5.539,-5.539,-5.539,-5.539,-5.539,-5.539,-5.539,-5.539,-5.539,-5.539,-5.539,-5.539,-5.539,-5.5286,-5.5094,-5.4975,-5.4791,-5.4616,-5.4522,-5.4503,-5.4581,-5.4594,-5.468,-5.4822,-5.4886,-5.4901,-5.4901,-5.4946,-5.4946,-5.4931,-5.5071,-5.5154,-5.5107,-5.5286,-5.539,-5.539,-5.539,-5.539,-5.539,-5.539,-5.539,-5.539,-5.539,-5.539,-5.539,-5.539,-5.539,-5.539,-5.539,-5.539,-5.539,-5.539,-5.539,-5.539,-5.539,-5.539,-5.539,-5.539,-5.539,-5.539,-5.539,-5.539,-5.5428,-5.539,-5.5447,-5.539,-5.539,-5.539,-5.539,-5.539,-5.539,-5.5428,-5.539,-5.5447,-5.539,-5.5556,-5.5517,-5.5919,-5.7199,-5.8536,-5.9071,-5.9835,-6.0403,-6.0403,-6.0403,-6.0403,-6.0403,-6.0403,-6.0403,-6.0403,-6.0403,-6.0403,-6.0403,-6.0403,-6.0403,-6.0403,-6.0403,-6.0403,-6.0444,-6.0512,-6.0539,-6.0565,-6.0667,-6.0793,-6.0877,-6.0982,-6.107,-6.1089,-6.1099,-6.1099,-5.539,-5.539,-5.539,-5.539,-5.539,-5.539,-5.539,-5.539,-5.539,-5.539,-5.539,-5.539,-5.539,-5.539,-5.539,-5.539,-5.539,-5.539,-5.5286,-5.5094,-5.4956,-5.4807,-5.4613,-5.4597,-5.4578,-5.4629,-5.4629,-5.4629,-5.4664,-5.4807,-5.4901,-5.4901,-5.5014,-5.5014,-5.496,-5.5192,-5.5273,-5.5127,-5.5273,-5.539,-5.539,-5.539,-5.539,-5.539,-5.539,-5.539,-5.539,-5.539,-5.539,-5.539,-5.539,-5.539,-5.539,-5.539,-5.539,-5.539,-5.539,-5.539,-5.539,-5.539,-5.539,-5.539,-5.539,-5.539,-5.539,-5.539,-5.539,-5.539,-5.539,-5.539,-5.539,-5.539,-5.539,-5.539,-5.539,-5.539,-5.539,-5.539,-5.539,-5.5409,-5.5479,-5.5899,-5.653,-5.802,-5.8861,-5.93,-5.9892,-6.0403,-6.0403,-6.0403,-6.0403,-6.0403,-6.0403,-6.0403,-6.0403,-6.0403,-6.0403,-6.0403,-6.0403,-6.0403,-6.0403,-6.0403,-6.0403,-6.0403,-6.0431,-6.0444,-6.0444,-6.0552,-6.0697,-6.0789,-6.0869,-6.0962,-6.1032,-6.108,-6.1099,-5.539,-5.539,-5.539,-5.539,-5.539,-5.539,-5.539,-5.539,-5.539,-5.539,-5.539,-5.539,-5.539,-5.539,-5.539,-5.539,-5.539,-5.539,-5.5286,-5.5107,-5.5057,-5.4937,-5.4807,-5.4773,-5.4773,-5.4791,-5.4773,-5.4791,-5.4791,-5.4871,-5.4901,-5.4901,-5.496,-5.4946,-5.4931,-5.5023,-5.5033,-5.4985,-5.5132,-5.5214,-5.5227,-5.5332,-5.539,-5.539,-5.539,-5.539,-5.539,-5.539,-5.539,-5.539,-5.539,-5.539,-5.539,-5.539,-5.539,-5.539,-5.539,-5.539,-5.539,-5.539,-5.539,-5.539,-5.539,-5.539,-5.539,-5.539,-5.539,-5.539,-5.539,-5.539,-5.539,-5.539,-5.539,-5.539,-5.539,-5.539,-5.539,-5.539,-5.539,-5.5479,-5.5823,-5.6683,-5.7848,-5.8746,-5.93,-5.9835,-6.0198,-6.0365,-6.0403,-6.0403,-6.0403,-6.0403,-6.0403,-6.0403,-6.0403,-6.0403,-6.0403,-6.0403,-6.0403,-6.0403,-6.0403,-6.0403,-6.0403,-6.0403,-6.0403,-6.0403,-6.0431,-6.0499,-6.0635,-6.0813,-6.0881,-6.0897,-6.0942,-6.107,-6.1109,-5.539,-5.539,-5.539,-5.539,-5.539,-5.539,-5.539,-5.539,-5.539,-5.539,-5.539,-5.539,-5.539,-5.539,-5.539,-5.539,-5.539,-5.539,-5.5286,-5.5107,-5.5075,-5.5009,-5.4931,-5.4941,-5.4927,-5.4901,-5.4901,-5.4875,-5.4764,-5.4776,-5.4776,-5.4714,-5.4776,-5.4776,-5.4764,-5.4841,-5.4886,-5.4852,-5.4971,-5.5038,-5.5113,-5.5227,-5.5332,-5.539,-5.539,-5.539,-5.539,-5.539,-5.539,-5.539,-5.539,-5.539,-5.539,-5.539,-5.539,-5.539,-5.539,-5.539,-5.539,-5.539,-5.539,-5.539,-5.539,-5.539,-5.539,-5.539,-5.539,-5.539,-5.539,-5.539,-5.539,-5.539,-5.539,-5.539,-5.539,-5.539,-5.5409,-5.5651,-5.5938,-5.6339,-5.7008,-5.7944,-5.888,-5.9319,-5.9778,-6.0346,-6.0403,-6.0403,-6.0403,-6.0403,-6.0403,-6.0403,-6.0403,-6.0403,-6.0403,-6.0403,-6.0403,-6.0403,-6.0403,-6.0403,-6.0403,-6.0403,-6.0403,-6.0403,-6.0422,-6.0403,-6.0431,-6.0504,-6.0673,-6.0878,-6.0846,-6.0839,-6.0941,-6.1106,-6.1089,-5.539,-5.539,-5.539,-5.539,-5.539,-5.539,-5.539,-5.539,-5.539,-5.539,-5.539,-5.539,-5.539,-5.539,-5.539,-5.539,-5.539,-5.539,-5.53,-5.5121,-5.514,-5.5057,-5.496,-5.5023,-5.4981,-5.4871,-5.4886,-5.4717,-5.4458,-5.4552,-5.4552,-5.4474,-5.4571,-5.4571,-5.4407,-5.4702,-5.4776,-5.4676,-5.4788,-5.496,-5.5066,-5.5094,-5.5181,-5.5364,-5.5358,-5.539,-5.539,-5.539,-5.539,-5.539,-5.539,-5.539,-5.539,-5.539,-5.539,-5.539,-5.539,-5.539,-5.539,-5.539,-5.539,-5.539,-5.539,-5.539,-5.539,-5.539,-5.539,-5.539,-5.539,-5.5422,-5.5479,-5.5517,-5.5517,-5.5409,-5.5536,-5.5556,-5.5708,-5.6167,-5.6931,-5.7695,-5.8421,-5.9,-5.9281,-5.9778,-6.0269,-6.0346,-6.0403,-6.0403,-6.0403,-6.0403,-6.0403,-6.0403,-6.0403,-6.0403,-6.0403,-6.0403,-6.0403,-6.0403,-6.0403,-6.0403,-6.0403,-6.0403,-6.0403,-6.0422,-6.0728,-6.0747,-6.0804,-6.0865,-6.1059,-6.119,-6.1019,-6.0858,-6.1008,-6.112,-6.1029,-5.539,-5.539,-5.539,-5.539,-5.539,-5.539,-5.539,-5.539,-5.539,-5.539,-5.539,-5.539,-5.539,-5.539,-5.539,-5.539,-5.539,-5.539,-5.5358,-5.53,-5.5286,-5.5273,-5.5219,-5.514,-5.4966,-5.4711,-5.4587,-5.4508,-5.4443,-5.4439,-5.4441,-5.4407,-5.4422,-5.4441,-5.4426,-5.4508,-5.4524,-5.4508,-5.4616,-5.4707,-5.4769,-5.4878,-5.5047,-5.5168,-5.52,-5.5241,-5.539,-5.539,-5.539,-5.539,-5.539,-5.539,-5.539,-5.539,-5.539,-5.539,-5.539,-5.539,-5.539,-5.539,-5.539,-5.539,-5.539,-5.539,-5.539,-5.539,-5.539,-5.539,-5.539,-5.5575,-5.6071,-5.6224,-5.6243,-5.6224,-5.6224,-5.6473,-5.695,-5.7313,-5.7867,-5.8555,-5.8956,-5.9338,-5.9835,-6.0346,-6.0384,-6.0403,-6.0403,-6.0403,-6.0403,-6.0403,-6.0403,-6.0403,-6.0403,-6.0403,-6.0403,-6.0403,-6.0403,-6.0403,-6.0403,-6.0403,-6.0403,-6.0403,-6.0403,-6.0632,-6.0924,-6.1077,-6.1134,-6.1129,-6.1209,-6.1264,-6.1083,-6.1057,-6.1146,-6.1092,-6.0976,-5.539,-5.539,-5.539,-5.539,-5.539,-5.539,-5.539,-5.539,-5.539,-5.539,-5.539,-5.539,-5.539,-5.539,-5.539,-5.539,-5.539,-5.539,-5.539,-5.539,-5.539,-5.539,-5.5364,-5.5151,-5.4893,-5.4632,-5.4455,-5.4409,-5.4409,-5.4409,-5.4409,-5.4409,-5.4409,-5.4409,-5.4409,-5.4409,-5.4407,-5.4472,-5.4568,-5.4661,-5.4803,-5.4908,-5.5042,-5.5168,-5.5195,-5.5273,-5.539,-5.539,-5.539,-5.539,-5.539,-5.539,-5.539,-5.539,-5.539,-5.539,-5.539,-5.539,-5.539,-5.539,-5.539,-5.539,-5.539,-5.539,-5.539,-5.539,-5.5479,-5.5785,-5.5861,-5.6186,-5.6874,-5.7065,-5.7199,-5.7504,-5.7237,-5.7485,-5.8135,-5.8345,-5.8727,-5.9338,-5.9625,-5.9873,-6.0231,-6.0403,-6.0403,-6.0403,-6.0403,-6.0403,-6.0403,-6.0403,-6.0403,-6.0403,-6.0403,-6.0403,-6.0403,-6.0403,-6.0403,-6.0403,-6.0403,-6.0403,-6.0403,-6.0422,-6.0427,-6.0924,-6.1287,-6.1344,-6.1382,-6.1019,-6.0933,-6.0977,-6.1178,-6.1102,-6.1114,-6.102,-6.0916,-5.539,-5.539,-5.539,-5.539,-5.539,-5.539,-5.539,-5.539,-5.539,-5.539,-5.539,-5.539,-5.539,-5.539,-5.539,-5.539,-5.539,-5.539,-5.539,-5.539,-5.5377,-5.5332,-5.5279,-5.5004,-5.4757,-5.4584,-5.4458,-5.4409,-5.4409,-5.4409,-5.4426,-5.4443,-5.4426,-5.4443,-5.4476,-5.4443,-5.4489,-5.4616,-5.4629,-5.4803,-5.5023,-5.5071,-5.5154,-5.5313,-5.5332,-5.5345,-5.539,-5.539,-5.539,-5.539,-5.539,-5.539,-5.539,-5.539,-5.539,-5.539,-5.539,-5.539,-5.539,-5.539,-5.539,-5.539,-5.539,-5.539,-5.539,-5.5556,-5.5842,-5.6377,-5.66,-5.7027,-5.7734,-5.7963,-5.8307,-5.8918,-5.8536,-5.8555,-5.9052,-5.9166,-5.951,-6.0083,-6.0384,-6.0403,-6.0403,-6.0403,-6.0403,-6.0403,-6.0403,-6.0403,-6.0403,-6.0403,-6.0403,-6.0403,-6.0403,-6.0403,-6.0403,-6.0403,-6.0403,-6.0403,-6.0403,-6.0403,-6.0422,-6.0441,-6.0427,-6.0962,-6.1497,-6.1554,-6.1497,-6.1172,-6.1096,-6.1329,-6.1333,-6.1155,-6.1,-6.0885,-6.0924,-5.539,-5.539,-5.539,-5.539,-5.539,-5.539,-5.539,-5.539,-5.539,-5.539,-5.539,-5.539,-5.539,-5.539,-5.539,-5.539,-5.539,-5.539,-5.539,-5.5358,-5.5246,-5.5137,-5.5004,-5.4788,-5.46,-5.4455,-5.4443,-5.4409,-5.4409,-5.4409,-5.4458,-5.4536,-5.4458,-5.4524,-5.4717,-5.4619,-5.4648,-5.4791,-5.4822,-5.4852,-5.4941,-5.4971,-5.5033,-5.5154,-5.52,-5.5254,-5.5371,-5.539,-5.539,-5.539,-5.539,-5.539,-5.539,-5.539,-5.539,-5.539,-5.539,-5.539,-5.539,-5.539,-5.539,-5.539,-5.546,-5.539,-5.5409,-5.5957,-5.6339,-5.6715,-5.7122,-5.7905,-5.8574,-5.8784,-5.9185,-5.9835,-5.9701,-5.9682,-5.9911,-6.0064,-6.0179,-6.0384,-6.0403,-6.0403,-6.0403,-6.0403,-6.0403,-6.0403,-6.0403,-6.0403,-6.0403,-6.0403,-6.0403,-6.0403,-6.0403,-6.0403,-6.0403,-6.0403,-6.0403,-6.0403,-6.0403,-6.0403,-6.0422,-6.0479,-6.0446,-6.0618,-6.1325,-6.1573,-6.1593,-6.144,-6.1573,-6.1402,-6.1147,-6.0813,-6.0802,-6.0769,-6.0864,-5.539,-5.539,-5.539,-5.539,-5.539,-5.539,-5.539,-5.539,-5.539,-5.539,-5.539,-5.539,-5.539,-5.539,-5.539,-5.539,-5.539,-5.539,-5.5345,-5.5214,-5.5009,-5.4863,-5.4757,-5.4645,-5.4536,-5.4407,-5.4409,-5.4409,-5.4409,-5.4409,-5.4472,-5.4568,-5.4519,-5.4616,-5.4856,-5.4807,-5.4822,-5.4956,-5.4985,-5.5,-5.5109,-5.5109,-5.5151,-5.5214,-5.5227,-5.5286,-5.539,-5.539,-5.539,-5.539,-5.539,-5.539,-5.539,-5.539,-5.539,-5.539,-5.539,-5.539,-5.539,-5.539,-5.539,-5.5479,-5.5651,-5.588,-5.6071,-5.6645,-5.7179,-5.7734,-5.8135,-5.8784,-5.9434,-5.9644,-5.9873,-6.025,-6.0403,-6.0403,-6.0403,-6.0365,-6.0403,-6.0403,-6.0403,-6.0403,-6.0403,-6.0403,-6.0403,-6.0403,-6.0403,-6.0403,-6.0403,-6.0403,-6.0403,-6.0403,-6.0403,-6.0403,-6.0403,-6.0403,-6.0403,-6.0403,-6.0403,-6.0403,-6.046,-6.0537,-6.0771,-6.0924,-6.1325,-6.1554,-6.1497,-6.1325,-6.1019,-6.0818,-6.0619,-6.0609,-6.0629,-6.0685,-6.0777,-5.539,-5.539,-5.539,-5.539,-5.539,-5.539,-5.539,-5.539,-5.539,-5.539,-5.539,-5.539,-5.539,-5.539,-5.539,-5.539,-5.539,-5.539,-5.5273,-5.5099,-5.4844,-5.4695,-5.4711,-5.4648,-5.4552,-5.4458,-5.4424,-5.4441,-5.4441,-5.4424,-5.4472,-5.4568,-5.4584,-5.4714,-5.4856,-5.4886,-5.4971,-5.5071,-5.5146,-5.5219,-5.5305,-5.5351,-5.5332,-5.5345,-5.5358,-5.5377,-5.539,-5.539,-5.539,-5.539,-5.539,-5.539,-5.539,-5.539,-5.539,-5.539,-5.539,-5.5441,-5.5556,-5.5632,-5.5689,-5.5919,-5.6454,-5.6734,-5.6893,-5.7504,-5.823,-5.8727,-5.9147,-5.9587,-6.0064,-6.0346,-6.0327,-6.0403,-6.0403,-6.0403,-6.0403,-6.0403,-6.0403,-6.0403,-6.0403,-6.0403,-6.0403,-6.0403,-6.0403,-6.0403,-6.0403,-6.0403,-6.0403,-6.0403,-6.0403,-6.0403,-6.0403,-6.0403,-6.0403,-6.0403,-6.0403,-6.0403,-6.0403,-6.0422,-6.0485,-6.0676,-6.1096,-6.1363,-6.1153,-6.1153,-6.123,-6.0962,-6.0618,-6.0499,-6.0483,-6.0504,-6.0533,-6.0617,-6.0697,-5.539,-5.539,-5.539,-5.539,-5.539,-5.539,-5.539,-5.539,-5.539,-5.539,-5.539,-5.539,-5.539,-5.539,-5.539,-5.539,-5.539,-5.539,-5.5286,-5.5113,-5.4927,-5.4837,-5.4791,-5.4695,-5.4581,-5.4552,-5.4568,-5.4552,-5.4536,-5.4439,-5.4491,-5.4565,-5.4536,-5.4606,-5.4856,-5.4901,-5.4956,-5.5094,-5.5227,-5.5332,-5.5377,-5.539,-5.539,-5.539,-5.539,-5.539,-5.539,-5.539,-5.539,-5.539,-5.5428,-5.5498,-5.5409,-5.539,-5.5428,-5.5498,-5.5479,-5.5708,-5.6186,-5.6377,-5.6645,-5.716,-5.739,-5.7619,-5.7676,-5.8364,-5.8861,-5.9224,-5.9682,-6.0122,-6.0346,-6.0403,-6.0403,-6.0403,-6.0403,-6.0403,-6.0403,-6.0403,-6.0403,-6.0403,-6.0403,-6.0403,-6.0403,-6.0403,-6.0403,-6.0403,-6.0403,-6.0403,-6.0403,-6.0403,-6.0403,-6.0403,-6.0403,-6.0403,-6.0403,-6.0403,-6.0403,-6.0403,-6.0403,-6.0403,-6.0479,-6.0523,-6.0828,-6.0828,-6.0651,-6.0695,-6.0886,-6.0752,-6.046,-6.0422,-6.0403,-6.0431,-6.0485,-6.0539,-6.0604,-5.539,-5.539,-5.539,-5.539,-5.539,-5.539,-5.539,-5.539,-5.539,-5.539,-5.539,-5.539,-5.539,-5.539,-5.539,-5.539,-5.5377,-5.5305,-5.5214,-5.5066,-5.4956,-5.4901,-5.4886,-5.4791,-5.4711,-5.4632,-5.4536,-5.4503,-5.4489,-5.4474,-5.4491,-5.4597,-5.4519,-5.4651,-5.4856,-5.4901,-5.499,-5.508,-5.5181,-5.53,-5.539,-5.539,-5.539,-5.539,-5.539,-5.539,-5.539,-5.539,-5.5632,-5.5861,-5.5957,-5.5766,-5.546,-5.5409,-5.5575,-5.5899,-5.5976,-5.6377,-5.6969,-5.7218,-5.739,-5.7905,-5.823,-5.8421,-5.8651,-5.9224,-5.9644,-5.9797,-6.0083,-6.0403,-6.0403,-6.0403,-6.0403,-6.0403,-6.0403,-6.0403,-6.0403,-6.0403,-6.0403,-6.0403,-6.0403,-6.0403,-6.0403,-6.0403,-6.0403,-6.0403,-6.0403,-6.0403,-6.0403,-6.0403,-6.0403,-6.0403,-6.0403,-6.0403,-6.0403,-6.0403,-6.0403,-6.0403,-6.0403,-6.0403,-6.0441,-6.0422,-6.0441,-6.0441,-6.046,-6.0441,-6.0556,-6.0403,-6.0403,-6.0403,-6.0403,-6.0403,-6.0417,-6.0472,-6.0539,-5.539,-5.539,-5.539,-5.539,-5.539,-5.539,-5.539,-5.539,-5.539,-5.539,-5.539,-5.539,-5.539,-5.539,-5.539,-5.539,-5.5345,-5.5214,-5.5107,-5.5154,-5.5014,-5.4975,-5.4927,-5.4912,-5.4822,-5.4632,-5.4503,-5.4455,-5.4458,-5.4407,-5.4458,-5.4552,-5.4549,-5.46,-5.478,-5.4856,-5.4882,-5.4966,-5.508,-5.5181,-5.5313,-5.5358,-5.539,-5.539,-5.5651,-5.5689,-5.5766,-5.5919,-5.6167,-5.674,-5.6797,-5.6434,-5.5995,-5.5823,-5.6033,-5.6759,-5.6797,-5.7237,-5.7867,-5.8077,-5.8135,-5.8249,-5.888,-5.9262,-5.9491,-5.9835,-6.016,-6.0307,-6.0403,-6.0403,-6.0403,-6.0403,-6.0403,-6.0403,-6.0403,-6.0403,-6.0403,-6.0403,-6.0403,-6.0403,-6.0403,-6.0403,-6.0403,-6.0403,-6.0403,-6.0403,-6.0403,-6.0403,-6.0403,-6.0403,-6.0403,-6.0403,-6.0403,-6.0403,-6.0403,-6.0403,-6.0403,-6.0403,-6.0403,-6.0403,-6.0403,-6.0403,-6.0403,-6.0403,-6.0403,-6.0403,-6.0403,-6.0403,-6.0403,-6.0403,-6.0403,-6.0403,-6.0403,-6.0403,-6.0472,-5.539,-5.539,-5.539,-5.539,-5.539,-5.539,-5.539,-5.539,-5.539,-5.539,-5.539,-5.539,-5.539,-5.539,-5.539,-5.539,-5.5345,-5.5227,-5.5181,-5.5254,-5.5159,-5.5085,-5.5071,-5.5009,-5.4893,-5.4676,-5.4552,-5.4536,-5.4522,-5.4455,-5.4424,-5.4441,-5.4458,-5.4491,-5.4557,-5.4603,-5.4661,-5.4769,-5.4952,-5.5099,-5.5181,-5.5408,-5.5594,-5.5689,-5.6167,-5.6396,-5.6568,-5.7084,-5.7562,-5.7676,-5.7676,-5.7619,-5.7523,-5.7466,-5.7562,-5.7619,-5.7676,-5.8039,-5.8746,-5.8899,-5.93,-5.9778,-6.0007,-6.0083,-6.016,-6.0255,-6.0384,-6.0403,-6.0403,-6.0403,-6.0403,-6.0403,-6.0403,-6.0403,-6.0403,-6.0403,-6.0403,-6.0403,-6.0403,-6.0403,-6.0403,-6.0403,-6.0403,-6.0403,-6.0403,-6.0403,-6.0403,-6.0403,-6.0403,-6.0403,-6.0403,-6.0403,-6.0403,-6.0403,-6.0403,-6.0403,-6.0403,-6.0403,-6.0403,-6.0403,-6.0403,-6.0403,-6.0403,-6.0403,-6.0403,-6.0403,-6.0403,-6.0403,-6.0403,-6.0403,-6.0403,-6.0403,-6.0403,-6.0403,-6.0403,-5.539,-5.539,-5.539,-5.539,-5.539,-5.539,-5.539,-5.539,-5.539,-5.539,-5.539,-5.539,-5.539,-5.539,-5.539,-5.539,-5.5358,-5.5319,-5.5319,-5.5358,-5.5319,-5.526,-5.52,-5.5104,-5.4927,-5.4726,-5.46,-5.4522,-5.4505,-5.4441,-5.4409,-5.4409,-5.4409,-5.4409,-5.4426,-5.4474,-5.4554,-5.4651,-5.4807,-5.499,-5.5208,-5.5681,-5.6167,-5.6702,-5.6988,-5.7237,-5.7351,-5.7581,-5.8116,-5.8421,-5.8517,-5.8765,-5.8994,-5.909,-5.8975,-5.8631,-5.8536,-5.888,-5.9587,-5.9778,-5.9969,-6.0269,-6.0403,-6.0403,-6.0403,-6.0384,-6.0403,-6.0403,-6.0403,-6.0403,-6.0403,-6.0403,-6.0403,-6.0403,-6.0403,-6.0403,-6.0403,-6.0403,-6.0403,-6.0403,-6.0403,-6.0403,-6.0403,-6.0403,-6.0403,-6.0403,-6.0403,-6.0403,-6.0403,-6.0403,-6.0403,-6.0403,-6.0403,-6.0403,-6.0403,-6.0403,-6.0403,-6.0403,-6.0403,-6.0403,-6.0403,-6.0403,-6.0403,-6.0403,-6.0403,-6.0403,-6.0403,-6.0403,-6.0403,-6.0403,-6.0403,-6.0403,-6.0403,-6.0403,-6.0403,-5.539,-5.539,-5.539,-5.539,-5.539,-5.539,-5.539,-5.539,-5.539,-5.539,-5.539,-5.539,-5.539,-5.539,-5.539,-5.539,-5.539,-5.539,-5.539,-5.539,-5.539,-5.5377,-5.5225,-5.5076,-5.4882,-5.4702,-5.4603,-5.4424,-5.4443,-5.4409,-5.4409,-5.4409,-5.4409,-5.4409,-5.4426,-5.467,-5.4641,-5.4802,-5.5069,-5.528,-5.5751,-5.6412,-5.716,-5.7886,-5.8039,-5.8135,-5.8154,-5.8479,-5.8861,-5.9205,-5.9415,-5.9644,-6.025,-6.0384,-6.0064,-5.951,-5.9376,-5.9778,-6.0122,-6.0346,-6.0307,-6.0403,-6.0403,-6.0403,-6.0403,-6.0403,-6.0403,-6.0403,-6.0403,-6.0403,-6.0403,-6.0403,-6.0403,-6.0403,-6.0403,-6.0403,-6.0403,-6.0403,-6.0403,-6.0403,-6.0403,-6.0403,-6.0403,-6.0403,-6.0403,-6.0403,-6.0403,-6.0403,-6.0403,-6.0403,-6.0403,-6.0403,-6.0403,-6.0403,-6.0403,-6.0403,-6.0403,-6.0403,-6.0403,-6.0403,-6.0403,-6.0403,-6.0403,-6.0403,-6.0403,-6.0403,-6.0403,-6.0403,-6.0403,-6.0403,-6.0403,-6.0403,-6.0403,-6.0403,-6.0403,-5.539,-5.539,-5.539,-5.539,-5.539,-5.539,-5.539,-5.539,-5.539,-5.539,-5.539,-5.539,-5.539,-5.539,-5.539,-5.539,-5.539,-5.539,-5.539,-5.539,-5.539,-5.5265,-5.5033,-5.5071,-5.4973,-5.4848,-5.474,-5.4505,-5.4631,-5.4615,-5.4484,-5.4503,-5.4634,-5.4484,-5.4822,-5.5235,-5.546,-5.5643,-5.6287,-5.6889,-5.7215,-5.757,-5.7816,-5.8173,-5.8612,-5.8975,-5.9052,-5.9453,-5.995,-6.0064,-6.0179,-6.0288,-6.0403,-6.0403,-6.0384,-6.0288,-6.0255,-6.0274,-6.0384,-6.0403,-6.0403,-6.0403,-6.0403,-6.0403,-6.0403,-6.0403,-6.0403,-6.0403,-6.0403,-6.0403,-6.0403,-6.0403,-6.0403,-6.0403,-6.0403,-6.0403,-6.0403,-6.0403,-6.0403,-6.0403,-6.0403,-6.0403,-6.0403,-6.0403,-6.0403,-6.0403,-6.0403,-6.0389,-6.0403,-6.0403,-6.0403,-6.0403,-6.0403,-6.0403,-6.0403,-6.0403,-6.0422,-6.0422,-6.0422,-6.0403,-6.0403,-6.0403,-6.0403,-6.0403,-6.0441,-6.0556,-6.0637,-6.0618,-6.0479,-6.0403,-6.0403,-6.0403,-6.0403,-6.0403,-6.0441,-5.539,-5.539,-5.539,-5.539,-5.539,-5.539,-5.539,-5.539,-5.539,-5.539,-5.539,-5.539,-5.539,-5.539,-5.539,-5.539,-5.539,-5.5409,-5.539,-5.5447,-5.5434,-5.5304,-5.5209,-5.5441,-5.5476,-5.5433,-5.5636,-5.598,-5.5703,-5.531,-5.5085,-5.516,-5.5535,-5.5892,-5.5683,-5.6136,-5.6305,-5.6505,-5.6937,-5.7608,-5.8181,-5.853,-5.8822,-5.9262,-5.9625,-5.9759,-5.9911,-6.0102,-6.0403,-6.0403,-6.0403,-6.0403,-6.0403,-6.0403,-6.0384,-6.0384,-6.0384,-6.0384,-6.0403,-6.0403,-6.0403,-6.0403,-6.0403,-6.0403,-6.0403,-6.0403,-6.0403,-6.0403,-6.0403,-6.0403,-6.0403,-6.0403,-6.0403,-6.0403,-6.0403,-6.0389,-6.0389,-6.0403,-6.0403,-6.0403,-6.0389,-6.0342,-6.0328,-6.0347,-6.0347,-6.0342,-6.0361,-6.0361,-6.0375,-6.0403,-6.0403,-6.0403,-6.0403,-6.0403,-6.0403,-6.0403,-6.046,-6.046,-6.046,-6.0441,-6.0403,-6.0403,-6.0651,-6.0771,-6.0905,-6.0981,-6.1,-6.0867,-6.0747,-6.0575,-6.0403,-6.0613,-6.0771,-6.0537,-6.0537,-5.539,-5.539,-5.539,-5.539,-5.539,-5.539,-5.539,-5.539,-5.539,-5.539,-5.539,-5.539,-5.539,-5.539,-5.539,-5.539,-5.5422,-5.5594,-5.565,-5.5675,-5.5821,-5.5897,-5.592,-5.6159,-5.6279,-5.6172,-5.645,-5.6679,-5.6661,-5.6528,-5.63,-5.5986,-5.6431,-5.6787,-5.6956,-5.7233,-5.7455,-5.7848,-5.8097,-5.8589,-5.9086,-5.9345,-5.9764,-6.0141,-6.0403,-6.0403,-6.0403,-6.0403,-6.0403,-6.0403,-6.0403,-6.0403,-6.0403,-6.0403,-6.0403,-6.0403,-6.0403,-6.0403,-6.0403,-6.0403,-6.0403,-6.0403,-6.0403,-6.0403,-6.0403,-6.0403,-6.0403,-6.0403,-6.0403,-6.0403,-6.0403,-6.0403,-6.0403,-6.0403,-6.0403,-6.0356,-6.0328,-6.0299,-6.027,-6.0256,-6.0241,-6.0256,-6.0241,-6.0241,-6.0256,-6.0299,-6.0318,-6.0318,-6.0366,-6.038,-6.0432,-6.0451,-6.0499,-6.0499,-6.0499,-6.0499,-6.0518,-6.0823,-6.0842,-6.0981,-6.1268,-6.1306,-6.1459,-6.1516,-6.1669,-6.1726,-6.1936,-6.1459,-6.1058,-6.1344,-6.1516,-6.1287,-6.1211,-6.0962,-6.0981,-5.539,-5.539,-5.539,-5.539,-5.539,-5.539,-5.539,-5.539,-5.539,-5.539,-5.539,-5.539,-5.5409,-5.5479,-5.5556,-5.5556,-5.5536,-5.6205,-5.6355,-5.6577,-5.6944,-5.6964,-5.6889,-5.6854,-5.6998,-5.69,-5.7241,-5.7241,-5.7202,-5.7942,-5.7477,-5.7015,-5.7435,-5.7224,-5.7501,-5.8134,-5.8727,-5.9136,-5.9444,-5.9597,-5.9896,-6.0075,-6.0255,-6.0327,-6.0403,-6.0403,-6.0403,-6.0403,-6.0403,-6.0403,-6.0403,-6.0537,-6.058,-6.0613,-6.0632,-6.0823,-6.0809,-6.0828,-6.0842,-6.0556,-6.0403,-6.0403,-6.0403,-6.0403,-6.0403,-6.0403,-6.0403,-6.0375,-6.0328,-6.0328,-6.0361,-6.0389,-6.0299,-6.0285,-6.0256,-6.0226,-6.0163,-6.0133,-6.0118,-6.0103,-6.0087,-6.0087,-6.0258,-6.0316,-6.0182,-6.0194,-6.0182,-6.0182,-6.0336,-6.0418,-6.0485,-6.0538,-6.0618,-6.0637,-6.0656,-6.0905,-6.1631,-6.2108,-6.228,-6.2471,-6.2701,-6.2682,-6.272,-6.2892,-6.314,-6.2987,-6.2949,-6.3025,-6.3025,-6.2815,-6.2624,-6.2166,-6.207,-6.2032,-6.2166,-5.539,-5.539,-5.539,-5.539,-5.539,-5.539,-5.539,-5.539,-5.539,-5.539,-5.5409,-5.5409,-5.5689,-5.6014,-5.6186,-5.6454,-5.688,-5.7071,-5.7135,-5.712,-5.7317,-5.728,-5.7251,-5.7635,-5.7829,-5.7926,-5.821,-5.8636,-5.8906,-5.907,-5.9091,-5.8847,-5.8635,-5.884,-5.9079,-5.9089,-5.957,-5.9855,-6.0087,-6.0148,-6.0285,-6.0328,-6.0403,-6.0403,-6.0403,-6.0403,-6.0403,-6.0403,-6.0403,-6.0441,-6.0479,-6.0733,-6.1077,-6.1134,-6.1363,-6.1707,-6.1745,-6.1784,-6.1573,-6.1058,-6.0422,-6.0403,-6.0403,-6.0446,-6.0552,-6.0446,-6.0332,-6.027,-6.0303,-6.0421,-6.0163,-6.011,-6.006,-6.0091,-6.0148,-6.0212,-6.0238,-6.0304,-6.0323,-6.0462,-6.0178,-5.9966,-6.0178,-6.0424,-6.025,-6.0096,-6.0086,-6.0152,-6.046,-6.0696,-6.0883,-6.1114,-6.1253,-6.1745,-6.1859,-6.2366,-6.2911,-6.3216,-6.3546,-6.3732,-6.3885,-6.4363,-6.4439,-6.4573,-6.463,-6.463,-6.4745,-6.5031,-6.4688,-6.3751,-6.3178,-6.2777,-6.2834,-6.3064,-6.3178,-5.539,-5.539,-5.539,-5.539,-5.539,-5.539,-5.539,-5.539,-5.539,-5.5575,-5.5747,-5.5785,-5.6205,-5.6797,-5.7008,-5.7178,-5.7633,-5.7854,-5.787,-5.7951,-5.8009,-5.7935,-5.8117,-5.8402,-5.885,-5.8984,-5.9286,-5.9675,-5.9682,-5.9896,-5.9817,-5.9814,-6.0013,-5.9934,-5.9887,-6.0029,-6.0106,-6.0163,-6.0207,-6.0256,-6.0389,-6.0389,-6.0403,-6.0403,-6.0403,-6.0618,-6.0733,-6.0886,-6.1077,-6.1211,-6.1344,-6.1497,-6.1784,-6.207,-6.2338,-6.2682,-6.293,-6.2915,-6.2567,-6.2013,-6.1139,-6.1272,-6.12,-6.1148,-6.0965,-6.0932,-6.1088,-6.095,-6.0843,-6.0681,-6.0568,-6.0828,-6.092,-6.1104,-6.1085,-6.1091,-6.0989,-6.0995,-6.0901,-6.0865,-6.064,-6.0626,-6.0812,-6.1152,-6.1181,-6.1048,-6.1084,-6.1131,-6.1283,-6.1486,-6.1584,-6.1853,-6.2117,-6.2742,-6.3371,-6.3242,-6.3153,-6.3585,-6.3982,-6.4577,-6.4917,-6.5394,-6.549,-6.5165,-6.5375,-6.6063,-6.6273,-6.6178,-6.528,-6.4153,-6.3942,-6.3942,-6.3942,-6.4172,-6.4019,-5.539,-5.539,-5.539,-5.5409,-5.5479,-5.539,-5.5422,-5.5556,-5.56,-5.5995,-5.6549,-5.6587,-5.7046,-5.7714,-5.7867,-5.7985,-5.8187,-5.861,-5.8737,-5.8643,-5.9073,-5.9448,-5.9488,-5.9543,-5.9552,-5.9809,-5.9885,-5.9902,-5.9918,-6.0076,-6.0103,-6.0224,-6.036,-6.0336,-6.0171,-6.0304,-6.0375,-6.0408,-6.0394,-6.0509,-6.0561,-6.067,-6.0804,-6.0809,-6.0842,-6.1153,-6.1478,-6.1593,-6.186,-6.2261,-6.2376,-6.2567,-6.2815,-6.2873,-6.3006,-6.3144,-6.3144,-6.3053,-6.292,-6.2858,-6.2654,-6.2246,-6.1983,-6.2031,-6.2113,-6.2119,-6.1966,-6.1667,-6.1858,-6.1991,-6.2088,-6.2071,-6.194,-6.1828,-6.1735,-6.1681,-6.1537,-6.1464,-6.1351,-6.1276,-6.1544,-6.177,-6.1845,-6.2013,-6.2141,-6.2158,-6.214,-6.2134,-6.2098,-6.2264,-6.2378,-6.2656,-6.2962,-6.3555,-6.3968,-6.3482,-6.3413,-6.3867,-6.4578,-6.5372,-6.5722,-6.5928,-6.5887,-6.5666,-6.6082,-6.6751,-6.6999,-6.7152,-6.5891,-6.4802,-6.5318,-6.5413,-6.5356,-6.5356,-6.5356,-5.539,-5.539,-5.539,-5.5708,-5.6071,-5.5632,-5.5689,-5.6243,-5.6778,-5.7218,-5.7409,-5.7447,-5.7925,-5.8498,-5.8765,-5.8929,-5.9407,-5.9409,-5.9558,-5.9529,-5.982,-5.9812,-5.9836,-5.9869,-5.9937,-5.9934,-5.9982,-6.0045,-6.0041,-6.0243,-6.0289,-6.0385,-6.0876,-6.0819,-6.0466,-6.0375,-6.0403,-6.0523,-6.0848,-6.123,-6.1268,-6.1669,-6.1975,-6.1936,-6.1917,-6.2108,-6.2433,-6.2452,-6.272,-6.3049,-6.3121,-6.3293,-6.3637,-6.3751,-6.3981,-6.4275,-6.4421,-6.4337,-6.4285,-6.4158,-6.3657,-6.2995,-6.2549,-6.257,-6.2332,-6.2294,-6.2262,-6.2289,-6.2404,-6.2312,-6.1938,-6.1939,-6.1845,-6.1826,-6.177,-6.1789,-6.1733,-6.1751,-6.1676,-6.1638,-6.1806,-6.2391,-6.2674,-6.2787,-6.2956,-6.2973,-6.2917,-6.2574,-6.2447,-6.2917,-6.32,-6.3465,-6.3803,-6.4372,-6.4594,-6.4264,-6.4505,-6.5182,-6.5878,-6.6641,-6.6806,-6.6344,-6.6494,-6.6354,-6.6876,-6.7381,-6.7267,-6.6999,-6.6159,-6.5605,-6.6159,-6.6426,-6.6292,-6.6579,-6.7056,-5.5823,-5.5842,-5.6148,-5.6549,-5.6874,-5.6167,-5.6282,-5.7046,-5.7657,-5.802,-5.8249,-5.8326,-5.8784,-5.9357,-5.9625,-5.9664,-6.0285,-6.0178,-6.0038,-6.0041,-6.001,-5.9982,-5.9982,-6.0029,-6.0106,-6.0091,-6.0057,-6.0084,-6.0125,-6.0472,-6.0814,-6.1214,-6.1564,-6.1519,-6.1264,-6.1281,-6.1382,-6.1573,-6.1898,-6.207,-6.2204,-6.249,-6.2796,-6.2796,-6.2853,-6.3006,-6.3236,-6.3369,-6.3465,-6.3599,-6.3809,-6.3981,-6.4439,-6.4688,-6.4898,-6.5196,-6.5264,-6.5068,-6.4913,-6.486,-6.4182,-6.3329,-6.31,-6.3062,-6.3008,-6.3142,-6.3068,-6.3013,-6.2824,-6.2749,-6.2653,-6.2557,-6.2519,-6.2558,-6.2576,-6.2614,-6.2652,-6.2689,-6.2689,-6.2595,-6.2595,-6.3087,-6.3408,-6.3615,-6.3747,-6.371,-6.3653,-6.3255,-6.2912,-6.3346,-6.3816,-6.4041,-6.4266,-6.4642,-6.5052,-6.5204,-6.5641,-6.6434,-6.6701,-6.6834,-6.6592,-6.597,-6.6532,-6.6957,-6.694,-6.6961,-6.7095,-6.6789,-6.6426,-6.656,-6.7095,-6.7228,-6.7152,-6.7267,-6.7515,-5.6645,-5.6759,-5.7542,-5.7867,-5.7791,-5.7179,-5.7294,-5.7944,-5.802,-5.8498,-5.9128,-5.9147,-5.9548,-6.0212,-6.0346,-6.0256,-6.0173,-6.0148,-6.0106,-6.0045,-6.0087,-6.0103,-6.0163,-6.0241,-6.0197,-6.0245,-6.0277,-6.033,-6.0262,-6.0922,-6.1581,-6.2041,-6.2281,-6.23,-6.2363,-6.2646,-6.265,-6.2532,-6.2743,-6.2896,-6.3025,-6.3178,-6.3427,-6.3465,-6.3465,-6.3732,-6.4,-6.421,-6.4573,-6.4898,-6.5222,-6.528,-6.5356,-6.5375,-6.5394,-6.5364,-6.5333,-6.5109,-6.4888,-6.4835,-6.467,-6.4011,-6.4219,-6.4349,-6.4197,-6.3933,-6.3839,-6.3857,-6.3819,-6.3986,-6.4059,-6.3984,-6.3928,-6.3966,-6.3946,-6.3985,-6.4004,-6.4023,-6.4004,-6.3928,-6.389,-6.4081,-6.4006,-6.4176,-6.4103,-6.4084,-6.4029,-6.403,-6.3747,-6.3784,-6.4181,-6.4387,-6.4593,-6.4777,-6.5091,-6.5344,-6.5439,-6.583,-6.572,-6.5772,-6.5595,-6.5626,-6.5846,-6.6132,-6.6379,-6.6502,-6.6522,-6.6865,-6.7209,-6.7381,-6.7037,-6.7305,-6.6999,-6.6732,-6.6732,-5.7523,-5.7542,-5.7791,-5.823,-5.8784,-5.9128,-5.9128,-5.8861,-5.9357,-5.9873,-6.0007,-6.0026,-6.0122,-6.0403,-6.0403,-6.0342,-6.0328,-6.0313,-6.0318,-6.0289,-6.0256,-6.0299,-6.0323,-6.0317,-6.0186,-6.0326,-6.0513,-6.0755,-6.0861,-6.1489,-6.1974,-6.2292,-6.2942,-6.3129,-6.3446,-6.393,-6.3492,-6.326,-6.3539,-6.3737,-6.3981,-6.4229,-6.4382,-6.4458,-6.4439,-6.4707,-6.484,-6.4955,-6.5203,-6.5318,-6.5394,-6.5394,-6.5394,-6.5379,-6.5349,-6.5078,-6.4991,-6.4888,-6.4577,-6.4634,-6.4577,-6.4364,-6.4364,-6.4364,-6.4304,-6.4284,-6.4284,-6.4284,-6.4284,-6.4284,-6.4284,-6.4284,-6.4284,-6.4284,-6.4284,-6.4284,-6.4284,-6.4284,-6.4284,-6.4284,-6.4284,-6.4284,-6.4284,-6.4286,-6.4231,-6.4267,-6.4323,-6.4363,-6.4383,-6.4324,-6.4403,-6.4558,-6.4652,-6.4763,-6.4872,-6.5091,-6.5034,-6.5033,-6.5076,-6.5142,-6.522,-6.5256,-6.5207,-6.5404,-6.5807,-6.5895,-6.5853,-6.6254,-6.6655,-6.6254,-6.5967,-6.6502,-6.6827,-6.6522,-6.6445,-5.8364,-5.8421,-5.8746,-5.9166,-5.9663,-6.0193,-6.0083,-5.9759,-6.0193,-6.0403,-6.0403,-6.0384,-6.0403,-6.0403,-6.0403,-6.0389,-6.0389,-6.0389,-6.0375,-6.0375,-6.0427,-6.0619,-6.0618,-6.07,-6.0839,-6.0942,-6.1166,-6.1439,-6.1595,-6.2144,-6.2689,-6.3218,-6.3782,-6.3912,-6.4155,-6.4448,-6.4432,-6.4187,-6.4191,-6.4531,-6.4844,-6.5127,-6.5299,-6.5394,-6.5394,-6.5394,-6.5394,-6.5394,-6.5394,-6.5394,-6.5394,-6.5394,-6.5379,-6.5333,-6.5207,-6.4958,-6.4925,-6.4781,-6.4558,-6.4577,-6.4481,-6.4364,-6.4284,-6.4304,-6.4304,-6.4284,-6.4284,-6.4284,-6.4284,-6.4284,-6.4284,-6.4284,-6.4284,-6.4284,-6.4284,-6.4284,-6.4284,-6.4284,-6.4284,-6.4284,-6.4284,-6.4284,-6.4284,-6.4284,-6.4284,-6.4284,-6.4284,-6.4304,-6.4343,-6.4304,-6.4403,-6.4577,-6.4615,-6.4671,-6.48,-6.4926,-6.4925,-6.4958,-6.5023,-6.5057,-6.5008,-6.5109,-6.5252,-6.5298,-6.5387,-6.5475,-6.5585,-6.5509,-6.5662,-6.5394,-6.5394,-6.5834,-6.6216,-6.6159,-6.6216,-5.9191,-5.9281,-6.0064,-6.0288,-6.0384,-6.0403,-6.0384,-6.0403,-6.0384,-6.0403,-6.0403,-6.0403,-6.0403,-6.0403,-6.0403,-6.0403,-6.0403,-6.0403,-6.0556,-6.0504,-6.0633,-6.0919,-6.1382,-6.1479,-6.1492,-6.1941,-6.2307,-6.2349,-6.2559,-6.3068,-6.3729,-6.4345,-6.4464,-6.4538,-6.4593,-6.4808,-6.4831,-6.4799,-6.481,-6.501,-6.523,-6.5375,-6.5394,-6.5394,-6.5394,-6.5394,-6.5413,-6.5379,-6.5379,-6.5379,-6.5349,-6.5333,-6.5271,-6.5139,-6.4972,-6.4869,-6.48,-6.4671,-6.4539,-6.452,-6.4443,-6.4364,-6.4284,-6.4284,-6.4284,-6.4284,-6.4284,-6.4284,-6.4284,-6.4284,-6.4284,-6.4284,-6.4284,-6.4284,-6.4284,-6.4284,-6.4284,-6.4284,-6.4284,-6.4284,-6.4284,-6.4284,-6.4284,-6.4284,-6.4284,-6.4284,-6.4284,-6.4284,-6.4284,-6.4284,-6.4403,-6.4558,-6.4596,-6.4652,-6.4818,-6.4926,-6.4926,-6.4941,-6.4972,-6.5054,-6.5057,-6.5188,-6.5379,-6.5379,-6.5364,-6.5379,-6.5433,-6.5394,-6.5394,-6.5394,-6.5394,-6.5394,-6.5528,-6.57,-6.5815,-6.0083,-6.0083,-6.0327,-6.0403,-6.0403,-6.0403,-6.0403,-6.0403,-6.0403,-6.0403,-6.0403,-6.0403,-6.0403,-6.0403,-6.0403,-6.0422,-6.0479,-6.0613,-6.0809,-6.111,-6.1243,-6.1622,-6.2129,-6.2153,-6.2153,-6.2291,-6.2689,-6.3386,-6.3856,-6.4254,-6.4481,-6.4726,-6.4817,-6.4817,-6.4817,-6.4991,-6.504,-6.5136,-6.5153,-6.5217,-6.5379,-6.5394,-6.5394,-6.5394,-6.5394,-6.5379,-6.5349,-6.5252,-6.5201,-6.5169,-6.5059,-6.5027,-6.5029,-6.4834,-6.4726,-6.4652,-6.4577,-6.4481,-6.4423,-6.4422,-6.4364,-6.4344,-6.4284,-6.4284,-6.4284,-6.4284,-6.4284,-6.4284,-6.4284,-6.4284,-6.4284,-6.4284,-6.4284,-6.4284,-6.4284,-6.4284,-6.4284,-6.4284,-6.4284,-6.4284,-6.4284,-6.4284,-6.4284,-6.4284,-6.4284,-6.4284,-6.4284,-6.4284,-6.4284,-6.4304,-6.4403,-6.4501,-6.4577,-6.4652,-6.48,-6.4818,-6.4782,-6.4818,-6.4871,-6.4972,-6.5087,-6.522,-6.5349,-6.5379,-6.5394,-6.5394,-6.5394,-6.5394,-6.5394,-6.5394,-6.5394,-6.5394,-6.5394,-6.5528,-6.549,-6.0403,-6.0403,-6.0403,-6.0403,-6.0403,-6.0403,-6.0403,-6.0403,-6.0403,-6.0403,-6.0403,-6.0403,-6.0403,-6.0403,-6.0403,-6.0733,-6.0848,-6.0943,-6.1516,-6.195,-6.2132,-6.2512,-6.2748,-6.2902,-6.3266,-6.3384,-6.3743,-6.4364,-6.4868,-6.489,-6.4871,-6.4925,-6.4941,-6.4991,-6.4991,-6.5059,-6.5125,-6.5236,-6.5201,-6.5267,-6.5379,-6.5379,-6.5394,-6.5394,-6.5394,-6.5364,-6.5232,-6.5153,-6.5087,-6.5023,-6.4958,-6.4942,-6.489,-6.4745,-6.4634,-6.4558,-6.4443,-6.4284,-6.4284,-6.4284,-6.4284,-6.4284,-6.4284,-6.4284,-6.4284,-6.4284,-6.4284,-6.4284,-6.4284,-6.4284,-6.4284,-6.4284,-6.4284,-6.4284,-6.4284,-6.4284,-6.4284,-6.4284,-6.4284,-6.4284,-6.4284,-6.4284,-6.4284,-6.4284,-6.4284,-6.4284,-6.4284,-6.4284,-6.4284,-6.4284,-6.4403,-6.4461,-6.4481,-6.4481,-6.4539,-6.4558,-6.4558,-6.4634,-6.4745,-6.4887,-6.5004,-6.5153,-6.5267,-6.5333,-6.5379,-6.5394,-6.5394,-6.5394,-6.5394,-6.5394,-6.5394,-6.5394,-6.5394,-6.5394,-6.5394,-6.0403,-6.0403,-6.0403,-6.0403,-6.0403,-6.0403,-6.0403,-6.0403,-6.0403,-6.0499,-6.0632,-6.0613,-6.0542,-6.0556,-6.0594,-6.1153,-6.1554,-6.1745,-6.2319,-6.2809,-6.2845,-6.335,-6.3707,-6.3877,-6.4167,-6.4432,-6.4715,-6.4826,-6.5027,-6.5046,-6.5044,-6.501,-6.504,-6.5136,-6.5169,-6.5236,-6.5283,-6.5239,-6.5223,-6.5305,-6.5352,-6.5349,-6.5349,-6.5349,-6.5333,-6.5255,-6.512,-6.5054,-6.5008,-6.4922,-6.4853,-6.4836,-6.4764,-6.4634,-6.4558,-6.4481,-6.4384,-6.4304,-6.4284,-6.4284,-6.4284,-6.4284,-6.4284,-6.4284,-6.4284,-6.4284,-6.4284,-6.4284,-6.4284,-6.4284,-6.4284,-6.4284,-6.4284,-6.4284,-6.4284,-6.4284,-6.4284,-6.4284,-6.4284,-6.4284,-6.4284,-6.4284,-6.4284,-6.4284,-6.4284,-6.4284,-6.4284,-6.4284,-6.4284,-6.4284,-6.4343,-6.4363,-6.4384,-6.4364,-6.4363,-6.4364,-6.4423,-6.4443,-6.4558,-6.4743,-6.4955,-6.5071,-6.5204,-6.5283,-6.5349,-6.5379,-6.5394,-6.5394,-6.5394,-6.5394,-6.5394,-6.5394,-6.5394,-6.5394,-6.5394,-6.0403,-6.0403,-6.0403,-6.0403,-6.0403,-6.0403,-6.0403,-6.0403,-6.0441,-6.0733,-6.1268,-6.1363,-6.1363,-6.1382,-6.1363,-6.1841,-6.2567,-6.2662,-6.3197,-6.3813,-6.3718,-6.4206,-6.4555,-6.4565,-6.4818,-6.4985,-6.509,-6.5155,-6.5174,-6.5258,-6.5286,-6.5255,-6.5293,-6.5274,-6.5158,-6.5267,-6.5441,-6.5465,-6.5413,-6.5413,-6.5282,-6.5259,-6.5172,-6.5123,-6.5042,-6.4991,-6.4941,-6.4941,-6.4942,-6.4872,-6.4764,-6.469,-6.4615,-6.452,-6.4443,-6.4443,-6.4344,-6.4304,-6.4284,-6.4284,-6.4284,-6.4284,-6.4284,-6.4284,-6.4284,-6.4284,-6.4284,-6.4284,-6.4284,-6.4284,-6.4284,-6.4284,-6.4284,-6.4284,-6.4284,-6.4284,-6.4284,-6.4284,-6.4284,-6.4284,-6.4284,-6.4284,-6.4284,-6.4284,-6.4284,-6.4284,-6.4284,-6.4284,-6.4284,-6.4284,-6.4284,-6.4284,-6.4284,-6.4284,-6.4323,-6.4323,-6.4344,-6.4324,-6.4403,-6.4633,-6.485,-6.4987,-6.5104,-6.5267,-6.5349,-6.5394,-6.5394,-6.5394,-6.5394,-6.5394,-6.5394,-6.5394,-6.5394,-6.5394,-6.5394]},{"header":{"parameterUnit":"m.s-1","parameterCategory":1,"la1":31.0,"la2":29.5877,"lo1":-88.7671,"lo2":-86.6584,"dx":0.0162,"dy":0.0185,"nx":115,"ny":88,"refTime":"2023-01-29T18:00:00:Z","depth":0,"parameterNumber":3,"parameterNumberName":"V-component_of_WINDS"},"data":[0.0,0.0,0.0,0.0,0.0,0.0,0.0,0.0,0.0,0.0,0.0,0.0,0.0,0.0,0.0,0.0,0.0,0.0,0.0,0.0,0.0,0.0,0.0,0.0,0.0,0.0,0.0,0.0,0.0,0.0,0.0,0.0,0.0,0.0,0.0,0.0,0.0,0.0,0.0,0.0,0.0,0.0,0.0,0.0,0.0,0.0,0.0,0.0,0.0,0.0,0.0,0.0,0.0,0.0,0.0,0.0,0.0,0.0,0.0,0.0,0.0,0.0,0.0,0.0,0.0,0.0,0.0,0.0,0.0,0.0,0.0,0.0,0.0,0.0,0.0,0.0,0.0,0.0,0.0,0.0,0.0,0.0,0.0,0.0,0.0,0.0,0.0,0.0,0.0,0.0,0.0,0.0,0.0,0.0,0.0,0.0,0.0,0.0,0.0,0.0,0.0,0.0,0.0,0.0,0.0,0.0,0.0,0.0,0.0,0.0,0.0,0.0,0.0,0.0,0.0,0.0,0.0,0.0,0.0,0.0,0.0,0.0,0.0,0.0,0.0,0.0,0.0,0.0,0.0,0.0,0.0,0.0,0.0,0.0,0.0,0.0,0.0,0.0,0.0,0.0,0.0,0.0,0.0,0.0,0.0,0.0,0.0,0.0,0.0,0.0,0.0,0.0,0.0,0.0,0.0,0.0,0.0,0.0,0.0,0.0,0.0,0.0,0.0,0.0,0.0,0.0,0.0,0.0,0.0,0.0,0.0,0.0,0.0,0.0,0.0,0.0,0.0,0.0,0.0,0.0,0.0,0.0,0.0,0.0,0.0,0.0,0.0,0.0,0.0,0.0,0.0,0.0,0.0,0.0,0.0,0.0,0.0,0.0,0.0,0.0,0.0,0.0,0.0,0.0,0.0,0.0,0.0,0.0,0.0,0.0,0.0,0.0,0.0,0.0,0.0,0.0,0.0,0.0,0.0,0.0,0.0,0.0,0.0,0.0,0.0,0.0,0.0,0.0,0.0,0.0,0.0,0.0,0.0,0.0,0.0,0.0,0.0,0.0,0.0,0.0,0.0,0.0,0.0,0.0,0.0,0.0,0.0,0.0,0.0,0.0,0.0,0.0,0.0,0.0,0.0,0.0,0.0,0.0,0.0,0.0,0.0,0.0,0.0,0.0,0.0,0.0,0.0,0.0,0.0,0.0,0.0,0.0,0.0,0.0,0.0,0.0,0.0,0.0,0.0,0.0,0.0,0.0,0.0,0.0,0.0,0.0,0.0,0.0,0.0,0.0,0.0,0.0,0.0,0.0,0.0,0.0,0.0,0.0,0.0,0.0,0.0,0.0,0.0,0.0,0.0,0.0,0.0,0.0,0.0,0.0,0.0,0.0,0.0,0.0,0.0,0.0,0.0,0.0,0.0,0.0,0.0,0.0,0.0,0.0,0.0,0.0,0.0,0.0,0.0,0.0,0.0,0.0,0.0,0.0,0.0,0.0,0.0,0.0,0.0,0.0,0.0,0.0,0.0,0.0,0.0,0.0,0.0,0.0,0.0,0.0,0.0,0.0,0.0,0.0,0.0,0.0,0.0,0.0,0.0,0.0,0.0,0.0,0.0,0.0,0.0,0.0,0.0,0.0,0.0,0.0,0.0,0.0,0.0,0.0,0.0,0.0,0.0,0.0,0.0,0.0,0.0,0.0,0.0,0.0,0.0,0.0,0.0,0.0,0.0,0.0,0.0,0.0,0.0,0.0,0.0,0.0,0.0,0.0,0.0,0.0,0.0,0.0,0.0,0.0,0.0,0.0,0.0,0.0,0.0,0.0,0.0,0.0,0.0,0.0,0.0,0.0,0.0,0.0,0.0,0.0,0.0,0.0,0.0,0.0,0.0,0.0,0.0,0.0,0.0,0.0,0.0,0.0,0.0,0.0,0.0,0.0,0.0,0.0,0.0,0.0,0.0,0.0,0.0,0.0,0.0,0.0,0.0,0.0,0.0,0.0,0.0,0.0,0.0,0.0,0.0,0.0,0.0,0.0,0.0,0.0,0.0,0.0,0.0,0.0,0.0,0.0,0.0,0.0,0.0,0.0,0.0,0.0,0.0,0.0,0.0,0.0,0.0,0.0,0.0,0.0,0.0,0.0,0.0,0.0,0.0,0.0,0.0,0.0,0.0,0.0,0.0,0.0,0.0,0.0,0.0,0.0,0.0,0.0,0.0,0.0,0.0,0.0,0.0,0.0,0.0,0.0,0.0,0.0,0.0,0.0,0.0,0.0,0.0,0.0,0.0,0.0,0.0,0.0,0.0,0.0,0.0,0.0,0.0,0.0,0.0,0.0,0.0,0.0,0.0,0.0,0.0,0.0,0.0,0.0,0.0,0.0,0.0,0.0,0.0,0.0,0.0,0.0,0.0,0.0,0.0,0.0,0.0,0.0,0.0,0.0,0.0,0.0,0.0,0.0,0.0,0.0,0.0,0.0,0.0,0.0,0.0,0.0,0.0,0.0,0.0,0.0,0.0,0.0,0.0,0.0,0.0,0.0,0.0,0.0,0.0,0.0,0.0,0.0,0.0,0.0,0.0,0.0,0.0,0.0,0.0,0.0,0.0,0.0,0.0,0.0,0.0,0.0,0.0,0.0,0.0,0.0,0.0,0.0,0.0,0.0,0.0,0.0,0.0,0.0,0.0,0.0,0.0,0.0,0.0,0.0,0.0,0.0,0.0,0.0,0.0,0.0,0.0,0.0,0.0,0.0,0.0,0.0,0.0,0.0,0.0,0.0,0.0,0.0,0.0,0.0,0.0,0.0,0.0,0.0,0.0,0.0,0.0,0.0,0.0,0.0,0.0,0.0,0.0,0.0,0.0,0.0,0.0,0.0,0.0,0.0,0.0,0.0,0.0,0.0,0.0,0.0,0.0,0.0,0.0,0.0,0.0,0.0,0.0,0.0,0.0,0.0,0.0,0.0,0.0,0.0,0.0,0.0,0.0,0.0,0.0,0.0,0.0,0.0,0.0,0.0,0.0,0.0,0.0,0.0,0.0,0.0,0.0,0.0,0.0,0.0,0.0,0.0,0.0,0.0,0.0,0.0,0.0,0.0,0.0,0.0,0.0,0.0,0.0,0.0,0.0,0.0,0.0,0.0,0.0,0.0,0.0,0.0,0.0,0.0,0.0,0.0,0.0,0.0,0.0,0.0,0.0,0.0,0.0,0.0,0.0,0.0,0.0,0.0,0.0,0.0,0.0,0.0,0.0,0.0,0.0,0.0,0.0,0.0,0.0,0.0,0.0,0.0,0.0,0.0,0.0,0.0,0.0,0.0,0.0,0.0,0.0,0.0,0.0,0.0,0.0,0.0,0.0,0.0,0.0,0.0,0.0,0.0,0.0,0.0,0.0,0.0,0.0,0.0,0.0,0.0,0.0,0.0,0.0,0.0,0.0,0.0,0.0,0.0,0.0,0.0,0.0,0.0,0.0,0.0,0.0,0.0,0.0,0.0,0.0,0.0,0.0,0.0,0.0,0.0,0.0,0.0,0.0,0.0,0.0,0.0,0.0,0.0,0.0,0.0,0.0,0.0,0.0,0.0,0.0,0.0,0.0,0.0,0.0,0.0,0.0,0.0,0.0,0.0,0.0,0.0,0.0,0.0,0.0,0.0,0.0,0.0,0.0,0.0,0.0,0.0,0.0,0.0,0.0,0.0,0.0,0.0,0.0,0.0,0.0,0.0,0.0,0.0,0.0,0.0,0.0,0.0,0.0,0.0,0.0,0.0,0.0,0.0,0.0,0.0,0.0,0.0,0.0,0.0,0.0,0.0,0.0,0.0,0.0,0.0,0.0,0.0,0.0,0.0,0.0,0.0,0.0,0.0,0.0,0.0,0.0,0.0,0.0,0.0,0.0,0.0,0.0,0.0,0.0,0.0,0.0,0.0,0.0,0.0,0.0,0.0,0.0,0.0,0.0,0.0,0.0,0.0,0.0,0.0,0.0,0.0,0.0,0.0,0.0,0.0,0.0,0.0,0.0,0.0,0.0,0.0,0.0,0.0,0.0,0.0,0.0,0.0,0.0,0.0,0.0,0.0,0.0,0.0,0.0,0.0,0.0,0.0,0.0,0.0,0.0,0.0,0.0,0.0,0.0,0.0,0.0,0.0,0.0,0.0,0.0,0.0,0.0,0.0,0.0,0.0,0.0,0.0,0.0,0.0,0.0,0.0,0.0,0.0,0.0,0.0,0.0,0.0,0.0,0.0,0.0,0.0,0.0,0.0,0.0,0.0,0.0,0.0,-2.4629,0.0,0.0,0.0,0.0,0.0,0.0,0.0,0.0,0.0,0.0,0.0,0.0,0.0,0.0,0.0,0.0,0.0,0.0,0.0,0.0,0.0,0.0,0.0,0.0,0.0,0.0,0.0,0.0,0.0,0.0,0.0,0.0,0.0,0.0,0.0,0.0,0.0,0.0,0.0,0.0,0.0,0.0,0.0,0.0,0.0,0.0,0.0,0.0,0.0,0.0,0.0,0.0,0.0,0.0,0.0,0.0,0.0,0.0,0.0,0.0,0.0,0.0,0.0,0.0,0.0,0.0,0.0,0.0,0.0,0.0,0.0,0.0,0.0,0.0,0.0,0.0,0.0,0.0,0.0,0.0,0.0,0.0,0.0,0.0,0.0,0.0,0.0,0.0,0.0,0.0,0.0,0.0,0.0,0.0,0.0,0.0,0.0,0.0,0.0,0.0,0.0,0.0,0.0,0.0,0.0,0.0,0.0,0.0,0.0,0.0,-2.4629,-2.4556,-2.3735,-2.3729,-2.4562,0.0,0.0,0.0,0.0,0.0,0.0,0.0,0.0,0.0,0.0,0.0,0.0,0.0,0.0,0.0,0.0,0.0,0.0,0.0,0.0,0.0,0.0,0.0,0.0,0.0,0.0,0.0,0.0,0.0,0.0,0.0,0.0,0.0,0.0,0.0,0.0,0.0,0.0,0.0,0.0,0.0,0.0,0.0,0.0,0.0,0.0,0.0,0.0,0.0,0.0,0.0,0.0,0.0,0.0,0.0,0.0,0.0,0.0,0.0,0.0,0.0,0.0,0.0,0.0,0.0,0.0,0.0,0.0,0.0,0.0,0.0,0.0,0.0,0.0,0.0,0.0,0.0,0.0,0.0,0.0,0.0,0.0,0.0,0.0,0.0,0.0,0.0,0.0,0.0,0.0,0.0,0.0,0.0,0.0,0.0,0.0,0.0,0.0,0.0,0.0,0.0,0.0,0.0,0.0,0.0,0.0,0.0,0.0,0.0,0.0,0.0,0.0,-2.2521,-2.2372,-2.3957,0.0,0.0,0.0,0.0,0.0,0.0,0.0,0.0,0.0,0.0,0.0,0.0,0.0,0.0,0.0,0.0,0.0,0.0,0.0,0.0,0.0,0.0,0.0,0.0,0.0,0.0,0.0,0.0,0.0,0.0,0.0,0.0,0.0,0.0,0.0,0.0,0.0,0.0,0.0,0.0,0.0,0.0,0.0,0.0,0.0,0.0,0.0,0.0,0.0,0.0,0.0,0.0,0.0,0.0,0.0,0.0,0.0,0.0,0.0,0.0,0.0,0.0,0.0,0.0,0.0,0.0,0.0,0.0,0.0,0.0,0.0,0.0,0.0,0.0,0.0,0.0,0.0,0.0,0.0,0.0,0.0,0.0,0.0,0.0,0.0,0.0,0.0,0.0,0.0,0.0,0.0,0.0,0.0,0.0,0.0,0.0,0.0,0.0,0.0,0.0,0.0,0.0,0.0,0.0,0.0,0.0,0.0,0.0,0.0,0.0,-2.2446,-2.2372,-2.087,0.0,-2.2372,0.0,0.0,0.0,0.0,0.0,0.0,0.0,0.0,0.0,0.0,0.0,0.0,0.0,0.0,0.0,0.0,0.0,0.0,0.0,0.0,0.0,0.0,0.0,0.0,0.0,0.0,0.0,0.0,0.0,0.0,0.0,0.0,0.0,0.0,0.0,0.0,0.0,0.0,0.0,0.0,0.0,0.0,0.0,0.0,0.0,0.0,0.0,0.0,0.0,0.0,0.0,0.0,0.0,0.0,0.0,0.0,0.0,0.0,0.0,0.0,0.0,0.0,0.0,0.0,0.0,0.0,0.0,0.0,0.0,0.0,0.0,0.0,0.0,0.0,0.0,0.0,0.0,0.0,0.0,0.0,0.0,0.0,0.0,0.0,0.0,0.0,0.0,0.0,0.0,0.0,0.0,0.0,0.0,0.0,0.0,0.0,0.0,0.0,0.0,0.0,0.0,0.0,0.0,0.0,0.0,0.0,0.0,0.0,0.0,0.0,-2.0795,-2.0789,-2.1095,-2.1095,0.0,0.0,0.0,0.0,0.0,0.0,0.0,0.0,0.0,0.0,0.0,0.0,0.0,0.0,0.0,0.0,0.0,0.0,0.0,0.0,0.0,0.0,0.0,0.0,0.0,0.0,0.0,0.0,0.0,0.0,0.0,0.0,0.0,0.0,0.0,0.0,0.0,0.0,0.0,0.0,0.0,0.0,0.0,0.0,0.0,0.0,0.0,0.0,0.0,0.0,0.0,0.0,0.0,0.0,0.0,0.0,0.0,0.0,0.0,0.0,0.0,0.0,0.0,0.0,0.0,0.0,0.0,0.0,0.0,0.0,0.0,0.0,0.0,0.0,0.0,0.0,0.0,0.0,0.0,0.0,0.0,0.0,0.0,0.0,0.0,0.0,0.0,0.0,0.0,0.0,0.0,0.0,0.0,0.0,0.0,0.0,0.0,0.0,0.0,0.0,0.0,0.0,0.0,0.0,0.0,0.0,0.0,0.0,0.0,0.0,-1.9359,-1.8905,-1.8608,-2.0489,-2.102,-1.9811,0.0,0.0,0.0,0.0,0.0,0.0,0.0,0.0,0.0,0.0,0.0,0.0,0.0,0.0,0.0,0.0,0.0,0.0,0.0,0.0,0.0,0.0,0.0,0.0,0.0,0.0,0.0,0.0,0.0,0.0,0.0,0.0,0.0,0.0,0.0,0.0,0.0,0.0,0.0,0.0,0.0,0.0,0.0,0.0,0.0,0.0,0.0,0.0,0.0,0.0,0.0,0.0,0.0,0.0,0.0,0.0,0.0,0.0,0.0,0.0,0.0,0.0,0.0,0.0,0.0,0.0,0.0,0.0,0.0,0.0,0.0,0.0,0.0,0.0,0.0,0.0,0.0,0.0,0.0,0.0,0.0,0.0,0.0,0.0,0.0,0.0,0.0,0.0,0.0,0.0,0.0,0.0,0.0,0.0,0.0,0.0,0.0,0.0,0.0,0.0,0.0,0.0,0.0,0.0,0.0,0.0,0.0,0.0,-1.9736,-1.8304,-1.6793,-1.542,-1.8299,-1.9892,0.0,0.0,0.0,0.0,0.0,0.0,0.0,0.0,0.0,0.0,0.0,0.0,0.0,0.0,0.0,0.0,0.0,0.0,0.0,0.0,0.0,0.0,0.0,0.0,0.0,0.0,0.0,0.0,0.0,0.0,0.0,0.0,0.0,0.0,0.0,0.0,0.0,0.0,0.0,0.0,0.0,0.0,0.0,0.0,0.0,0.0,0.0,0.0,0.0,0.0,0.0,0.0,0.0,0.0,0.0,0.0,0.0,0.0,0.0,0.0,0.0,0.0,0.0,0.0,0.0,0.0,0.0,0.0,0.0,0.0,0.0,0.0,0.0,0.0,0.0,0.0,0.0,0.0,0.0,0.0,0.0,0.0,0.0,0.0,0.0,0.0,0.0,0.0,0.0,0.0,0.0,0.0,0.0,0.0,0.0,0.0,0.0,0.0,0.0,0.0,0.0,0.0,0.0,0.0,0.0,0.0,0.0,0.0,0.0,-1.6788,-1.6182,-1.5578,-1.5117,-1.8148,-1.9811,0.0,0.0,0.0,0.0,0.0,0.0,0.0,0.0,0.0,0.0,0.0,0.0,0.0,0.0,0.0,0.0,0.0,0.0,0.0,0.0,0.0,0.0,0.0,0.0,0.0,0.0,0.0,0.0,0.0,0.0,0.0,0.0,0.0,0.0,0.0,0.0,0.0,0.0,0.0,0.0,0.0,0.0,0.0,0.0,0.0,0.0,0.0,0.0,0.0,0.0,0.0,0.0,0.0,0.0,0.0,0.0,0.0,0.0,0.0,0.0,0.0,0.0,0.0,0.0,0.0,0.0,0.0,0.0,0.0,0.0,0.0,0.0,0.0,0.0,0.0,0.0,0.0,0.0,0.0,0.0,0.0,0.0,0.0,0.0,0.0,0.0,0.0,0.0,0.0,0.0,0.0,0.0,0.0,0.0,0.0,0.0,0.0,0.0,0.0,0.0,0.0,0.0,0.0,0.0,0.0,0.0,0.0,0.0,0.0,-1.5041,0.0,-1.5045,-1.5122,-1.8148,-1.9811,0.0,0.0,0.0,0.0,0.0,0.0,0.0,0.0,0.0,0.0,0.0,0.0,0.0,0.0,0.0,0.0,0.0,0.0,0.0,0.0,0.0,0.0,0.0,0.0,0.0,0.0,0.0,0.0,0.0,0.0,0.0,0.0,0.0,0.0,0.0,0.0,0.0,0.0,0.0,0.0,0.0,0.0,0.0,0.0,0.0,0.0,0.0,0.0,0.0,0.0,0.0,0.0,0.0,0.0,0.0,0.0,0.0,0.0,0.0,0.0,0.0,0.0,0.0,0.0,0.0,0.0,0.0,0.0,0.0,0.0,0.0,0.0,0.0,0.0,0.0,0.0,0.0,0.0,0.0,0.0,0.0,0.0,0.0,0.0,0.0,0.0,0.0,0.0,0.0,0.0,0.0,0.0,0.0,0.0,0.0,0.0,0.0,0.0,0.0,0.0,0.0,0.0,0.0,0.0,0.0,0.0,0.0,0.0,-1.5045,-1.5045,-1.5045,-1.5045,-1.5117,-1.8072,-1.9736,0.0,0.0,0.0,0.0,0.0,0.0,0.0,0.0,0.0,0.0,0.0,0.0,0.0,0.0,0.0,0.0,0.0,0.0,0.0,0.0,0.0,0.0,0.0,0.0,0.0,0.0,0.0,0.0,0.0,0.0,0.0,0.0,0.0,0.0,0.0,0.0,0.0,0.0,0.0,0.0,0.0,0.0,0.0,0.0,0.0,0.0,0.0,0.0,0.0,0.0,0.0,0.0,0.0,0.0,0.0,0.0,0.0,0.0,0.0,0.0,0.0,0.0,0.0,0.0,0.0,0.0,0.0,0.0,0.0,0.0,0.0,0.0,0.0,0.0,0.0,0.0,0.0,0.0,0.0,0.0,0.0,0.0,0.0,0.0,0.0,0.0,0.0,0.0,0.0,0.0,0.0,0.0,0.0,0.0,0.0,0.0,0.0,0.0,0.0,0.0,0.0,0.0,0.0,0.0,0.0,0.0,0.0,0.0,0.0,-1.5045,-1.5045,-1.5045,-1.5045,-1.7017,-1.8683,0.0,0.0,0.0,0.0,0.0,0.0,0.0,0.0,0.0,0.0,0.0,0.0,0.0,0.0,0.0,0.0,0.0,0.0,0.0,0.0,0.0,0.0,0.0,0.0,0.0,0.0,0.0,0.0,0.0,0.0,0.0,0.0,0.0,0.0,0.0,0.0,0.0,0.0,0.0,0.0,0.0,0.0,0.0,0.0,0.0,0.0,0.0,0.0,0.0,0.0,0.0,0.0,0.0,0.0,0.0,0.0,0.0,0.0,0.0,0.0,0.0,0.0,0.0,0.0,0.0,0.0,0.0,0.0,0.0,0.0,0.0,0.0,0.0,0.0,0.0,0.0,0.0,0.0,0.0,0.0,0.0,0.0,0.0,0.0,0.0,0.0,0.0,0.0,0.0,0.0,0.0,0.0,0.0,0.0,0.0,0.0,0.0,0.0,0.0,0.0,0.0,0.0,0.0,0.0,0.0,0.0,0.0,0.0,0.0,-1.532,-1.5324,-1.5324,-1.532,-1.6906,-1.8074,-1.89,0.0,0.0,0.0,0.0,0.0,0.0,0.0,0.0,0.0,0.0,0.0,0.0,0.0,0.0,0.0,0.0,0.0,0.0,0.0,0.0,0.0,0.0,0.0,0.0,0.0,0.0,0.0,0.0,0.0,0.0,0.0,0.0,0.0,0.0,0.0,0.0,0.0,0.0,0.0,0.0,0.0,0.0,0.0,0.0,0.0,0.0,0.0,0.0,0.0,0.0,0.0,0.0,0.0,0.0,0.0,0.0,0.0,0.0,0.0,0.0,0.0,0.0,0.0,0.0,0.0,0.0,0.0,0.0,0.0,0.0,0.0,0.0,0.0,0.0,0.0,0.0,0.0,0.0,0.0,0.0,0.0,0.0,0.0,0.0,0.0,0.0,0.0,0.0,0.0,0.0,0.0,0.0,0.0,0.0,0.0,0.0,0.0,0.0,0.0,0.0,0.0,0.0,0.0,0.0,0.0,0.0,0.0,0.0,-1.5803,-1.5874,-1.587,-1.5883,-1.7305,-1.7926,0.0,0.0,0.0,0.0,0.0,0.0,0.0,0.0,0.0,0.0,0.0,0.0,0.0,0.0,0.0,0.0,0.0,0.0,0.0,0.0,0.0,0.0,0.0,0.0,0.0,0.0,0.0,0.0,0.0,0.0,0.0,0.0,0.0,0.0,0.0,0.0,0.0,0.0,0.0,0.0,0.0,0.0,0.0,0.0,0.0,0.0,0.0,0.0,0.0,0.0,0.0,0.0,0.0,0.0,0.0,0.0,0.0,0.0,0.0,0.0,0.0,0.0,0.0,0.0,0.0,0.0,0.0,0.0,0.0,0.0,0.0,0.0,0.0,0.0,0.0,0.0,0.0,0.0,0.0,0.0,0.0,0.0,0.0,0.0,0.0,0.0,0.0,0.0,0.0,0.0,0.0,0.0,0.0,0.0,0.0,0.0,0.0,0.0,0.0,0.0,0.0,0.0,0.0,0.0,0.0,0.0,0.0,0.0,0.0,-1.6425,-1.6868,-1.6932,-1.6504,-1.6493,-1.6964,0.0,0.0,0.0,0.0,0.0,0.0,0.0,0.0,0.0,0.0,0.0,0.0,0.0,0.0,0.0,0.0,0.0,0.0,0.0,0.0,0.0,0.0,0.0,0.0,0.0,0.0,0.0,0.0,0.0,0.0,0.0,0.0,0.0,0.0,0.0,0.0,0.0,0.0,0.0,0.0,0.0,0.0,0.0,0.0,0.0,0.0,0.0,0.0,0.0,0.0,0.0,0.0,0.0,0.0,0.0,0.0,0.0,0.0,0.0,0.0,0.0,0.0,0.0,0.0,0.0,0.0,0.0,0.0,0.0,0.0,0.0,0.0,0.0,0.0,0.0,0.0,0.0,0.0,0.0,0.0,0.0,0.0,0.0,0.0,0.0,0.0,0.0,0.0,0.0,0.0,0.0,0.0,0.0,0.0,0.0,0.0,0.0,0.0,0.0,0.0,0.0,0.0,0.0,0.0,0.0,0.0,0.0,0.0,-1.6076,-1.6583,-1.7468,-1.7771,-1.7399,-1.66,-1.6489,0.0,0.0,0.0,0.0,0.0,0.0,0.0,0.0,0.0,0.0,0.0,0.0,0.0,0.0,0.0,0.0,0.0,0.0,0.0,0.0,0.0,0.0,0.0,0.0,0.0,0.0,0.0,0.0,0.0,0.0,0.0,0.0,0.0,0.0,0.0,0.0,0.0,0.0,0.0,0.0,0.0,0.0,0.0,0.0,0.0,0.0,0.0,0.0,0.0,0.0,0.0,0.0,0.0,0.0,0.0,0.0,0.0,0.0,0.0,0.0,0.0,0.0,0.0,0.0,0.0,0.0,0.0,0.0,0.0,0.0,0.0,0.0,0.0,0.0,0.0,0.0,0.0,0.0,0.0,0.0,0.0,0.0,0.0,0.0,0.0,0.0,0.0,0.0,0.0,0.0,0.0,0.0,0.0,0.0,0.0,0.0,0.0,0.0,0.0,0.0,0.0,0.0,0.0,0.0,0.0,0.0,0.0,0.0,-1.6349,-1.6543,-1.7769,-1.8439,-1.8379,-1.7305,-1.6439,0.0,0.0,0.0,0.0,0.0,0.0,0.0,0.0,0.0,0.0,0.0,0.0,0.0,0.0,0.0,0.0,0.0,0.0,0.0,0.0,0.0,0.0,0.0,0.0,0.0,0.0,0.0,0.0,0.0,0.0,0.0,0.0,0.0,0.0,0.0,0.0,0.0,0.0,0.0,0.0,0.0,0.0,0.0,0.0,0.0,0.0,0.0,0.0,0.0,0.0,0.0,0.0,0.0,0.0,0.0,0.0,0.0,0.0,0.0,0.0,0.0,0.0,0.0,0.0,0.0,0.0,0.0,0.0,0.0,0.0,0.0,0.0,0.0,0.0,0.0,0.0,0.0,0.0,0.0,0.0,0.0,0.0,0.0,0.0,0.0,0.0,0.0,0.0,0.0,0.0,0.0,0.0,0.0,0.0,0.0,0.0,0.0,0.0,0.0,0.0,0.0,0.0,0.0,0.0,0.0,0.0,0.0,0.0,-1.6562,-1.733,-1.8052,-1.8433,-1.8433,-1.7305,-1.66,0.0,0.0,0.0,0.0,0.0,0.0,0.0,0.0,0.0,0.0,0.0,0.0,0.0,0.0,0.0,0.0,0.0,0.0,0.0,0.0,0.0,0.0,0.0,0.0,0.0,0.0,0.0,0.0,0.0,0.0,0.0,0.0,0.0,0.0,0.0,0.0,0.0,0.0,0.0,0.0,0.0,0.0,0.0,0.0,0.0,0.0,0.0,0.0,-1.5803,0.0,0.0,0.0,0.0,0.0,0.0,0.0,0.0,0.0,0.0,0.0,0.0,0.0,0.0,0.0,0.0,0.0,0.0,0.0,0.0,0.0,0.0,0.0,0.0,0.0,0.0,0.0,0.0,0.0,0.0,0.0,0.0,0.0,0.0,0.0,0.0,0.0,0.0,0.0,0.0,0.0,0.0,0.0,0.0,0.0,0.0,0.0,0.0,0.0,0.0,0.0,0.0,0.0,0.0,0.0,0.0,0.0,0.0,0.0,-1.659,-1.747,-1.8075,-1.8433,-1.8379,-1.756,-1.6985,0.0,0.0,0.0,0.0,0.0,0.0,0.0,0.0,0.0,0.0,0.0,0.0,0.0,0.0,0.0,0.0,0.0,0.0,0.0,0.0,0.0,0.0,0.0,0.0,0.0,0.0,0.0,0.0,0.0,0.0,0.0,0.0,0.0,0.0,0.0,0.0,0.0,0.0,0.0,0.0,0.0,0.0,0.0,0.0,0.0,0.0,0.0,0.0,0.0,0.0,0.0,0.0,0.0,0.0,0.0,0.0,0.0,0.0,0.0,0.0,0.0,0.0,0.0,0.0,0.0,0.0,0.0,0.0,0.0,0.0,0.0,0.0,0.0,0.0,0.0,0.0,0.0,0.0,0.0,0.0,0.0,0.0,0.0,0.0,0.0,0.0,0.0,0.0,0.0,0.0,0.0,0.0,0.0,0.0,0.0,0.0,0.0,0.0,0.0,0.0,0.0,0.0,0.0,0.0,0.0,0.0,0.0,-1.582,-1.6603,-1.7449,-1.8082,-1.8433,-1.8368,-1.7841,-1.7255,-1.6745,0.0,0.0,0.0,0.0,0.0,0.0,0.0,0.0,0.0,0.0,0.0,0.0,0.0,0.0,0.0,0.0,0.0,0.0,0.0,0.0,0.0,0.0,0.0,0.0,0.0,0.0,0.0,0.0,0.0,0.0,0.0,0.0,0.0,0.0,0.0,0.0,0.0,0.0,-1.5194,-1.5117,0.0,0.0,0.0,0.0,0.0,0.0,0.0,0.0,-1.5646,0.0,0.0,0.0,0.0,0.0,0.0,0.0,0.0,0.0,0.0,0.0,0.0,0.0,0.0,0.0,0.0,0.0,0.0,0.0,0.0,0.0,0.0,0.0,0.0,0.0,0.0,0.0,0.0,0.0,0.0,0.0,0.0,0.0,0.0,0.0,0.0,0.0,0.0,0.0,0.0,0.0,0.0,0.0,0.0,0.0,0.0,0.0,0.0,0.0,0.0,0.0,0.0,0.0,0.0,0.0,0.0,-1.5966,-1.6112,-1.6885,-1.8153,-1.8363,-1.8433,-1.8363,-1.7697,-1.7033,-1.6528,0.0,0.0,0.0,0.0,0.0,0.0,0.0,0.0,0.0,0.0,0.0,0.0,0.0,0.0,0.0,0.0,0.0,0.0,0.0,0.0,0.0,0.0,0.0,0.0,0.0,0.0,0.0,0.0,0.0,0.0,0.0,0.0,0.0,0.0,0.0,0.0,0.0,0.0,0.0,-1.5424,-1.5271,0.0,0.0,0.0,0.0,0.0,0.0,0.0,0.0,-1.5847,0.0,0.0,0.0,0.0,0.0,0.0,0.0,0.0,0.0,0.0,0.0,0.0,0.0,0.0,0.0,0.0,0.0,0.0,0.0,0.0,0.0,0.0,0.0,0.0,0.0,0.0,0.0,0.0,0.0,0.0,0.0,0.0,0.0,0.0,0.0,0.0,0.0,0.0,0.0,0.0,0.0,0.0,0.0,0.0,0.0,0.0,0.0,0.0,0.0,0.0,0.0,0.0,0.0,0.0,0.0,-1.6108,-1.6603,-1.7308,-1.8363,-1.8433,-1.8433,-1.8368,-1.7661,-1.6984,0.0,0.0,0.0,0.0,0.0,0.0,0.0,0.0,0.0,0.0,0.0,0.0,0.0,0.0,0.0,0.0,0.0,0.0,0.0,0.0,0.0,0.0,0.0,0.0,0.0,0.0,0.0,0.0,0.0,0.0,0.0,0.0,0.0,0.0,0.0,0.0,0.0,0.0,0.0,0.0,-1.5662,-1.5699,-1.6421,0.0,0.0,0.0,0.0,0.0,0.0,-1.5914,-1.5802,0.0,0.0,0.0,0.0,0.0,0.0,0.0,0.0,0.0,0.0,0.0,0.0,0.0,0.0,0.0,0.0,0.0,0.0,0.0,0.0,0.0,0.0,0.0,0.0,0.0,0.0,0.0,0.0,0.0,0.0,0.0,0.0,0.0,0.0,0.0,0.0,0.0,0.0,0.0,0.0,0.0,0.0,0.0,0.0,0.0,0.0,0.0,0.0,0.0,0.0,0.0,0.0,0.0,0.0,0.0,-1.6178,-1.6841,-1.7588,-1.8293,-1.8315,-1.8315,-1.8293,-1.7453,-1.6773,0.0,0.0,0.0,0.0,0.0,0.0,0.0,0.0,0.0,0.0,0.0,0.0,0.0,0.0,0.0,0.0,0.0,0.0,0.0,0.0,0.0,0.0,0.0,0.0,0.0,0.0,0.0,0.0,0.0,0.0,0.0,0.0,0.0,0.0,0.0,0.0,0.0,0.0,0.0,0.0,0.0,-1.601,-1.6733,-1.6099,0.0,0.0,0.0,0.0,-1.5793,-1.5866,0.0,0.0,0.0,0.0,0.0,0.0,0.0,0.0,0.0,0.0,0.0,0.0,0.0,0.0,0.0,0.0,0.0,0.0,0.0,0.0,0.0,0.0,0.0,0.0,0.0,0.0,0.0,0.0,0.0,0.0,0.0,0.0,0.0,0.0,0.0,0.0,0.0,0.0,0.0,0.0,0.0,0.0,0.0,0.0,0.0,0.0,0.0,0.0,0.0,0.0,0.0,0.0,0.0,0.0,0.0,0.0,-1.6174,-1.6683,-1.7351,-1.8052,-1.7916,-1.7906,-1.8126,-1.6733,-1.6064,0.0,0.0,0.0,0.0,0.0,0.0,0.0,0.0,0.0,0.0,0.0,0.0,0.0,0.0,0.0,0.0,0.0,0.0,0.0,0.0,0.0,0.0,0.0,0.0,0.0,0.0,0.0,0.0,0.0,0.0,0.0,0.0,0.0,0.0,0.0,0.0,0.0,0.0,0.0,0.0,0.0,-1.5941,-1.6715,-1.5976,-1.5364,0.0,0.0,-1.6112,-1.6107,-1.6676,0.0,0.0,0.0,0.0,0.0,0.0,0.0,0.0,0.0,0.0,0.0,0.0,0.0,0.0,0.0,0.0,0.0,0.0,0.0,0.0,0.0,0.0,0.0,0.0,0.0,0.0,0.0,0.0,0.0,0.0,0.0,0.0,0.0,0.0,0.0,0.0,0.0,0.0,0.0,0.0,0.0,0.0,0.0,0.0,0.0,0.0,0.0,0.0,0.0,0.0,0.0,0.0,0.0,0.0,0.0,-1.5639,-1.5989,-1.6889,-1.7528,-1.7879,-1.7776,-1.7771,-1.7879,-1.6555,-1.583,0.0,0.0,0.0,0.0,0.0,0.0,0.0,0.0,0.0,0.0,0.0,0.0,0.0,0.0,0.0,0.0,0.0,0.0,0.0,0.0,0.0,0.0,0.0,0.0,0.0,0.0,0.0,0.0,0.0,0.0,0.0,0.0,0.0,0.0,0.0,0.0,0.0,0.0,0.0,0.0,0.0,0.0,-1.6385,-1.6081,0.0,0.0,0.0,-1.6037,-1.5603,0.0,0.0,0.0,0.0,0.0,0.0,0.0,0.0,0.0,0.0,0.0,0.0,0.0,0.0,0.0,0.0,0.0,0.0,0.0,0.0,0.0,0.0,0.0,0.0,0.0,0.0,0.0,0.0,0.0,0.0,0.0,0.0,0.0,0.0,0.0,0.0,0.0,0.0,0.0,0.0,0.0,0.0,0.0,0.0,0.0,0.0,0.0,0.0,0.0,0.0,0.0,0.0,0.0,0.0,0.0,0.0,0.0,-1.5777,-1.7005,-1.7636,-1.7631,-1.7572,-1.7572,-1.7569,-1.6508,0.0,0.0,0.0,0.0,0.0,0.0,0.0,0.0,0.0,0.0,0.0,0.0,0.0,0.0,0.0,0.0,0.0,0.0,0.0,0.0,0.0,0.0,0.0,0.0,0.0,0.0,0.0,-1.4914,0.0,0.0,0.0,0.0,0.0,0.0,0.0,0.0,0.0,0.0,0.0,0.0,0.0,0.0,-1.6349,-1.6202,-1.6188,-1.6254,0.0,0.0,-1.6037,-1.5669,-1.6734,-1.7092,0.0,0.0,0.0,0.0,0.0,0.0,0.0,0.0,0.0,0.0,0.0,0.0,0.0,0.0,0.0,0.0,0.0,0.0,0.0,0.0,0.0,0.0,0.0,0.0,0.0,0.0,0.0,0.0,0.0,0.0,0.0,0.0,0.0,0.0,0.0,0.0,0.0,0.0,0.0,0.0,0.0,0.0,0.0,0.0,0.0,0.0,0.0,0.0,0.0,0.0,0.0,0.0,0.0,0.0,0.0,-1.5574,-1.6779,-1.74,-1.74,-1.7168,-1.7163,-1.7389,-1.6614,-1.6073,0.0,0.0,0.0,0.0,0.0,0.0,0.0,0.0,0.0,0.0,0.0,0.0,0.0,0.0,0.0,0.0,0.0,0.0,0.0,0.0,0.0,0.0,0.0,0.0,0.0,0.0,0.0,0.0,0.0,0.0,0.0,0.0,0.0,0.0,0.0,0.0,0.0,0.0,0.0,0.0,0.0,-1.6197,-1.6188,-1.6188,-1.6466,0.0,0.0,-1.6396,-1.7026,-1.7801,-1.7801,-1.6391,0.0,0.0,0.0,0.0,0.0,0.0,0.0,0.0,0.0,0.0,0.0,0.0,0.0,0.0,0.0,0.0,0.0,0.0,0.0,0.0,0.0,0.0,0.0,0.0,0.0,0.0,0.0,0.0,0.0,0.0,0.0,0.0,0.0,0.0,0.0,0.0,0.0,0.0,0.0,0.0,0.0,0.0,0.0,0.0,0.0,0.0,0.0,0.0,0.0,0.0,0.0,0.0,0.0,-1.5364,-1.5352,-1.6536,-1.7147,-1.7141,-1.7055,-1.705,-1.7141,-1.6562,-1.5983,0.0,0.0,0.0,0.0,0.0,0.0,0.0,0.0,0.0,0.0,0.0,0.0,0.0,0.0,0.0,0.0,0.0,0.0,0.0,0.0,0.0,0.0,0.0,0.0,0.0,0.0,0.0,0.0,-1.5836,-1.5731,-1.5153,0.0,0.0,0.0,0.0,0.0,0.0,0.0,0.0,0.0,0.0,-1.6391,-1.682,-1.6885,0.0,0.0,-1.7026,-1.6815,-1.6678,-1.7238,-1.7233,-1.5678,-1.5465,0.0,0.0,0.0,0.0,0.0,0.0,0.0,0.0,0.0,0.0,0.0,0.0,0.0,0.0,0.0,0.0,0.0,0.0,0.0,0.0,0.0,0.0,0.0,0.0,0.0,0.0,0.0,0.0,0.0,0.0,0.0,0.0,0.0,0.0,0.0,0.0,0.0,0.0,0.0,0.0,0.0,0.0,0.0,0.0,0.0,0.0,0.0,0.0,0.0,0.0,0.0,0.0,-1.5139,-1.5077,-1.6366,-1.7001,-1.7001,-1.7001,-1.7001,-1.7007,-1.665,-1.6166,0.0,0.0,0.0,0.0,0.0,0.0,0.0,0.0,0.0,0.0,0.0,0.0,0.0,0.0,0.0,0.0,0.0,0.0,0.0,0.0,0.0,0.0,0.0,0.0,0.0,0.0,0.0,0.0,-1.576,-1.5603,-1.503,0.0,0.0,0.0,0.0,0.0,0.0,0.0,0.0,0.0,0.0,-1.6603,-1.6956,-1.6956,-1.6936,-1.6867,-1.6717,-1.6411,-1.6069,-1.6527,-1.6501,-1.5441,0.0,0.0,0.0,0.0,0.0,0.0,0.0,0.0,0.0,0.0,0.0,0.0,0.0,0.0,0.0,0.0,0.0,0.0,0.0,0.0,0.0,0.0,0.0,0.0,0.0,0.0,0.0,-1.3916,0.0,0.0,-1.4196,0.0,0.0,0.0,0.0,0.0,0.0,0.0,0.0,0.0,0.0,0.0,0.0,0.0,0.0,0.0,0.0,0.0,0.0,0.0,0.0,0.0,0.0,-1.5134,-1.4945,-1.6294,-1.7001,-1.7001,-1.7001,-1.7001,-1.7001,-1.7012,-1.6734,-1.617,0.0,0.0,0.0,0.0,0.0,0.0,0.0,0.0,0.0,0.0,0.0,0.0,0.0,0.0,0.0,0.0,0.0,0.0,0.0,0.0,0.0,0.0,0.0,0.0,0.0,0.0,-1.4143,-1.4613,-1.5026,0.0,0.0,0.0,0.0,0.0,0.0,0.0,0.0,0.0,0.0,-1.6315,-1.7026,-1.6315,-1.6245,-1.6164,-1.5969,-1.5385,-1.5039,-1.5534,-1.5798,-1.5936,0.0,0.0,0.0,0.0,0.0,0.0,0.0,0.0,0.0,0.0,0.0,0.0,0.0,0.0,0.0,0.0,0.0,0.0,0.0,0.0,0.0,0.0,0.0,0.0,0.0,0.0,0.0,-1.4425,-1.4433,0.0,0.0,0.0,0.0,0.0,0.0,0.0,0.0,0.0,0.0,0.0,-1.5344,-1.528,0.0,0.0,0.0,0.0,0.0,0.0,0.0,0.0,0.0,0.0,0.0,0.0,-1.4931,-1.4866,-1.6211,-1.7001,-1.7001,-1.7001,-1.7001,-1.7001,-1.7001,-1.6729,-1.6236,0.0,0.0,0.0,0.0,0.0,0.0,0.0,0.0,0.0,0.0,0.0,0.0,0.0,0.0,0.0,0.0,0.0,0.0,0.0,0.0,0.0,0.0,0.0,0.0,0.0,-1.4958,0.0,0.0,0.0,0.0,0.0,0.0,0.0,0.0,0.0,0.0,0.0,-1.4466,-1.4955,-1.5348,-1.5691,-1.5966,-1.5912,-1.5846,0.0,0.0,0.0,0.0,0.0,0.0,0.0,0.0,0.0,0.0,0.0,0.0,0.0,0.0,-1.0684,-1.0869,-1.1457,-1.176,-1.1448,0.0,0.0,0.0,0.0,0.0,0.0,0.0,0.0,0.0,0.0,0.0,0.0,0.0,0.0,-1.4479,0.0,-1.4818,0.0,0.0,0.0,0.0,0.0,0.0,0.0,0.0,-1.5473,-1.5815,-1.589,-1.5813,-1.5779,0.0,-1.5362,-1.4691,0.0,0.0,0.0,0.0,0.0,0.0,0.0,0.0,-1.4718,-1.4652,-1.6062,-1.6845,-1.677,-1.6764,-1.6764,-1.6764,-1.684,-1.6764,-1.6402,-1.5825,-1.5367,0.0,0.0,0.0,0.0,0.0,0.0,0.0,0.0,0.0,0.0,0.0,0.0,0.0,0.0,0.0,0.0,0.0,0.0,0.0,0.0,0.0,0.0,0.0,-1.5097,0.0,0.0,0.0,0.0,0.0,0.0,0.0,0.0,0.0,-1.3888,-1.406,-1.4373,-1.4863,-1.5038,-1.5214,-1.5413,0.0,0.0,0.0,0.0,0.0,0.0,0.0,-1.3809,-1.2951,-1.244,-1.1984,-1.1299,-1.074,-1.0239,-0.9951,0.0,0.0,-0.9951,-1.0521,-1.0884,-1.0452,-1.06,-1.0522,-0.9537,-0.9214,-0.8985,0.0,0.0,0.0,0.0,0.0,0.0,0.0,0.0,-1.4105,-1.4139,0.0,-1.4946,0.0,0.0,0.0,0.0,0.0,-1.5431,0.0,0.0,-1.6964,-1.7297,-1.6596,-1.6383,-1.6344,-1.6247,-1.5201,-1.4683,-1.4697,-1.5007,0.0,0.0,0.0,0.0,0.0,0.0,-1.4569,-1.4379,-1.5898,-1.6544,-1.6334,-1.6317,-1.6317,-1.6328,-1.6538,-1.6651,-1.6673,-1.6376,-1.6216,-1.6155,-1.508,0.0,0.0,0.0,0.0,0.0,0.0,0.0,0.0,0.0,0.0,0.0,0.0,0.0,0.0,0.0,0.0,0.0,0.0,0.0,0.0,-1.5026,0.0,0.0,0.0,0.0,0.0,0.0,0.0,0.0,0.0,0.0,-1.3831,-1.4363,-1.4749,-1.4749,0.0,0.0,0.0,0.0,-1.4384,-1.3284,-1.3092,-1.3031,-1.2881,-1.3133,-1.3622,-1.4241,0.0,0.0,-1.1586,-0.9651,-0.8574,-0.9657,-0.9221,-0.8579,-0.8297,-0.916,-0.9518,-0.8512,-0.9227,-0.9446,-0.8514,-0.8374,-0.8302,-1.3088,0.0,0.0,0.0,0.0,-1.3449,-1.3617,-1.392,-1.4118,-1.4418,-1.4801,-1.515,0.0,0.0,0.0,0.0,0.0,0.0,-1.5735,-1.6008,-1.647,-1.6716,-1.6884,-1.681,-1.6693,-1.6535,-1.6275,-1.6002,-1.5857,-1.5913,-1.5081,-1.3387,0.0,0.0,0.0,0.0,-1.4548,-1.4853,-1.5856,-1.6382,-1.6312,-1.6312,-1.6312,-1.6312,-1.6377,-1.6414,-1.6414,-1.6509,-1.6288,-1.5778,-1.5734,0.0,0.0,0.0,0.0,0.0,0.0,0.0,0.0,0.0,0.0,0.0,0.0,0.0,0.0,0.0,0.0,0.0,0.0,0.0,-1.5026,-1.5026,-1.4836,0.0,0.0,0.0,0.0,0.0,0.0,0.0,0.0,0.0,-1.351,-1.3685,-1.379,0.0,0.0,-1.3836,-1.3515,-1.3448,-1.3344,-1.3092,-1.2986,0.0,-1.3011,-1.3003,-1.283,-1.2402,-1.1309,-1.0275,-0.9487,-0.9054,-0.8897,-0.9253,-0.9111,-0.8992,-0.8997,-0.9232,-0.9304,-0.9088,-0.9232,-0.9377,-0.9016,-0.8943,-0.8943,-1.2755,-1.297,-1.3173,-1.3262,-1.3262,-1.3258,-1.3431,-1.359,-1.3927,-1.4294,-1.4829,-1.5276,-1.5543,-1.5491,-1.5491,0.0,0.0,0.0,-1.5649,-1.6105,-1.5847,-1.5859,-1.61,-1.6353,-1.636,-1.6145,-1.6357,-1.6307,-1.6167,-1.5825,-1.5039,-1.3872,0.0,0.0,-1.3278,-1.4147,-1.4634,-1.4862,-1.5738,-1.6124,-1.6032,-1.6032,-1.5905,-1.5655,-1.5996,-1.5921,-1.5427,-1.5893,-1.5866,-1.5258,-1.5185,-1.4833,0.0,0.0,0.0,0.0,0.0,0.0,0.0,0.0,0.0,0.0,0.0,-1.4319,0.0,0.0,0.0,0.0,-1.4429,-1.4942,-1.5217,-1.4937,0.0,0.0,0.0,0.0,0.0,0.0,0.0,-1.2962,-1.3068,-1.3161,-1.3161,-1.3161,-1.3185,-1.325,-1.3161,-1.3072,-1.3003,0.0,-1.2954,-1.299,-1.2839,-1.2873,-1.297,-1.2962,-1.2527,-1.1475,-1.0474,-0.9517,-0.8761,-0.8806,-0.8989,-0.9063,-0.8992,-0.9101,-0.9215,-0.9237,-0.9256,-0.9294,-0.9304,-0.9304,-0.9304,-0.9304,-0.9304,-1.2304,-1.2349,-1.2828,-1.3035,-1.3051,-1.3047,-1.2966,-1.284,-1.3551,-1.3914,-1.4196,-1.534,-1.58,-1.5634,-1.5571,0.0,-1.615,-1.5457,-1.5407,-1.5884,-1.5214,-1.478,-1.4719,-1.5233,-1.5368,-1.5209,-1.562,-1.5875,-1.5848,-1.5035,-1.457,-1.4575,-1.4847,-1.4544,-1.3767,-1.4489,-1.4781,-1.4639,-1.544,-1.5757,-1.5542,-1.5477,-1.5116,-1.4575,-1.5379,-1.5247,-1.4094,-1.4785,-1.5054,-1.468,-1.4011,-1.3715,-1.3822,0.0,0.0,0.0,0.0,0.0,0.0,0.0,0.0,0.0,0.0,0.0,0.0,0.0,0.0,0.0,-1.4083,0.0,-1.5468,-1.4864,0.0,0.0,0.0,-1.3344,-1.3331,-1.3177,-1.3076,-1.3072,0.0,0.0,-1.277,-1.277,-1.2897,-1.3051,-1.3072,-1.3015,-1.2794,-1.297,-1.3015,-1.2798,-1.277,-1.277,-1.2856,-1.2958,-1.2621,-1.1333,-1.0586,-0.9896,-0.9054,-0.886,-0.8868,-0.8868,-0.8868,-0.8906,-0.9025,-0.912,-0.9152,-0.9247,-0.9291,-0.9304,-0.9304,-0.9304,-0.9304,-1.2304,-1.2316,-1.2442,-1.2568,-1.269,-1.269,-1.2747,-1.2836,-1.2964,-1.3379,-1.4011,-1.4819,-1.5703,-1.665,-1.6131,-1.5969,-1.5979,-1.5156,-1.4866,-1.5002,-1.4647,-1.4484,-1.4499,-1.4625,-1.4577,-1.4317,-1.4443,-1.4635,-1.4895,-1.4714,-1.4565,-1.4634,-1.4685,-1.4326,-1.3753,-1.3921,-1.4211,-1.4565,-1.4799,-1.4924,-1.4813,-1.4401,-1.4047,-1.3928,-1.4151,-1.412,-1.3824,-1.4141,-1.427,-1.4199,-1.4226,-1.3956,-1.3499,-1.3431,0.0,0.0,0.0,0.0,0.0,0.0,0.0,0.0,0.0,-1.4066,-1.3559,0.0,-1.4049,0.0,-1.3599,-1.3981,-1.4655,-1.4117,0.0,0.0,-1.3296,-1.3108,-1.2982,-1.2925,-1.2901,-1.2897,-1.2865,-1.277,-1.277,-1.277,-1.2786,-1.2893,-1.2901,-1.2881,-1.2844,-1.2798,-1.2885,-1.2778,-1.277,-1.277,-1.2774,-1.2803,-1.2383,-1.102,-1.0711,-1.0267,-0.889,-0.8753,-0.8812,-0.8812,-0.8812,-0.8859,-0.8903,-0.8925,-0.8933,-0.8971,-0.9177,-0.9304,-0.9304,-0.9302,-0.9302,-1.2069,-1.2073,-1.2073,-1.217,-1.2333,-1.2414,-1.2552,-1.2714,-1.2714,-1.3147,-1.394,-1.4604,-1.5318,-1.6024,-1.5609,-1.5435,-1.5351,-1.4508,-1.4093,-1.4088,-1.3663,-1.3439,-1.3354,-1.3665,-1.3683,-1.3425,-1.3733,-1.3973,-1.4162,-1.4222,-1.4331,-1.4565,-1.4565,-1.4451,-1.4102,-1.3803,-1.3863,-1.4157,-1.4217,-1.4336,-1.4565,-1.4043,-1.3569,-1.3264,-1.3569,-1.3453,-1.2853,-1.3249,-1.3344,-1.3128,-1.323,-1.3207,-1.2863,-1.3042,-1.3019,0.0,0.0,0.0,0.0,0.0,0.0,0.0,0.0,0.0,0.0,0.0,-1.3717,-1.3314,-1.3177,-1.3335,-1.373,-1.3398,-1.3092,-1.299,-1.2982,-1.2942,-1.2844,-1.277,-1.277,-1.277,-1.277,-1.277,-1.277,-1.277,-1.277,-1.277,-1.277,-1.277,-1.277,-1.277,-1.277,-1.277,-1.277,-1.277,-1.277,-1.2239,-1.1648,-1.086,-1.0248,-0.9597,-0.8734,-0.8641,-0.869,-0.8687,-0.869,-0.8728,-0.8845,-0.887,-0.8883,-0.8884,-0.8984,-0.9136,-0.915,-0.9147,-0.9147,-1.1837,-1.1837,-1.1837,-1.1861,-1.2012,-1.217,-1.2349,-1.2532,-1.2596,-1.307,-1.3865,-1.4461,-1.4721,-1.4841,-1.4598,-1.4508,-1.4499,-1.3537,-1.3139,-1.3076,-1.2499,-1.2154,-1.2,-1.2553,-1.2769,-1.2603,-1.3209,-1.3513,-1.3569,-1.3569,-1.3863,-1.4451,-1.451,-1.4451,-1.4331,-1.3863,-1.3564,-1.3564,-1.3569,-1.3803,-1.4326,-1.3803,-1.3149,-1.2664,-1.3149,-1.2909,-1.1901,-1.2307,-1.2379,-1.1987,-1.1996,-1.2069,-1.2235,-1.2402,-1.2495,0.0,-1.267,0.0,0.0,0.0,0.0,0.0,0.0,0.0,0.0,-1.3157,-1.3059,-1.3059,-1.2925,-1.277,-1.277,-1.277,-1.277,-1.277,-1.277,-1.277,-1.277,-1.277,-1.277,-1.277,-1.277,-1.277,-1.277,-1.277,-1.277,-1.277,-1.277,-1.277,-1.277,-1.277,-1.277,-1.277,-1.277,-1.277,-1.2704,-1.1843,-1.1052,-1.0651,-0.9857,-0.8787,-0.8656,-0.859,-0.859,-0.8592,-0.8595,-0.863,-0.8731,-0.8747,-0.8783,-0.887,-0.8897,-0.8849,-0.889,-0.8903,-0.8882,-1.1837,-1.1837,-1.1837,-1.1797,-1.1829,-1.1861,-1.206,-1.2357,-1.2357,-1.275,-1.3409,-1.3536,-1.3911,-1.4411,-1.3874,-1.3537,-1.3528,-1.2657,-1.2267,-1.2201,-1.2,-1.1861,-1.1825,-1.195,-1.1986,-1.1957,-1.2074,-1.2432,-1.2904,-1.2904,-1.3204,-1.3863,-1.3863,-1.3624,-1.308,0.0,0.0,0.0,-1.29,-1.296,-1.302,-1.2492,-1.2074,-1.1953,-1.2078,0.0,-1.1837,-1.1893,-1.1909,-1.1821,-1.1825,0.0,0.0,0.0,0.0,0.0,0.0,0.0,0.0,0.0,0.0,0.0,-1.2848,-1.2901,-1.2934,-1.2905,-1.2819,-1.2885,-1.279,-1.277,-1.277,-1.277,-1.277,-1.277,-1.277,-1.277,-1.277,-1.277,-1.277,-1.277,-1.277,-1.277,-1.277,-1.277,-1.277,-1.277,-1.277,-1.277,-1.277,-1.277,-1.277,-1.277,-1.277,-1.277,-1.277,-1.2507,-1.1846,-1.0986,-1.0522,-0.9854,-0.8853,-0.8587,-0.8587,-0.8587,-0.8587,-0.8592,-0.8622,-0.8622,-0.8638,-0.8652,-0.8663,-0.8715,-0.8838,-0.8879,-0.8882,-1.1837,-1.1837,-1.1837,-1.1837,0.0,-1.1837,-1.1878,-1.2052,-1.2134,-1.2407,-1.2805,-1.28,-1.2989,-1.3353,-1.2891,-1.2661,-1.2648,-1.2102,-1.1902,-1.1902,-1.1817,-1.1837,-1.1837,-1.1837,-1.1837,-1.1837,-1.1837,-1.1957,-1.2251,-1.2247,-1.2548,-1.3204,-1.3209,-1.3204,-1.3204,-1.284,-1.2715,-1.2715,-1.2423,-1.2427,-1.2664,-1.2134,-1.1837,-1.1837,-1.1837,0.0,0.0,0.0,0.0,0.0,0.0,0.0,0.0,-1.1939,0.0,-1.1974,-1.2203,-1.2345,-1.2426,-1.2438,-1.2475,-1.2568,-1.2653,-1.2743,-1.2762,-1.277,-1.277,-1.277,-1.277,-1.277,-1.277,-1.277,-1.277,-1.277,-1.277,-1.277,-1.277,-1.277,-1.277,-1.277,-1.277,-1.277,-1.277,-1.277,-1.277,-1.277,-1.277,-1.277,-1.277,-1.277,-1.277,-1.277,-1.277,-1.277,-1.277,-1.2507,-1.2111,-1.1317,-1.0651,-0.9984,-0.925,-0.8851,-0.8587,-0.8587,-0.8587,-0.8587,-0.8587,-0.8587,-0.8587,-0.8587,-0.8587,-0.8617,-0.875,-0.8769,-0.8772,-1.1837,-1.1837,-1.1837,-1.1837,-1.1837,-1.1837,-1.1837,-1.1788,0.0,0.0,0.0,-1.2211,-1.2211,-1.2203,-1.2052,-1.1987,-1.1975,-1.1837,-1.1837,-1.1837,-1.1837,-1.1837,-1.1837,-1.1837,-1.1837,-1.1837,-1.1837,-1.1837,-1.1953,-1.1953,-1.2311,-1.296,-1.302,-1.326,-1.3624,-1.3024,-1.2659,-1.2543,-1.2074,-1.201,-1.2543,-1.2074,-1.1837,-1.1837,-1.1837,-1.1837,-1.1837,-1.1837,-1.1837,-1.1837,-1.1837,-1.1837,-1.1841,-1.191,-1.1983,-1.1991,-1.213,-1.2227,-1.2255,-1.2259,-1.2272,-1.2304,-1.2434,-1.2596,-1.2775,-1.2816,-1.277,-1.277,-1.277,-1.277,-1.277,-1.277,-1.277,-1.277,-1.277,-1.277,-1.277,-1.277,-1.277,-1.277,-1.277,-1.277,-1.277,-1.277,-1.277,-1.277,-1.277,-1.277,-1.277,-1.277,-1.277,-1.277,-1.277,-1.277,-1.2704,-1.2441,-1.1978,-1.1776,-1.0846,-1.0047,-0.9782,-0.9316,-0.8851,-0.8853,-0.872,-0.8587,-0.8587,-0.8587,-0.8587,-0.8587,-0.8587,-0.8587,-0.8587,-0.859,-0.8598,-1.1837,-1.1837,-1.1837,-1.1837,-1.1837,-1.1837,-1.1837,-1.1841,-1.1801,-1.1886,-1.1849,-1.1849,-1.1853,-1.1849,-1.1821,-1.1813,-1.1809,-1.1788,-1.1837,-1.1837,-1.1837,-1.1837,-1.1837,-1.1837,-1.1837,-1.1837,-1.1837,-1.2074,-1.2543,-1.2543,-1.32,-1.4152,-1.4331,-1.4097,-1.3688,-1.3024,-1.2423,-1.1953,-1.1837,-1.1837,-1.1957,-1.1837,-1.1837,-1.1837,-1.1837,-1.1837,-1.1837,-1.1837,-1.1837,-1.1837,-1.1837,-1.1837,-1.1837,-1.1805,-1.1813,-1.1813,-1.1837,-1.191,-1.2056,-1.2069,-1.2138,-1.2288,-1.2328,-1.2414,-1.2588,-1.2747,-1.277,-1.2766,-1.2754,-1.277,-1.277,-1.2754,-1.2746,-1.2754,-1.2762,-1.2766,-1.275,-1.275,-1.2746,-1.2746,-1.277,-1.2754,-1.2738,-1.2746,-1.2742,-1.2762,-1.2762,-1.277,-1.277,-1.277,-1.277,-1.277,-1.277,-1.277,-1.277,-1.277,-1.2375,-1.1909,-1.1648,-1.1178,-1.0651,-0.9984,-0.9582,-0.9513,-0.9117,-0.8717,-0.8653,-0.8587,-0.8587,-0.8587,-0.8587,-0.8587,-0.8587,-0.8587,-0.8587,-1.1837,-1.1837,-1.1837,-1.1837,-1.1837,-1.1837,-1.1837,-1.1837,-1.1837,-1.1837,-1.1837,-1.1837,-1.1837,-1.1837,-1.1837,-1.1837,-1.1837,-1.1837,-1.1837,-1.1837,-1.213,-1.2307,-1.2307,-1.2672,-1.2853,-1.2793,-1.2853,-1.2969,-1.3204,-1.3269,-1.3564,-1.4097,-1.4097,-1.3983,-1.3688,-1.3024,-1.2543,-1.2311,-1.1953,-1.1837,-1.1837,-1.1837,-1.1837,-1.1837,-1.1837,-1.1837,-1.1837,-1.1837,-1.1837,-1.1837,-1.1837,-1.1837,-1.1837,-1.1837,-1.1837,-1.1837,-1.1837,-1.1813,-1.1886,-1.189,-1.1926,-1.2016,-1.2105,-1.2186,-1.2264,-1.2442,-1.2548,-1.2548,-1.2548,-1.2548,-1.2548,-1.2548,-1.2548,-1.2552,-1.2548,-1.2552,-1.2548,-1.2552,-1.2548,-1.2552,-1.2548,-1.2552,-1.2552,-1.2552,-1.2596,-1.267,-1.2763,-1.2766,-1.277,-1.277,-1.277,-1.277,-1.277,-1.277,-1.277,-1.277,-1.2638,-1.2371,-1.2045,-1.1714,-1.1317,-1.0714,-1.0316,-1.0183,-0.9649,-0.925,-0.9183,-0.8853,-0.8653,-0.8587,-0.8587,-0.8587,-0.8587,-0.8587,-0.8587,-1.1837,-1.1837,-1.1837,-1.1837,-1.1837,-1.1837,-1.1837,-1.1837,-1.1837,-1.1837,-1.1837,-1.1837,-1.1837,-1.1837,-1.1837,-1.1837,-1.1837,-1.1837,-1.1837,-1.1897,-1.2423,-1.2715,-1.2779,-1.3384,-1.3688,-1.3688,-1.3688,-1.3748,-1.3868,-1.3748,-1.3688,-1.3688,-1.3688,-1.3624,-1.3449,-1.296,-1.2659,-1.2487,-1.2014,-1.1837,-1.1837,-1.1837,-1.1837,-1.1837,-1.1837,-1.1837,-1.1837,-1.1837,-1.1837,-1.1837,-1.1837,-1.1837,-1.1837,-1.1837,-1.1837,-1.1837,-1.1837,-1.1837,-1.1837,-1.1837,-1.1837,-1.1837,-1.1894,-1.1971,-1.1983,-1.2101,-1.2227,-1.2288,-1.232,-1.2316,-1.2324,-1.2316,-1.2304,-1.2304,-1.2304,-1.2324,-1.2308,-1.2304,-1.2304,-1.2304,-1.2304,-1.2316,-1.2304,-1.2304,-1.2389,-1.2556,-1.2722,-1.2762,-1.277,-1.277,-1.277,-1.277,-1.277,-1.277,-1.277,-1.277,-1.277,-1.277,-1.2371,-1.2111,-1.1912,-1.1446,-1.0982,-1.0916,-1.0386,-0.9984,-0.9851,-0.9386,-0.8987,-0.892,-0.8784,-0.8587,-0.8587,-0.8587,-0.8587,-1.1837,-1.1837,-1.1837,-1.1837,-1.1837,-1.1837,-1.1837,-1.1837,-1.1837,-1.1837,-1.1837,-1.1837,-1.1837,-1.1837,-1.1837,-1.1837,-1.1837,-1.1837,-1.1837,-1.1893,-1.2427,-1.2715,-1.2835,-1.3449,-1.3688,-1.3748,-1.3748,-1.3983,-1.4331,-1.3923,-1.3688,-1.3688,-1.3688,-1.3384,-1.29,-1.2719,-1.2427,-1.1893,-1.1837,-1.1837,-1.1837,-1.1837,-1.1837,-1.1837,-1.1837,-1.1837,-1.1837,-1.1837,-1.1837,-1.1837,-1.1837,-1.1837,-1.1837,-1.1837,-1.1837,-1.1837,-1.1837,-1.1837,-1.1837,-1.1837,-1.1837,-1.1837,-1.1853,-1.1813,-1.1809,-1.1821,-1.1967,-1.2203,-1.2292,-1.2276,-1.2304,-1.2292,-1.2272,-1.2259,-1.2272,-1.2304,-1.2284,-1.2304,-1.2304,-1.2304,-1.2264,-1.23,-1.2264,-1.2284,-1.2377,-1.254,-1.2722,-1.277,-1.277,-1.277,-1.277,-1.277,-1.277,-1.277,-1.277,-1.277,-1.277,-1.277,-1.277,-1.2638,-1.2437,-1.2111,-1.1714,-1.1578,-1.1118,-1.0651,-1.0518,-1.005,-0.9579,-0.9383,-0.905,-0.8587,-0.8587,-0.8587,-0.8587,-1.1837,-1.1837,-1.1837,-1.1837,-1.1837,-1.1837,-1.1837,-1.1837,-1.1837,-1.1837,-1.1837,-1.1837,-1.1837,-1.1837,-1.1837,-1.1837,-1.1837,-1.1837,-1.2014,-1.2367,-1.3024,-1.3499,-1.3854,-1.452,-1.4639,-1.4277,-1.4217,-1.4157,-1.4043,-1.3808,-1.3688,-1.3688,-1.3688,-1.3564,-1.3264,-1.29,-1.2543,-1.2303,-1.1953,-1.1837,-1.1837,-1.1837,-1.1837,-1.1837,-1.1837,-1.1837,-1.1837,-1.1837,-1.1837,-1.1837,-1.1837,-1.1837,-1.1837,-1.1837,-1.1837,-1.1837,-1.1837,-1.1837,-1.1837,-1.1837,-1.1837,-1.1837,-1.1837,-1.1837,-1.1837,-1.1837,-1.1849,-1.1959,-1.1996,-1.1996,-1.2,-1.1996,-1.1991,-1.1991,-1.1991,-1.2,-1.1991,-1.1996,-1.1996,-1.1996,-1.1991,-1.2,-1.2028,-1.2178,-1.2365,-1.2544,-1.2718,-1.2762,-1.277,-1.277,-1.277,-1.277,-1.277,-1.277,-1.277,-1.277,-1.277,-1.277,-1.277,-1.277,-1.277,-1.2638,-1.2375,-1.2375,-1.178,-1.1383,-1.1383,-1.0787,-1.0183,-0.9785,-0.9183,-0.8587,-0.8587,-0.8587,-0.8587,-1.1837,-1.1837,-1.1837,-1.1837,-1.1837,-1.1837,-1.1837,-1.1837,-1.1837,-1.1837,-1.1837,-1.1837,-1.1837,-1.1837,-1.1837,-1.1837,-1.1837,-1.1837,-1.213,-1.2719,-1.3389,-1.4043,-1.4634,-1.5056,-1.5051,-1.4689,-1.4565,-1.4396,-1.3923,-1.3748,-1.3688,-1.3688,-1.3509,-1.3509,-1.3569,-1.2904,-1.2543,-1.2659,-1.213,-1.1837,-1.1837,-1.1837,-1.1837,-1.1837,-1.1837,-1.1837,-1.1837,-1.1837,-1.1837,-1.1837,-1.1837,-1.1837,-1.1837,-1.1837,-1.1837,-1.1837,-1.1837,-1.1837,-1.1837,-1.1837,-1.1837,-1.1837,-1.1837,-1.1837,-1.1837,-1.1837,-1.1837,-1.1845,-1.1837,-1.1849,-1.1837,-1.1837,-1.1837,-1.1837,-1.1837,-1.1837,-1.1845,-1.1837,-1.1849,-1.1837,-1.1809,-1.1801,-1.1886,-1.2158,-1.2442,-1.2556,-1.2718,-1.277,-1.277,-1.277,-1.277,-1.277,-1.277,-1.277,-1.277,-1.277,-1.277,-1.277,-1.277,-1.277,-1.277,-1.277,-1.277,-1.2572,-1.2243,-1.2111,-1.1978,-1.1449,-1.0651,-0.9915,-0.925,-0.8787,-0.8653,-0.8587,-0.8587,-1.1837,-1.1837,-1.1837,-1.1837,-1.1837,-1.1837,-1.1837,-1.1837,-1.1837,-1.1837,-1.1837,-1.1837,-1.1837,-1.1837,-1.1837,-1.1837,-1.1837,-1.1837,-1.213,-1.2719,-1.3384,-1.3983,-1.457,-1.4629,-1.4624,-1.451,-1.451,-1.451,-1.4456,-1.3983,-1.3688,-1.3688,-1.3144,-1.3144,-1.3449,-1.2552,-1.2191,-1.2664,-1.2191,-1.1837,-1.1837,-1.1837,-1.1837,-1.1837,-1.1837,-1.1837,-1.1837,-1.1837,-1.1837,-1.1837,-1.1837,-1.1837,-1.1837,-1.1837,-1.1837,-1.1837,-1.1837,-1.1837,-1.1837,-1.1837,-1.1837,-1.1837,-1.1837,-1.1837,-1.1837,-1.1837,-1.1837,-1.1837,-1.1837,-1.1837,-1.1837,-1.1837,-1.1837,-1.1837,-1.1837,-1.1837,-1.1837,-1.1837,-1.1837,-1.1841,-1.1792,-1.1882,-1.2016,-1.2333,-1.2511,-1.2605,-1.2731,-1.277,-1.277,-1.277,-1.277,-1.277,-1.277,-1.277,-1.277,-1.277,-1.277,-1.277,-1.277,-1.277,-1.277,-1.277,-1.277,-1.277,-1.2638,-1.2572,-1.2572,-1.2045,-1.1181,-1.0445,-0.9845,-0.9383,-0.8917,-0.872,-0.8587,-1.1837,-1.1837,-1.1837,-1.1837,-1.1837,-1.1837,-1.1837,-1.1837,-1.1837,-1.1837,-1.1837,-1.1837,-1.1837,-1.1837,-1.1837,-1.1837,-1.1837,-1.1837,-1.213,-1.2659,-1.2964,-1.338,-1.3983,-1.4038,-1.4038,-1.4043,-1.4038,-1.4043,-1.4043,-1.3808,-1.3688,-1.3688,-1.3449,-1.3509,-1.3569,-1.3273,-1.3149,-1.3264,-1.2728,-1.2367,-1.2307,-1.2014,-1.1837,-1.1837,-1.1837,-1.1837,-1.1837,-1.1837,-1.1837,-1.1837,-1.1837,-1.1837,-1.1837,-1.1837,-1.1837,-1.1837,-1.1837,-1.1837,-1.1837,-1.1837,-1.1837,-1.1837,-1.1837,-1.1837,-1.1837,-1.1837,-1.1837,-1.1837,-1.1837,-1.1837,-1.1837,-1.1837,-1.1837,-1.1837,-1.1837,-1.1837,-1.1837,-1.1837,-1.1837,-1.1792,-1.1866,-1.2048,-1.2296,-1.2487,-1.2605,-1.2718,-1.2795,-1.2762,-1.277,-1.277,-1.277,-1.277,-1.277,-1.277,-1.277,-1.277,-1.277,-1.277,-1.277,-1.277,-1.277,-1.277,-1.277,-1.277,-1.277,-1.277,-1.2638,-1.2309,-1.1512,-1.1202,-1.0598,-0.9918,-0.938,-0.9059,-0.8792,-1.1837,-1.1837,-1.1837,-1.1837,-1.1837,-1.1837,-1.1837,-1.1837,-1.1837,-1.1837,-1.1837,-1.1837,-1.1837,-1.1837,-1.1837,-1.1837,-1.1837,-1.1837,-1.213,-1.2659,-1.2715,-1.308,-1.3569,-1.3444,-1.3504,-1.3688,-1.3688,-1.3873,-1.4227,-1.4102,-1.4102,-1.4341,-1.4102,-1.4102,-1.4227,-1.3928,-1.3748,-1.3803,-1.3324,-1.296,-1.2724,-1.2307,-1.2014,-1.1837,-1.1837,-1.1837,-1.1837,-1.1837,-1.1837,-1.1837,-1.1837,-1.1837,-1.1837,-1.1837,-1.1837,-1.1837,-1.1837,-1.1837,-1.1837,-1.1837,-1.1837,-1.1837,-1.1837,-1.1837,-1.1837,-1.1837,-1.1837,-1.1837,-1.1837,-1.1837,-1.1837,-1.1837,-1.1837,-1.1837,-1.1837,-1.1837,-1.1841,-1.1829,-1.189,-1.1975,-1.2117,-1.2316,-1.2515,-1.2609,-1.2706,-1.2758,-1.277,-1.277,-1.277,-1.277,-1.277,-1.277,-1.277,-1.277,-1.277,-1.277,-1.277,-1.277,-1.277,-1.277,-1.277,-1.277,-1.277,-1.277,-1.2774,-1.277,-1.2638,-1.2379,-1.2137,-1.1903,-1.1346,-1.0727,-1.013,-0.9473,-0.9198,-1.1837,-1.1837,-1.1837,-1.1837,-1.1837,-1.1837,-1.1837,-1.1837,-1.1837,-1.1837,-1.1837,-1.1837,-1.1837,-1.1837,-1.1837,-1.1837,-1.1837,-1.1837,-1.207,-1.2599,-1.2603,-1.2964,-1.3449,-1.302,-1.32,-1.3808,-1.3748,-1.4406,-1.5359,-1.4873,-1.4873,-1.5299,-1.4878,-1.4878,-1.5537,-1.4466,-1.4102,-1.4331,-1.3978,-1.3449,-1.284,-1.2719,-1.2423,-1.1957,-1.1893,-1.1837,-1.1837,-1.1837,-1.1837,-1.1837,-1.1837,-1.1837,-1.1837,-1.1837,-1.1837,-1.1837,-1.1837,-1.1837,-1.1837,-1.1837,-1.1837,-1.1837,-1.1837,-1.1837,-1.1837,-1.1837,-1.1837,-1.1837,-1.1837,-1.178,-1.1792,-1.1801,-1.1801,-1.1841,-1.1805,-1.1809,-1.1841,-1.1939,-1.2101,-1.2264,-1.2418,-1.2608,-1.2601,-1.2706,-1.2742,-1.2758,-1.277,-1.277,-1.277,-1.277,-1.277,-1.277,-1.277,-1.277,-1.277,-1.277,-1.277,-1.277,-1.277,-1.277,-1.277,-1.277,-1.277,-1.2774,-1.2839,-1.2843,-1.2855,-1.266,-1.2492,-1.2241,-1.1792,-1.1279,-1.0552,-0.9886,-0.9461,-1.1837,-1.1837,-1.1837,-1.1837,-1.1837,-1.1837,-1.1837,-1.1837,-1.1837,-1.1837,-1.1837,-1.1837,-1.1837,-1.1837,-1.1837,-1.1837,-1.1837,-1.1837,-1.1893,-1.207,-1.213,-1.2191,-1.2432,-1.2603,-1.326,-1.4277,-1.4818,-1.518,-1.5483,-1.5353,-1.5418,-1.5537,-1.5413,-1.5418,-1.5542,-1.518,-1.5121,-1.518,-1.4634,-1.4212,-1.3973,-1.3619,-1.3089,-1.2483,-1.2427,-1.2247,-1.1837,-1.1837,-1.1837,-1.1837,-1.1837,-1.1837,-1.1837,-1.1837,-1.1837,-1.1837,-1.1837,-1.1837,-1.1837,-1.1837,-1.1837,-1.1837,-1.1837,-1.1837,-1.1837,-1.1837,-1.1837,-1.1837,-1.1837,-1.1813,-1.1918,-1.1951,-1.1955,-1.1951,-1.1951,-1.2004,-1.2105,-1.2182,-1.23,-1.2446,-1.2532,-1.2613,-1.2718,-1.2758,-1.2766,-1.277,-1.277,-1.277,-1.277,-1.277,-1.277,-1.277,-1.277,-1.277,-1.277,-1.277,-1.277,-1.277,-1.277,-1.277,-1.277,-1.277,-1.277,-1.2819,-1.295,-1.2982,-1.2994,-1.2924,-1.2732,-1.2464,-1.1873,-1.1385,-1.0782,-1.0292,-0.9794,-1.1837,-1.1837,-1.1837,-1.1837,-1.1837,-1.1837,-1.1837,-1.1837,-1.1837,-1.1837,-1.1837,-1.1837,-1.1837,-1.1837,-1.1837,-1.1837,-1.1837,-1.1837,-1.1837,-1.1837,-1.1837,-1.1837,-1.1957,-1.2733,-1.3559,-1.4575,-1.5294,-1.5601,-1.5601,-1.5601,-1.5601,-1.5601,-1.5601,-1.5601,-1.5601,-1.5601,-1.5537,-1.5235,-1.4813,-1.4391,-1.3918,-1.3499,-1.3024,-1.2483,-1.2363,-1.2191,-1.1837,-1.1837,-1.1837,-1.1837,-1.1837,-1.1837,-1.1837,-1.1837,-1.1837,-1.1837,-1.1837,-1.1837,-1.1837,-1.1837,-1.1837,-1.1837,-1.1837,-1.1837,-1.1837,-1.1837,-1.1792,-1.1857,-1.1874,-1.1943,-1.2089,-1.213,-1.2158,-1.2223,-1.2166,-1.2219,-1.2357,-1.2402,-1.2483,-1.2613,-1.2674,-1.2726,-1.2734,-1.277,-1.277,-1.277,-1.277,-1.277,-1.277,-1.277,-1.277,-1.277,-1.277,-1.277,-1.277,-1.277,-1.277,-1.277,-1.277,-1.277,-1.277,-1.2774,-1.2844,-1.295,-1.3027,-1.3039,-1.3047,-1.297,-1.2813,-1.2406,-1.21,-1.1877,-1.1396,-1.0485,-0.9921,-1.1837,-1.1837,-1.1837,-1.1837,-1.1837,-1.1837,-1.1837,-1.1837,-1.1837,-1.1837,-1.1837,-1.1837,-1.1837,-1.1837,-1.1837,-1.1837,-1.1837,-1.1837,-1.1837,-1.1837,-1.1897,-1.2014,-1.2255,-1.3269,-1.4097,-1.4753,-1.5359,-1.5601,-1.5601,-1.5601,-1.5542,-1.5483,-1.5542,-1.5483,-1.5364,-1.5483,-1.5175,-1.4634,-1.451,-1.3918,-1.302,-1.2904,-1.2543,-1.201,-1.2014,-1.1953,-1.1837,-1.1837,-1.1837,-1.1837,-1.1837,-1.1837,-1.1837,-1.1837,-1.1837,-1.1837,-1.1837,-1.1837,-1.1837,-1.1837,-1.1837,-1.1837,-1.1837,-1.1837,-1.1837,-1.1809,-1.187,-1.1983,-1.1966,-1.2121,-1.2272,-1.232,-1.2393,-1.2523,-1.2442,-1.2446,-1.2552,-1.2576,-1.2649,-1.2771,-1.2766,-1.277,-1.277,-1.277,-1.277,-1.277,-1.277,-1.277,-1.277,-1.277,-1.277,-1.277,-1.277,-1.277,-1.277,-1.277,-1.277,-1.277,-1.277,-1.277,-1.2774,-1.2778,-1.2844,-1.2958,-1.3072,-1.3084,-1.3072,-1.3003,-1.2986,-1.2826,-1.2618,-1.2512,-1.1788,-1.0804,-0.999,-1.1837,-1.1837,-1.1837,-1.1837,-1.1837,-1.1837,-1.1837,-1.1837,-1.1837,-1.1837,-1.1837,-1.1837,-1.1837,-1.1837,-1.1837,-1.1837,-1.1837,-1.1837,-1.1837,-1.1893,-1.2311,-1.2793,-1.3269,-1.3978,-1.4694,-1.5294,-1.5483,-1.5601,-1.5601,-1.5601,-1.5359,-1.4932,-1.5359,-1.5121,-1.4406,-1.4699,-1.4515,-1.4043,-1.3923,-1.3803,-1.3444,-1.3324,-1.3149,-1.2543,-1.2427,-1.2186,-1.1833,-1.1837,-1.1837,-1.1837,-1.1837,-1.1837,-1.1837,-1.1837,-1.1837,-1.1837,-1.1837,-1.1837,-1.1837,-1.1837,-1.1837,-1.1837,-1.1788,-1.1837,-1.1841,-1.1894,-1.1975,-1.199,-1.2142,-1.2308,-1.245,-1.2495,-1.258,-1.2718,-1.269,-1.2686,-1.2735,-1.2767,-1.2791,-1.2766,-1.277,-1.277,-1.277,-1.277,-1.277,-1.277,-1.277,-1.277,-1.277,-1.277,-1.277,-1.277,-1.277,-1.277,-1.277,-1.277,-1.277,-1.277,-1.277,-1.277,-1.2774,-1.2786,-1.2848,-1.2885,-1.3035,-1.3088,-1.3092,-1.3059,-1.3088,-1.3051,-1.2649,-1.2234,-1.1681,-1.0784,-1.0117,-1.1837,-1.1837,-1.1837,-1.1837,-1.1837,-1.1837,-1.1837,-1.1837,-1.1837,-1.1837,-1.1837,-1.1837,-1.1837,-1.1837,-1.1837,-1.1837,-1.1837,-1.1837,-1.1953,-1.2367,-1.308,-1.3679,-1.4097,-1.4451,-1.4932,-1.5537,-1.5601,-1.5601,-1.5601,-1.5601,-1.5235,-1.4813,-1.4992,-1.4634,-1.3868,-1.3983,-1.3923,-1.3384,-1.3264,-1.3204,-1.2913,-1.2913,-1.2733,-1.2367,-1.2307,-1.213,-1.1837,-1.1837,-1.1837,-1.1837,-1.1837,-1.1837,-1.1837,-1.1837,-1.1837,-1.1837,-1.1837,-1.1837,-1.1837,-1.1837,-1.1837,-1.1792,-1.1829,-1.1878,-1.1918,-1.204,-1.2154,-1.2272,-1.2357,-1.2495,-1.2633,-1.2678,-1.2726,-1.2738,-1.277,-1.277,-1.277,-1.2762,-1.277,-1.277,-1.277,-1.277,-1.277,-1.277,-1.277,-1.277,-1.277,-1.277,-1.277,-1.277,-1.277,-1.277,-1.277,-1.277,-1.277,-1.277,-1.277,-1.277,-1.277,-1.277,-1.2782,-1.2798,-1.2917,-1.295,-1.3035,-1.3084,-1.3072,-1.3035,-1.297,-1.2789,-1.2402,-1.2056,-1.1648,-1.1247,-1.0512,-1.1837,-1.1837,-1.1837,-1.1837,-1.1837,-1.1837,-1.1837,-1.1837,-1.1837,-1.1837,-1.1837,-1.1837,-1.1837,-1.1837,-1.1837,-1.1837,-1.1837,-1.1837,-1.2191,-1.2784,-1.3674,-1.4336,-1.4277,-1.4515,-1.4873,-1.5359,-1.5477,-1.5418,-1.5418,-1.5477,-1.5235,-1.4813,-1.4753,-1.4341,-1.3868,-1.3748,-1.3324,-1.2904,-1.2668,-1.2432,-1.2134,-1.2018,-1.2014,-1.1953,-1.1893,-1.1897,-1.1837,-1.1837,-1.1837,-1.1837,-1.1837,-1.1837,-1.1837,-1.1837,-1.1837,-1.1837,-1.1837,-1.1784,-1.1809,-1.1825,-1.1837,-1.1886,-1.2,-1.1995,-1.2093,-1.2223,-1.2377,-1.2483,-1.2572,-1.2666,-1.2767,-1.2758,-1.2754,-1.277,-1.277,-1.277,-1.277,-1.277,-1.277,-1.277,-1.277,-1.277,-1.277,-1.277,-1.277,-1.277,-1.277,-1.277,-1.277,-1.277,-1.277,-1.277,-1.277,-1.277,-1.277,-1.277,-1.277,-1.277,-1.277,-1.2774,-1.2856,-1.2897,-1.2986,-1.3043,-1.2999,-1.2999,-1.3015,-1.2958,-1.2885,-1.279,-1.258,-1.2379,-1.2041,-1.1714,-1.1181,-1.1837,-1.1837,-1.1837,-1.1837,-1.1837,-1.1837,-1.1837,-1.1837,-1.1837,-1.1837,-1.1837,-1.1837,-1.1837,-1.1837,-1.1837,-1.1837,-1.1837,-1.1837,-1.213,-1.2724,-1.3504,-1.3863,-1.4043,-1.4336,-1.4689,-1.4873,-1.4813,-1.4873,-1.4932,-1.5353,-1.524,-1.4748,-1.4932,-1.4823,-1.3868,-1.3688,-1.3384,-1.2719,-1.2307,-1.2014,-1.1897,-1.1837,-1.1837,-1.1837,-1.1837,-1.1837,-1.1837,-1.1837,-1.1837,-1.1837,-1.1845,-1.1797,-1.1841,-1.1837,-1.1845,-1.1797,-1.1792,-1.1841,-1.1943,-1.1983,-1.204,-1.215,-1.2199,-1.2247,-1.2259,-1.2406,-1.2511,-1.2588,-1.2686,-1.2779,-1.2758,-1.277,-1.277,-1.277,-1.277,-1.277,-1.277,-1.277,-1.277,-1.277,-1.277,-1.277,-1.277,-1.277,-1.277,-1.277,-1.277,-1.277,-1.277,-1.277,-1.277,-1.277,-1.277,-1.277,-1.277,-1.277,-1.277,-1.277,-1.277,-1.277,-1.2786,-1.2865,-1.2929,-1.2929,-1.2823,-1.2901,-1.2942,-1.2913,-1.2782,-1.2774,-1.277,-1.2638,-1.2375,-1.2111,-1.178,-1.1837,-1.1837,-1.1837,-1.1837,-1.1837,-1.1837,-1.1837,-1.1837,-1.1837,-1.1837,-1.1837,-1.1837,-1.1837,-1.1837,-1.1837,-1.1837,-1.1897,-1.2134,-1.2367,-1.284,-1.3384,-1.3688,-1.3748,-1.4043,-1.4277,-1.4575,-1.4932,-1.5051,-1.5175,-1.5299,-1.524,-1.4629,-1.4992,-1.458,-1.3868,-1.3688,-1.3329,-1.2779,-1.2423,-1.207,-1.1837,-1.1837,-1.1837,-1.1837,-1.1837,-1.1837,-1.1837,-1.1837,-1.1825,-1.1874,-1.1894,-1.1853,-1.1788,-1.1841,-1.1813,-1.1882,-1.1898,-1.1983,-1.2109,-1.2162,-1.2199,-1.2308,-1.2377,-1.2418,-1.2467,-1.2588,-1.2678,-1.271,-1.2771,-1.277,-1.277,-1.277,-1.277,-1.277,-1.277,-1.277,-1.277,-1.277,-1.277,-1.277,-1.277,-1.277,-1.277,-1.277,-1.277,-1.277,-1.277,-1.277,-1.277,-1.277,-1.277,-1.277,-1.277,-1.277,-1.277,-1.277,-1.277,-1.277,-1.277,-1.277,-1.2778,-1.2774,-1.2778,-1.2778,-1.2782,-1.2778,-1.2803,-1.277,-1.277,-1.277,-1.277,-1.277,-1.2704,-1.2441,-1.2111,-1.1837,-1.1837,-1.1837,-1.1837,-1.1837,-1.1837,-1.1837,-1.1837,-1.1837,-1.1837,-1.1837,-1.1837,-1.1837,-1.1837,-1.1837,-1.1837,-1.1953,-1.2367,-1.2659,-1.2543,-1.3144,-1.3389,-1.3504,-1.3564,-1.3923,-1.4575,-1.5051,-1.5294,-1.5359,-1.5537,-1.5359,-1.4873,-1.4808,-1.4694,-1.4167,-1.3868,-1.3684,-1.326,-1.2779,-1.2423,-1.201,-1.1893,-1.1837,-1.1837,-1.1829,-1.1837,-1.1853,-1.1886,-1.1939,-1.206,-1.2073,-1.1996,-1.1902,-1.1866,-1.191,-1.2065,-1.2073,-1.2166,-1.23,-1.2345,-1.2357,-1.2381,-1.2515,-1.2596,-1.2645,-1.2718,-1.2787,-1.275,-1.277,-1.277,-1.277,-1.277,-1.277,-1.277,-1.277,-1.277,-1.277,-1.277,-1.277,-1.277,-1.277,-1.277,-1.277,-1.277,-1.277,-1.277,-1.277,-1.277,-1.277,-1.277,-1.277,-1.277,-1.277,-1.277,-1.277,-1.277,-1.277,-1.277,-1.277,-1.277,-1.277,-1.277,-1.277,-1.277,-1.277,-1.277,-1.277,-1.277,-1.277,-1.277,-1.277,-1.277,-1.277,-1.277,-1.2441,-1.1837,-1.1837,-1.1837,-1.1837,-1.1837,-1.1837,-1.1837,-1.1837,-1.1837,-1.1837,-1.1837,-1.1837,-1.1837,-1.1837,-1.1837,-1.1837,-1.1953,-1.2307,-1.2423,-1.2186,-1.2608,-1.2844,-1.2904,-1.308,-1.3559,-1.4331,-1.4873,-1.4932,-1.5056,-1.5294,-1.5477,-1.5418,-1.5359,-1.524,-1.5002,-1.4759,-1.4391,-1.3973,-1.332,-1.2784,-1.2423,-1.203,-1.1817,-1.1837,-1.1939,-1.1987,-1.2024,-1.2134,-1.2235,-1.2259,-1.2259,-1.2247,-1.2227,-1.2215,-1.2235,-1.2247,-1.2259,-1.2337,-1.2487,-1.2519,-1.2605,-1.2706,-1.2755,-1.2771,-1.2787,-1.2808,-1.2766,-1.277,-1.277,-1.277,-1.277,-1.277,-1.277,-1.277,-1.277,-1.277,-1.277,-1.277,-1.277,-1.277,-1.277,-1.277,-1.277,-1.277,-1.277,-1.277,-1.277,-1.277,-1.277,-1.277,-1.277,-1.277,-1.277,-1.277,-1.277,-1.277,-1.277,-1.277,-1.277,-1.277,-1.277,-1.277,-1.277,-1.277,-1.277,-1.277,-1.277,-1.277,-1.277,-1.277,-1.277,-1.277,-1.277,-1.277,-1.277,-1.1837,-1.1837,-1.1837,-1.1837,-1.1837,-1.1837,-1.1837,-1.1837,-1.1837,-1.1837,-1.1837,-1.1837,-1.1837,-1.1837,-1.1837,-1.1837,-1.1893,-1.2074,-1.2074,-1.1893,-1.2074,-1.2251,-1.2427,-1.2848,-1.3504,-1.4217,-1.4694,-1.5056,-1.5116,-1.5418,-1.5601,-1.5601,-1.5601,-1.5601,-1.5542,-1.5299,-1.4937,-1.458,-1.3983,-1.3329,-1.2746,-1.2153,-1.1939,-1.2052,-1.2113,-1.2166,-1.219,-1.2239,-1.2353,-1.2418,-1.2438,-1.2491,-1.254,-1.256,-1.2536,-1.2462,-1.2442,-1.2515,-1.2666,-1.2706,-1.2747,-1.2742,-1.277,-1.277,-1.277,-1.2766,-1.277,-1.277,-1.277,-1.277,-1.277,-1.277,-1.277,-1.277,-1.277,-1.277,-1.277,-1.277,-1.277,-1.277,-1.277,-1.277,-1.277,-1.277,-1.277,-1.277,-1.277,-1.277,-1.277,-1.277,-1.277,-1.277,-1.277,-1.277,-1.277,-1.277,-1.277,-1.277,-1.277,-1.277,-1.277,-1.277,-1.277,-1.277,-1.277,-1.277,-1.277,-1.277,-1.277,-1.277,-1.277,-1.277,-1.277,-1.277,-1.277,-1.1837,-1.1837,-1.1837,-1.1837,-1.1837,-1.1837,-1.1837,-1.1837,-1.1837,-1.1837,-1.1837,-1.1837,-1.1837,-1.1837,-1.1837,-1.1837,-1.1837,-1.1837,-1.1837,-1.1837,-1.1837,-1.1897,-1.2496,-1.2969,-1.3684,-1.4466,-1.4759,-1.5477,-1.5483,-1.5601,-1.5601,-1.5601,-1.5601,-1.5601,-1.5542,-1.5612,-1.5282,-1.5069,-1.4756,-1.4104,-1.2999,-1.2377,-1.215,-1.2304,-1.2337,-1.2357,-1.2361,-1.243,-1.2511,-1.2584,-1.2629,-1.2678,-1.2738,-1.2766,-1.2767,-1.2649,-1.2621,-1.2706,-1.2779,-1.2758,-1.275,-1.277,-1.277,-1.277,-1.277,-1.277,-1.277,-1.277,-1.277,-1.277,-1.277,-1.277,-1.277,-1.277,-1.277,-1.277,-1.277,-1.277,-1.277,-1.277,-1.277,-1.277,-1.277,-1.277,-1.277,-1.277,-1.277,-1.277,-1.277,-1.277,-1.277,-1.277,-1.277,-1.277,-1.277,-1.277,-1.277,-1.277,-1.277,-1.277,-1.277,-1.277,-1.277,-1.277,-1.277,-1.277,-1.277,-1.277,-1.277,-1.277,-1.277,-1.277,-1.277,-1.277,-1.277,-1.1837,-1.1837,-1.1837,-1.1837,-1.1837,-1.1837,-1.1837,-1.1837,-1.1837,-1.1837,-1.1837,-1.1837,-1.1837,-1.1837,-1.1837,-1.1837,-1.1837,-1.1837,-1.1837,-1.1837,-1.1837,-1.2315,-1.3149,-1.2904,-1.3961,-1.4825,-1.4924,-1.5116,-1.5536,-1.5661,-1.5623,-1.5628,-1.5666,-1.5623,-1.572,-1.5838,-1.5903,-1.5759,-1.5412,-1.4514,-1.3341,-1.2566,-1.2355,-1.2365,-1.2458,-1.2536,-1.2552,-1.2637,-1.2743,-1.2767,-1.2791,-1.2746,-1.277,-1.277,-1.2766,-1.2746,-1.2808,-1.2812,-1.2766,-1.277,-1.277,-1.277,-1.277,-1.277,-1.277,-1.277,-1.277,-1.277,-1.277,-1.277,-1.277,-1.277,-1.277,-1.277,-1.277,-1.277,-1.277,-1.277,-1.277,-1.277,-1.277,-1.277,-1.277,-1.277,-1.277,-1.277,-1.277,-1.2836,-1.277,-1.277,-1.277,-1.277,-1.277,-1.277,-1.277,-1.277,-1.2774,-1.2774,-1.2774,-1.277,-1.277,-1.277,-1.277,-1.277,-1.2778,-1.2803,-1.2889,-1.2885,-1.2786,-1.277,-1.277,-1.277,-1.277,-1.277,-1.2778,-1.1837,-1.1837,-1.1837,-1.1837,-1.1837,-1.1837,-1.1837,-1.1837,-1.1837,-1.1837,-1.1837,-1.1837,-1.1837,-1.1837,-1.1837,-1.1837,-1.1837,-1.1841,-1.1837,-1.1849,-1.1909,-1.2324,-1.3,-1.3374,-1.4283,-1.4983,-1.5495,-1.5788,-1.5907,-1.586,-1.5795,-1.5817,-1.5924,-1.6027,-1.5835,-1.6097,-1.6145,-1.587,-1.5256,-1.4297,-1.3499,-1.2842,-1.2503,-1.2596,-1.2674,-1.2702,-1.2735,-1.2775,-1.277,-1.277,-1.277,-1.277,-1.277,-1.277,-1.2766,-1.2766,-1.2766,-1.2766,-1.277,-1.277,-1.277,-1.277,-1.277,-1.277,-1.277,-1.277,-1.277,-1.277,-1.277,-1.277,-1.277,-1.277,-1.277,-1.277,-1.277,-1.2836,-1.2836,-1.277,-1.277,-1.277,-1.2836,-1.2964,-1.303,-1.3034,-1.3034,-1.2964,-1.2968,-1.2968,-1.2902,-1.277,-1.277,-1.277,-1.277,-1.277,-1.277,-1.277,-1.2782,-1.2782,-1.2782,-1.2778,-1.277,-1.277,-1.2823,-1.2917,-1.2946,-1.2962,-1.2966,-1.2938,-1.2843,-1.2807,-1.277,-1.2815,-1.2917,-1.2798,-1.2798,-1.1837,-1.1837,-1.1837,-1.1837,-1.1837,-1.1837,-1.1837,-1.1837,-1.1837,-1.1837,-1.1837,-1.1837,-1.1837,-1.1837,-1.1837,-1.1837,-1.178,-1.1817,-1.2019,-1.2088,-1.2247,-1.2712,-1.3554,-1.4132,-1.4686,-1.5314,-1.5921,-1.6186,-1.618,-1.6076,-1.5878,-1.6054,-1.5915,-1.5949,-1.5996,-1.5805,-1.5731,-1.5703,-1.4755,-1.4066,-1.3573,-1.2953,-1.2771,-1.2783,-1.277,-1.277,-1.277,-1.277,-1.277,-1.277,-1.277,-1.277,-1.277,-1.277,-1.277,-1.277,-1.277,-1.277,-1.277,-1.277,-1.277,-1.277,-1.277,-1.277,-1.277,-1.277,-1.277,-1.277,-1.277,-1.277,-1.277,-1.277,-1.277,-1.277,-1.277,-1.2898,-1.303,-1.3161,-1.3293,-1.3358,-1.3424,-1.3358,-1.3424,-1.3424,-1.3358,-1.3161,-1.3165,-1.3165,-1.3038,-1.2972,-1.2914,-1.2918,-1.279,-1.279,-1.279,-1.279,-1.2794,-1.2859,-1.2863,-1.2962,-1.3023,-1.3031,-1.3063,-1.3076,-1.3108,-1.312,-1.3165,-1.3063,-1.2978,-1.3039,-1.3076,-1.3027,-1.3011,-1.2958,-1.2962,-1.1837,-1.1837,-1.1837,-1.1837,-1.1837,-1.1837,-1.1837,-1.1837,-1.1837,-1.1837,-1.1837,-1.1837,-1.1841,-1.1792,-1.1809,-1.1809,-1.1805,-1.1947,-1.2365,-1.2802,-1.3212,-1.3807,-1.4514,-1.5035,-1.5406,-1.598,-1.6211,-1.6211,-1.6133,-1.5729,-1.5872,-1.6147,-1.5659,-1.5467,-1.534,-1.5238,-1.5051,-1.495,-1.4271,-1.3965,-1.3622,-1.3181,-1.2808,-1.2754,-1.277,-1.277,-1.277,-1.277,-1.277,-1.277,-1.277,-1.2798,-1.2877,-1.2815,-1.2819,-1.2859,-1.2925,-1.2929,-1.2863,-1.2803,-1.277,-1.277,-1.277,-1.277,-1.277,-1.277,-1.277,-1.2902,-1.303,-1.303,-1.2968,-1.2836,-1.3161,-1.3227,-1.3358,-1.349,-1.3682,-1.3814,-1.3879,-1.3945,-1.401,-1.401,-1.405,-1.4064,-1.4033,-1.3897,-1.3687,-1.3687,-1.3445,-1.3256,-1.3133,-1.3075,-1.2885,-1.2889,-1.2893,-1.2946,-1.31,-1.3202,-1.3238,-1.3279,-1.3327,-1.3323,-1.3331,-1.3368,-1.3421,-1.3388,-1.338,-1.3396,-1.3396,-1.3352,-1.3311,-1.3214,-1.3193,-1.3185,-1.3214,-1.1837,-1.1837,-1.1837,-1.1837,-1.1837,-1.1837,-1.1837,-1.1837,-1.1837,-1.1837,-1.1841,-1.1841,-1.1837,-1.1906,-1.1943,-1.2,-1.2155,-1.2652,-1.2994,-1.3319,-1.376,-1.4481,-1.514,-1.5443,-1.5698,-1.586,-1.6006,-1.578,-1.5371,-1.5208,-1.5282,-1.5287,-1.5096,-1.508,-1.4935,-1.4733,-1.4577,-1.4232,-1.401,-1.3748,-1.3227,-1.303,-1.277,-1.277,-1.277,-1.277,-1.277,-1.277,-1.277,-1.2778,-1.2786,-1.2909,-1.2982,-1.2994,-1.3043,-1.3116,-1.3124,-1.3133,-1.3088,-1.2978,-1.2774,-1.277,-1.277,-1.2848,-1.3009,-1.2848,-1.3099,-1.3293,-1.3507,-1.3603,-1.4028,-1.4085,-1.4211,-1.408,-1.4094,-1.4247,-1.4392,-1.4617,-1.4622,-1.4795,-1.4725,-1.4604,-1.4725,-1.4786,-1.4674,-1.4566,-1.4356,-1.4164,-1.3958,-1.3804,-1.3776,-1.3549,-1.3369,-1.3406,-1.3431,-1.3399,-1.3372,-1.3437,-1.3579,-1.3547,-1.3579,-1.3681,-1.3697,-1.3725,-1.3738,-1.3738,-1.3762,-1.3823,-1.375,-1.3551,-1.3429,-1.3344,-1.3356,-1.3405,-1.3429,-1.1837,-1.1837,-1.1837,-1.1837,-1.1837,-1.1837,-1.1837,-1.1837,-1.1837,-1.1813,-1.1849,-1.1857,-1.1947,-1.2073,-1.2117,-1.2349,-1.2645,-1.3091,-1.3627,-1.4047,-1.4463,-1.4916,-1.5301,-1.5444,-1.5357,-1.546,-1.554,-1.5364,-1.5019,-1.4726,-1.4637,-1.4567,-1.4408,-1.432,-1.4516,-1.4342,-1.4015,-1.3682,-1.3486,-1.3358,-1.2836,-1.2836,-1.277,-1.277,-1.277,-1.2885,-1.2909,-1.2942,-1.2982,-1.3011,-1.3039,-1.3072,-1.3133,-1.3193,-1.325,-1.3323,-1.3376,-1.3445,-1.3299,-1.3181,-1.3065,-1.3374,-1.3428,-1.3486,-1.3586,-1.3648,-1.4103,-1.4352,-1.4467,-1.4638,-1.5101,-1.5025,-1.4978,-1.4882,-1.4877,-1.5019,-1.5348,-1.5562,-1.5538,-1.5599,-1.5612,-1.582,-1.5727,-1.5815,-1.5467,-1.5433,-1.5372,-1.51,-1.4642,-1.4549,-1.4643,-1.4351,-1.3984,-1.4053,-1.4194,-1.3876,-1.364,-1.3951,-1.3965,-1.38,-1.3798,-1.39,-1.392,-1.3851,-1.3896,-1.4042,-1.4087,-1.4066,-1.3876,-1.3636,-1.3591,-1.3591,-1.3591,-1.364,-1.3608,-1.1837,-1.1837,-1.1837,-1.1841,-1.1792,-1.1837,-1.178,-1.1809,-1.1882,-1.1902,-1.202,-1.2028,-1.2125,-1.2268,-1.23,-1.259,-1.3033,-1.3464,-1.4034,-1.4825,-1.4797,-1.5305,-1.5385,-1.5329,-1.5055,-1.4912,-1.4931,-1.4866,-1.48,-1.4146,-1.3945,-1.3765,-1.352,-1.3445,-1.3822,-1.3231,-1.2902,-1.284,-1.2906,-1.2931,-1.2873,-1.2827,-1.2855,-1.2925,-1.2863,-1.2999,-1.3068,-1.3092,-1.3149,-1.3234,-1.3258,-1.3299,-1.3352,-1.3364,-1.3392,-1.3494,-1.3494,-1.3546,-1.3518,-1.3433,-1.3818,-1.4299,-1.431,-1.4535,-1.5199,-1.5416,-1.5306,-1.5375,-1.5495,-1.5528,-1.5624,-1.5692,-1.5731,-1.5774,-1.5822,-1.5952,-1.6273,-1.6469,-1.6439,-1.6419,-1.6995,-1.7421,-1.7151,-1.6834,-1.6433,-1.6292,-1.636,-1.5997,-1.5339,-1.5236,-1.5264,-1.5115,-1.4753,-1.4965,-1.4915,-1.4146,-1.3913,-1.4305,-1.4613,-1.4642,-1.442,-1.439,-1.4305,-1.4033,-1.4046,-1.4188,-1.4241,-1.4274,-1.4006,-1.3774,-1.3884,-1.3904,-1.3892,-1.3892,-1.3892,-1.1837,-1.1837,-1.1837,-1.1841,-1.1918,-1.1825,-1.1837,-1.1955,-1.2069,-1.2162,-1.2203,-1.2211,-1.2312,-1.2434,-1.2491,-1.266,-1.3034,-1.3648,-1.4298,-1.4498,-1.4707,-1.4982,-1.5127,-1.4996,-1.4805,-1.4735,-1.4539,-1.4277,-1.4207,-1.377,-1.3297,-1.3042,-1.3357,-1.3066,-1.3128,-1.2902,-1.277,-1.2865,-1.2934,-1.3015,-1.3023,-1.3108,-1.3173,-1.3165,-1.3161,-1.3202,-1.3271,-1.3275,-1.3331,-1.3473,-1.3417,-1.3453,-1.3526,-1.3551,-1.36,-1.3809,-1.4061,-1.4706,-1.4841,-1.496,-1.4696,-1.5124,-1.5306,-1.5383,-1.5613,-1.5604,-1.5812,-1.6254,-1.6357,-1.6551,-1.6886,-1.6959,-1.7079,-1.7073,-1.713,-1.7136,-1.7265,-1.727,-1.7322,-1.7311,-1.765,-1.7449,-1.7234,-1.7339,-1.7016,-1.68,-1.6785,-1.6401,-1.5715,-1.5687,-1.5684,-1.575,-1.5686,-1.5826,-1.5657,-1.4763,-1.467,-1.5123,-1.5664,-1.5999,-1.5731,-1.486,-1.4817,-1.4634,-1.4444,-1.4322,-1.4298,-1.4241,-1.4062,-1.3945,-1.4062,-1.4119,-1.4091,-1.4152,-1.4253,-1.1866,-1.187,-1.1935,-1.202,-1.2089,-1.1939,-1.1963,-1.2125,-1.2255,-1.2333,-1.2381,-1.2398,-1.2495,-1.2617,-1.2674,-1.2954,-1.3227,-1.3617,-1.4137,-1.4207,-1.4338,-1.4539,-1.4539,-1.4342,-1.4015,-1.408,-1.4141,-1.394,-1.4019,-1.3822,-1.39,-1.3992,-1.386,-1.4061,-1.3863,-1.3516,-1.3047,-1.3088,-1.3157,-1.3193,-1.3222,-1.3283,-1.3348,-1.3348,-1.336,-1.3392,-1.3441,-1.347,-1.349,-1.3518,-1.3563,-1.36,-1.3697,-1.375,-1.3794,-1.4081,-1.4319,-1.5097,-1.5584,-1.5721,-1.578,-1.6599,-1.6319,-1.6309,-1.6515,-1.6771,-1.6973,-1.7179,-1.7201,-1.7475,-1.7744,-1.7938,-1.7927,-1.7864,-1.787,-1.788,-1.7891,-1.7902,-1.7902,-1.7875,-1.7875,-1.7644,-1.7436,-1.7493,-1.7529,-1.7369,-1.7205,-1.6727,-1.6343,-1.6456,-1.6356,-1.6264,-1.6172,-1.6117,-1.5843,-1.5203,-1.5305,-1.6026,-1.6168,-1.62,-1.5527,-1.4474,-1.4826,-1.5074,-1.461,-1.4233,-1.4261,-1.4196,-1.4119,-1.4148,-1.4261,-1.429,-1.4274,-1.4298,-1.4351,-1.204,-1.2065,-1.2231,-1.23,-1.2284,-1.2154,-1.2178,-1.2316,-1.2333,-1.2434,-1.2568,-1.2572,-1.2657,-1.273,-1.2758,-1.3083,-1.3547,-1.3748,-1.4015,-1.4277,-1.401,-1.3945,-1.3682,-1.3424,-1.3621,-1.3494,-1.3708,-1.4345,-1.412,-1.4556,-1.5069,-1.5325,-1.5168,-1.5173,-1.4828,-1.4391,-1.3746,-1.3648,-1.3408,-1.3441,-1.3396,-1.3429,-1.3482,-1.349,-1.349,-1.3547,-1.3604,-1.3648,-1.3725,-1.3794,-1.3863,-1.3876,-1.3892,-1.3896,-1.39,-1.4043,-1.4185,-1.5181,-1.6178,-1.6391,-1.6875,-1.7601,-1.7508,-1.777,-1.7879,-1.7881,-1.7854,-1.7934,-1.7999,-1.8197,-1.8369,-1.8347,-1.8331,-1.8267,-1.8336,-1.8272,-1.8277,-1.8283,-1.8277,-1.8331,-1.832,-1.8148,-1.8127,-1.81,-1.7928,-1.7923,-1.7757,-1.7607,-1.738,-1.7614,-1.7423,-1.6877,-1.6705,-1.6301,-1.5928,-1.5462,-1.5484,-1.6032,-1.5399,-1.526,-1.4542,-1.4399,-1.4673,-1.4737,-1.4337,-1.4136,-1.414,-1.4213,-1.4286,-1.4322,-1.4249,-1.4306,-1.4241,-1.4184,-1.4184,-1.2227,-1.2231,-1.2284,-1.2377,-1.2495,-1.2568,-1.2568,-1.2511,-1.2617,-1.2726,-1.2755,-1.2759,-1.2779,-1.277,-1.277,-1.2964,-1.303,-1.3095,-1.3165,-1.3297,-1.3358,-1.3161,-1.3235,-1.3441,-1.3757,-1.4274,-1.4668,-1.5077,-1.5457,-1.5759,-1.5596,-1.5531,-1.5912,-1.5886,-1.5745,-1.5496,-1.4804,-1.4242,-1.3796,-1.362,-1.36,-1.3652,-1.3685,-1.3701,-1.3697,-1.3754,-1.3782,-1.3807,-1.3859,-1.3884,-1.39,-1.39,-1.39,-1.3971,-1.4114,-1.5399,-1.5678,-1.6178,-1.7379,-1.7243,-1.7379,-1.8153,-1.8153,-1.8153,-1.8363,-1.8433,-1.8433,-1.8433,-1.8433,-1.8433,-1.8433,-1.8433,-1.8433,-1.8433,-1.8433,-1.8433,-1.8433,-1.8433,-1.8433,-1.8433,-1.8433,-1.8433,-1.8433,-1.8358,-1.8191,-1.8352,-1.8368,-1.8228,-1.8158,-1.8293,-1.8012,-1.7449,-1.7097,-1.6673,-1.6325,-1.5928,-1.5914,-1.5838,-1.5323,-1.5039,-1.5132,-1.5066,-1.4755,-1.45,-1.4213,-1.4082,-1.3997,-1.4083,-1.4168,-1.4083,-1.4022,-1.4136,-1.4205,-1.414,-1.4123,-1.2406,-1.2418,-1.2487,-1.2576,-1.2682,-1.2726,-1.2771,-1.2702,-1.2726,-1.277,-1.277,-1.2766,-1.277,-1.277,-1.277,-1.2836,-1.2836,-1.2836,-1.2902,-1.2902,-1.2844,-1.3162,-1.3439,-1.3874,-1.4396,-1.5053,-1.5605,-1.6032,-1.636,-1.6651,-1.6651,-1.6791,-1.6644,-1.6454,-1.6293,-1.5845,-1.5246,-1.4745,-1.4378,-1.4011,-1.3857,-1.3843,-1.388,-1.39,-1.39,-1.39,-1.39,-1.39,-1.39,-1.39,-1.39,-1.39,-1.3971,-1.4185,-1.4755,-1.5895,-1.6112,-1.6603,-1.7449,-1.7454,-1.7731,-1.8153,-1.8433,-1.8363,-1.8363,-1.8433,-1.8433,-1.8433,-1.8433,-1.8433,-1.8433,-1.8433,-1.8433,-1.8433,-1.8433,-1.8433,-1.8433,-1.8433,-1.8433,-1.8433,-1.8433,-1.8433,-1.8433,-1.8433,-1.8433,-1.8433,-1.8433,-1.8363,-1.8298,-1.8363,-1.8012,-1.7379,-1.7238,-1.7026,-1.6608,-1.6188,-1.6112,-1.5895,-1.5461,-1.5319,-1.5607,-1.5181,-1.4466,-1.4252,-1.4122,-1.3992,-1.3941,-1.3924,-1.3957,-1.39,-1.39,-1.3993,-1.4075,-1.4062,-1.4075,-1.2649,-1.2601,-1.2767,-1.2746,-1.2766,-1.277,-1.2766,-1.277,-1.2766,-1.277,-1.277,-1.277,-1.277,-1.277,-1.277,-1.277,-1.277,-1.277,-1.2803,-1.286,-1.3095,-1.3436,-1.396,-1.4406,-1.5189,-1.5803,-1.6186,-1.6488,-1.6763,-1.6973,-1.73,-1.8147,-1.7348,-1.6841,-1.663,-1.5933,-1.534,-1.496,-1.4739,-1.4561,-1.4014,-1.3896,-1.39,-1.39,-1.39,-1.39,-1.3904,-1.3971,-1.3971,-1.3971,-1.4114,-1.4185,-1.447,-1.4964,-1.5673,-1.6174,-1.6608,-1.7026,-1.752,-1.7666,-1.7872,-1.8153,-1.8433,-1.8433,-1.8433,-1.8433,-1.8433,-1.8433,-1.8433,-1.8433,-1.8433,-1.8433,-1.8433,-1.8433,-1.8433,-1.8433,-1.8433,-1.8433,-1.8433,-1.8433,-1.8433,-1.8433,-1.8433,-1.8433,-1.8433,-1.8433,-1.8433,-1.8433,-1.8433,-1.8433,-1.8012,-1.7449,-1.7308,-1.7097,-1.6537,-1.6188,-1.6188,-1.5966,-1.5673,-1.5243,-1.5319,-1.475,-1.3971,-1.3971,-1.4043,-1.3971,-1.3908,-1.39,-1.39,-1.39,-1.39,-1.39,-1.3928,-1.3965,-1.3989,-1.2771,-1.2771,-1.2754,-1.277,-1.277,-1.277,-1.277,-1.277,-1.277,-1.277,-1.277,-1.277,-1.277,-1.277,-1.277,-1.2774,-1.2786,-1.2815,-1.2925,-1.3199,-1.3507,-1.3873,-1.4629,-1.5281,-1.6001,-1.64,-1.6651,-1.6614,-1.6514,-1.6692,-1.6751,-1.6739,-1.6461,-1.6461,-1.6461,-1.5678,-1.539,-1.4888,-1.4817,-1.4533,-1.3971,-1.39,-1.39,-1.39,-1.39,-1.3971,-1.4114,-1.4466,-1.4604,-1.4746,-1.5394,-1.5612,-1.5687,-1.6315,-1.6739,-1.7097,-1.7454,-1.7731,-1.7942,-1.8017,-1.8153,-1.8223,-1.8433,-1.8433,-1.8433,-1.8433,-1.8433,-1.8433,-1.8433,-1.8433,-1.8433,-1.8433,-1.8433,-1.8433,-1.8433,-1.8433,-1.8433,-1.8433,-1.8433,-1.8433,-1.8433,-1.8433,-1.8433,-1.8433,-1.8433,-1.8433,-1.8433,-1.8433,-1.8433,-1.8363,-1.8088,-1.7661,-1.7379,-1.7097,-1.6608,-1.6537,-1.6678,-1.6537,-1.6249,-1.5673,-1.5101,-1.4608,-1.4114,-1.3971,-1.39,-1.39,-1.39,-1.39,-1.39,-1.39,-1.39,-1.39,-1.39,-1.3928,-1.392,-1.277,-1.277,-1.277,-1.277,-1.277,-1.277,-1.277,-1.277,-1.277,-1.277,-1.277,-1.277,-1.277,-1.277,-1.277,-1.2909,-1.2934,-1.2954,-1.3076,-1.338,-1.3917,-1.436,-1.5064,-1.5829,-1.6141,-1.6466,-1.6485,-1.6421,-1.6098,-1.6254,-1.6249,-1.6112,-1.5966,-1.5678,-1.5678,-1.5394,-1.511,-1.4537,-1.4604,-1.4395,-1.3971,-1.3971,-1.39,-1.39,-1.39,-1.4043,-1.4462,-1.4817,-1.5101,-1.5461,-1.5895,-1.6042,-1.6254,-1.6744,-1.7168,-1.7449,-1.7872,-1.8433,-1.8433,-1.8433,-1.8433,-1.8433,-1.8433,-1.8433,-1.8433,-1.8433,-1.8433,-1.8433,-1.8433,-1.8433,-1.8433,-1.8433,-1.8433,-1.8433,-1.8433,-1.8433,-1.8433,-1.8433,-1.8433,-1.8433,-1.8433,-1.8433,-1.8433,-1.8433,-1.8433,-1.8433,-1.8433,-1.8433,-1.8433,-1.8433,-1.8088,-1.7877,-1.7731,-1.7731,-1.7595,-1.7449,-1.7449,-1.7168,-1.682,-1.6103,-1.5456,-1.4817,-1.4395,-1.4185,-1.3971,-1.39,-1.39,-1.39,-1.39,-1.39,-1.39,-1.39,-1.39,-1.39,-1.39,-1.277,-1.277,-1.277,-1.277,-1.277,-1.277,-1.277,-1.277,-1.277,-1.279,-1.2819,-1.2815,-1.2869,-1.2803,-1.2811,-1.2999,-1.3084,-1.3124,-1.3246,-1.3566,-1.422,-1.4553,-1.5001,-1.5631,-1.5924,-1.599,-1.5985,-1.5863,-1.5612,-1.5616,-1.5541,-1.5683,-1.539,-1.4888,-1.4746,-1.4537,-1.4324,-1.4613,-1.4684,-1.4403,-1.4189,-1.4114,-1.4114,-1.4114,-1.4185,-1.4541,-1.4959,-1.5243,-1.5607,-1.5961,-1.632,-1.6466,-1.6749,-1.7168,-1.7449,-1.7731,-1.8082,-1.8363,-1.8433,-1.8433,-1.8433,-1.8433,-1.8433,-1.8433,-1.8433,-1.8433,-1.8433,-1.8433,-1.8433,-1.8433,-1.8433,-1.8433,-1.8433,-1.8433,-1.8433,-1.8433,-1.8433,-1.8433,-1.8433,-1.8433,-1.8433,-1.8433,-1.8433,-1.8433,-1.8433,-1.8433,-1.8433,-1.8433,-1.8433,-1.8433,-1.8298,-1.8228,-1.8082,-1.8153,-1.8228,-1.8153,-1.7942,-1.7872,-1.7449,-1.6593,-1.5744,-1.5172,-1.4679,-1.4324,-1.4114,-1.3971,-1.39,-1.39,-1.39,-1.39,-1.39,-1.39,-1.39,-1.39,-1.39,-1.277,-1.277,-1.277,-1.277,-1.277,-1.277,-1.277,-1.277,-1.2778,-1.2909,-1.3023,-1.3043,-1.3043,-1.3047,-1.3043,-1.3145,-1.3299,-1.3319,-1.3433,-1.3637,-1.4345,-1.4749,-1.4978,-1.5277,-1.5561,-1.5452,-1.5177,-1.4893,-1.4897,-1.4617,-1.4399,-1.4541,-1.455,-1.4546,-1.4968,-1.4843,-1.4958,-1.5114,-1.5252,-1.5252,-1.5297,-1.5141,-1.4822,-1.5035,-1.5465,-1.5678,-1.5966,-1.5966,-1.6042,-1.6325,-1.6749,-1.6956,-1.7238,-1.759,-1.7872,-1.7872,-1.8223,-1.8363,-1.8433,-1.8433,-1.8433,-1.8433,-1.8433,-1.8433,-1.8433,-1.8433,-1.8433,-1.8433,-1.8433,-1.8433,-1.8433,-1.8433,-1.8433,-1.8433,-1.8433,-1.8433,-1.8433,-1.8433,-1.8433,-1.8433,-1.8433,-1.8433,-1.8433,-1.8433,-1.8433,-1.8433,-1.8433,-1.8433,-1.8433,-1.8433,-1.8433,-1.8433,-1.8433,-1.8433,-1.8368,-1.8368,-1.8223,-1.8293,-1.8012,-1.7017,-1.6169,-1.5527,-1.503,-1.4395,-1.4114,-1.39,-1.39,-1.39,-1.39,-1.39,-1.39,-1.39,-1.39,-1.39,-1.39]}]]